GFSSE_sfc_temp_000.txt.gz
Temp
80 83 73 74 74 74 74 74 75 76 77 76 76 76 76 76 76 76 77 76 77 78 78 78 77 78 78 78 77 76 75 75 75 76 76 76 76 76 76 75 76 87 77
80 83 72 73 73 74 74 74 75 76 77 76 78 77 75 76 77 76 76 76 77 78 78 78 77 78 78 77 75 74 74 74 74 74 75 76 76 76 75 74 75 82 76
78 81 83 73 74 74 74 75 75 76 76 76 78 77 76 77 76 76 76 76 77 77 77 78 78 77 77 75 74 74 74 73 73 74 74 87 86 76 75 73 74 75 75
78 84 84 72 73 74 74 74 75 76 75 75 76 76 75 74 72 67 74 75 76 77 77 77 78 77 76 75 74 73 73 73 72 73 82 87 87 76 75 74 74 75 75
81 83 81 72 72 73 74 74 75 75 75 75 75 76 75 77 73 71 73 75 76 77 77 77 77 76 74 72 73 72 72 72 72 75 87 85 88 79 75 74 74 74 74
81 83 75 71 72 73 74 74 75 75 74 75 75 76 76 76 77 77 75 75 76 76 77 76 75 74 73 72 71 71 71 71 70 85 85 82 84 76 75 74 74 73 73
80 82 82 70 72 73 74 74 74 74 74 74 74 74 75 75 75 74 74 74 74 75 76 76 74 73 72 72 71 70 70 69 81 86 85 84 83 76 75 74 73 73 73
83 82 83 72 70 71 72 73 72 73 73 73 73 73 73 73 73 73 73 73 73 74 74 73 72 71 71 70 70 69 69 68 78 84 84 85 77 74 75 74 73 72 72
81 81 83 83 77 70 69 69 69 70 71 71 71 71 71 71 71 72 72 73 74 73 73 72 71 71 71 70 69 68 67 68 81 84 83 84 72 73 74 74 73 72 72
80 81 81 83 82 81 81 67 68 68 68 69 70 69 67 68 70 70 69 71 71 72 72 71 70 70 70 70 68 66 67 67 79 83 84 84 72 73 74 74 74 73 71
79 78 77 80 79 79 81 78 74 70 69 68 70 67 70 77 72 71 64 65 67 69 69 70 69 68 67 67 66 65 65 75 78 82 84 72 71 73 74 74 72 72 71
74 76 77 75 76 79 82 80 80 79 79 79 79 76 78 72 70 66 63 63 63 63 62 67 67 67 67 79 76 66 73 71 70 75 80 68 69 72 74 73 72 71 70
74 76 74 73 73 77 78 83 81 72 75 77 75 75 72 67 63 68 61 61 61 61 62 60 67 70 71 74 73 71 62 59 62 65 69 67 68 70 73 74 72 72 70
74 74 72 72 72 73 79 79 78 78 76 75 74 73 72 70 70 65 63 62 59 61 61 61 62 62 66 72 67 62 66 62 63 62 67 66 66 68 71 74 72 72 70
72 73 71 72 72 73 74 75 74 74 74 73 73 73 75 73 69 69 65 64 62 62 61 61 65 66 63 64 64 64 66 65 63 61 60 63 64 66 68 72 74 72 71
73 72 71 72 72 73 73 72 72 72 73 73 72 71 71 72 69 69 63 63 63 63 64 64 63 65 64 65 66 69 68 69 65 65 66 63 61 64 65 68 72 72 72
73 72 72 72 72 72 72 73 74 73 73 72 71 70 70 71 69 67 68 65 65 64 63 63 62 63 65 66 67 70 69 67 66 65 66 63 62 63 62 65 67 70 71
73 72 72 73 72 72 72 74 74 74 73 72 72 71 69 68 69 68 68 66 65 65 62 59 57 58 59 60 61 64 66 70 69 68 66 63 61 66 67 63 65 67 69
72 72 71 71 71 71 71 72 71 70 73 73 72 72 69 69 68 69 68 67 66 67 65 63 61 63 62 60 61 66 62 62 69 68 67 61 60 60 65 69 63 64 66
71 71 71 71 69 69 71 70 71 71 72 73 72 72 70 70 69 70 69 67 68 67 65 64 63 65 65 62 61 61 63 67 66 66 67 63 61 61 59 63 75 72 63
70 70 70 69 69 70 69 69 70 69 70 71 73 70 69 71 69 69 70 68 67 66 64 63 63 62 63 63 61 60 62 62 65 63 65 70 64 60 60 61 68 78 75
69 70 70 70 70 70 72 72 72 70 71 73 72 68 68 68 68 69 67 67 66 66 64 63 62 61 62 63 57 57 55 62 63 62 64 64 67 65 59 59 65 74 77
67 69 70 71 70 70 70 70 69 68 68 68 69 70 69 67 67 66 66 66 65 65 64 63 63 61 59 62 61 57 52 51 51 63 64 61 63 62 63 60 60 69 74
68 69 69 70 70 70 69 68 66 67 66 69 67 69 68 67 66 66 65 65 64 64 63 63 65 62 61 58 62 63 59 57 51 51 59 57 58 59 63 61 59 63 71
68 68 68 69 68 69 67 66 65 64 66 67 66 63 64 65 65 65 64 63 63 63 62 61 60 60 61 59 59 60 59 59 57 53 50 56 56 56 56 62 61 56 62
68 66 66 66 67 67 65 64 62 62 63 62 63 61 63 63 64 63 63 61 61 60 60 60 60 59 59 59 59 59 58 56 56 55 53 54 54 56 53 56 56 55 56

GFSSE_sfc_temp_003.txt.gz
Temp
86 86 74 74 74 75 75 75 76 77 78 77 77 76 76 76 76 76 76 76 77 78 78 78 77 78 78 78 77 76 75 75 76 76 76 77 77 77 76 76 77 84 77
85 85 72 74 74 74 75 75 76 76 78 79 78 77 77 77 76 76 76 76 77 78 80 79 78 78 78 78 76 75 74 74 74 75 75 76 76 76 76 75 76 81 77
82 87 85 73 74 74 75 76 76 76 76 76 78 78 77 76 72 73 74 73 72 74 78 79 78 78 77 76 74 74 74 74 74 74 75 85 84 76 75 74 75 76 76
79 85 87 72 74 74 74 75 76 76 76 75 76 76 77 73 71 70 71 72 73 74 72 78 78 77 76 74 73 74 74 73 73 74 81 86 86 75 75 74 74 75 75
83 84 81 73 73 74 74 75 76 76 76 76 75 77 77 75 72 72 71 72 73 74 76 77 78 76 74 73 72 73 73 73 72 75 86 87 86 78 75 74 74 74 74
80 82 75 72 73 74 75 75 75 75 75 76 75 75 76 77 71 72 71 71 72 74 74 77 76 73 71 72 73 72 72 72 71 83 87 83 84 75 75 74 73 74 73
82 80 79 71 72 73 74 75 75 75 74 75 75 74 75 75 74 74 74 74 74 69 69 74 74 70 70 72 72 71 70 71 79 86 87 86 83 75 75 74 73 73 72
87 83 81 72 71 71 71 71 72 73 74 74 74 74 74 74 73 73 73 73 73 72 72 73 72 71 71 71 71 71 70 69 78 83 87 87 76 75 75 74 73 72 73
87 86 87 87 78 70 70 69 69 70 71 72 72 72 73 72 72 72 68 69 69 72 71 72 71 71 71 70 70 70 68 69 77 79 85 86 73 74 75 73 73 72 72
86 88 87 87 87 85 83 69 69 69 69 70 70 69 69 71 71 66 68 67 67 67 67 66 69 70 70 69 68 68 67 68 77 80 79 83 73 74 74 74 73 73 72
85 84 83 85 83 83 85 80 72 71 71 70 70 68 69 79 74 75 66 66 66 65 65 64 63 66 67 67 67 67 66 78 80 78 76 70 73 74 74 74 73 72 72
81 82 83 79 80 81 86 83 83 81 81 81 81 78 81 77 76 75 69 65 65 64 64 63 61 62 65 74 72 67 75 79 78 79 81 70 72 73 74 73 73 72 71
81 82 80 78 78 80 82 83 76 78 79 80 78 79 75 75 74 74 73 73 70 64 67 61 60 59 59 60 62 69 76 75 77 78 77 69 71 72 73 73 73 72 71
81 80 78 76 77 78 84 84 82 81 80 80 78 76 75 75 71 73 71 71 69 68 65 62 59 59 60 62 60 63 65 69 72 72 73 65 68 71 72 72 73 73 71
79 80 77 77 77 78 78 78 77 77 77 77 78 75 77 76 73 74 72 72 70 70 65 64 62 60 61 63 63 62 65 67 67 68 68 64 65 68 70 71 72 73 72
79 78 77 78 77 78 77 75 74 75 75 76 75 74 73 74 72 73 73 71 70 68 67 65 64 64 63 64 63 64 65 66 68 71 70 68 62 63 67 68 70 72 73
80 79 77 78 78 77 76 76 77 76 76 75 74 72 72 72 70 70 71 71 70 68 65 63 60 62 64 64 64 65 65 67 69 67 70 70 68 60 63 66 68 69 71
80 78 79 80 78 76 76 77 78 77 76 75 74 73 71 70 71 71 71 69 68 69 68 65 63 61 62 62 60 62 66 68 70 70 69 66 69 72 64 63 65 67 68
79 78 76 77 76 75 75 78 76 73 76 76 74 73 71 71 70 71 70 69 68 69 67 66 65 64 62 64 63 63 64 66 68 69 67 67 68 68 71 65 62 64 66
78 77 76 76 75 74 75 74 75 75 74 74 74 74 71 71 71 71 71 69 68 68 66 65 63 65 64 63 63 63 64 64 65 67 67 70 69 68 67 68 71 64 62
76 74 74 74 73 74 73 72 72 70 72 73 74 72 71 73 71 70 71 69 69 67 66 65 64 62 63 65 60 61 64 65 64 68 68 65 68 69 67 67 67 70 70
74 74 74 74 74 73 75 74 74 73 73 74 74 71 71 70 70 70 69 68 68 66 65 65 63 61 62 65 59 58 55 61 66 63 65 65 68 70 67 67 66 65 66
73 73 74 75 75 73 73 74 72 71 70 70 71 71 70 69 70 69 68 67 66 66 64 64 64 61 59 62 63 59 53 52 57 63 65 64 64 64 65 65 64 65 65
73 74 74 75 75 75 73 71 69 68 67 70 71 72 72 71 69 69 68 67 66 65 63 63 65 63 61 58 61 63 62 60 52 50 61 62 63 62 57 60 63 65 64
76 73 73 73 73 74 73 68 67 64 67 69 69 67 67 67 68 67 67 65 64 64 64 63 62 61 62 60 59 59 59 60 60 56 52 56 62 64 57 55 55 62 64
75 73 72 72 72 73 71 69 64 62 64 64 64 62 62 64 64 65 65 63 62 61 61 61 61 60 59 59 60 59 58 56 55 56 55 56 56 62 64 58 55 56 58

GFSSE_sfc_temp_006.txt.gz
Temp
81 78 74 75 75 75 75 75 75 77 78 77 77 77 77 77 77 77 77 77 77 78 79 78 78 78 78 78 77 75 75 75 75 75 76 77 77 77 77 76 75 79 76
82 79 73 74 74 75 75 76 76 76 78 79 77 77 77 77 77 76 76 76 75 75 74 77 78 77 78 77 75 75 75 74 74 74 75 76 76 76 76 75 75 79 76
82 82 78 73 75 75 75 76 76 76 76 76 78 77 76 74 74 74 73 72 73 73 72 73 75 77 76 75 75 74 74 74 73 74 74 73 74 75 75 74 75 76 75
83 80 77 73 73 74 75 76 76 76 75 75 76 77 75 74 73 73 73 73 71 74 74 74 73 73 75 73 73 73 73 73 73 73 72 76 81 75 76 74 74 75 75
81 81 75 72 73 74 75 75 75 75 75 74 75 76 76 74 73 73 73 72 73 74 75 74 70 71 74 72 72 73 73 73 72 73 73 78 78 76 76 75 73 74 74
82 81 72 72 73 74 75 75 75 75 74 73 74 74 75 72 73 73 71 71 73 72 72 68 70 69 70 70 71 72 72 72 71 71 75 79 78 75 76 74 73 74 73
81 81 76 71 72 73 73 73 73 73 73 73 73 73 74 74 73 73 73 73 73 71 69 68 68 69 68 69 71 71 71 70 72 72 78 75 73 75 75 74 73 73 73
82 81 78 72 71 72 72 71 71 72 73 73 73 73 73 72 72 71 71 71 72 71 70 69 70 70 71 71 71 70 70 69 73 72 76 79 74 75 76 74 73 72 72
86 84 83 78 74 70 70 70 70 71 72 73 73 73 72 71 69 69 69 69 69 69 69 71 71 70 70 70 70 69 68 68 66 72 76 77 73 74 75 74 73 72 72
84 84 83 84 79 72 71 69 69 70 71 72 71 71 71 69 68 67 68 68 68 68 66 66 66 66 69 69 68 68 68 67 65 70 72 72 73 75 75 74 73 72 72
83 80 79 80 79 79 79 73 70 70 70 69 69 70 68 72 71 68 67 67 67 67 67 66 65 65 66 67 68 68 67 66 69 70 70 70 73 75 75 74 72 72 72
78 79 77 75 74 76 82 78 74 77 74 73 73 72 72 71 67 68 66 66 66 65 64 64 63 63 64 61 62 66 64 66 68 70 69 69 72 75 75 73 72 72 71
78 77 75 74 74 75 75 74 74 73 73 72 73 72 69 69 67 67 68 66 66 63 62 61 60 59 59 59 59 60 62 62 65 67 70 69 71 74 75 74 73 72 71
79 77 75 73 73 73 74 74 73 73 72 71 70 71 68 66 65 65 66 64 64 64 63 62 58 57 57 59 59 58 60 61 63 67 66 66 68 72 74 74 73 73 72
76 77 75 73 72 73 73 70 70 69 68 69 69 69 68 67 65 65 63 63 63 63 61 60 59 58 57 59 59 59 60 60 62 63 65 65 64 67 71 74 74 73 72
77 76 75 73 72 73 72 70 68 68 67 67 67 67 68 66 64 64 63 63 62 62 61 61 60 61 61 60 60 61 61 61 62 64 66 66 63 64 66 70 72 73 73
77 76 73 73 73 71 70 68 67 67 68 66 65 66 66 66 63 63 62 62 61 61 60 59 58 58 58 61 60 61 61 62 62 63 63 66 65 62 63 65 68 70 71
77 75 74 77 72 70 69 68 69 68 66 66 65 64 64 65 65 63 61 60 59 60 59 57 56 56 56 57 57 57 58 61 62 63 65 65 65 67 63 63 64 66 68
75 75 72 72 70 70 69 69 68 67 66 66 65 64 64 64 65 62 61 59 59 59 58 57 55 55 54 55 57 57 56 57 61 64 64 64 63 64 66 64 62 63 65
74 73 72 71 70 69 68 66 66 65 66 65 65 64 64 63 64 62 61 60 60 58 57 56 55 55 55 54 60 57 54 56 58 59 62 65 64 65 64 64 63 61 61
72 71 70 70 68 67 65 63 62 61 63 63 65 66 64 64 64 61 60 60 60 58 57 57 55 54 52 54 52 51 52 56 55 59 59 61 62 63 63 64 64 64 64
70 70 69 70 69 67 66 65 64 64 64 65 64 63 64 63 63 63 60 59 59 57 56 55 55 52 52 53 49 49 46 51 54 55 57 58 58 59 61 64 63 64 64
68 68 70 69 69 67 66 66 64 63 61 61 61 61 62 62 62 62 61 59 58 57 55 54 53 53 49 51 52 48 45 43 48 54 53 55 54 56 58 59 61 63 64
68 68 68 69 69 69 66 64 61 61 60 62 60 62 64 62 61 62 61 60 57 56 55 54 57 52 51 48 50 55 50 50 46 45 50 52 53 54 54 56 58 60 61
69 67 66 67 67 68 65 63 61 59 60 59 59 60 60 60 62 62 61 59 56 55 54 52 52 52 51 49 49 48 49 50 50 47 45 49 51 52 52 53 53 54 57
69 67 66 66 67 67 65 63 59 57 57 57 57 55 57 57 56 57 57 54 53 53 52 50 50 50 49 49 49 50 49 47 47 47 46 48 48 51 52 52 50 51 54

GFSSE_sfc_temp_012.txt.gz
Temp
69 69 73 74 74 74 74 74 74 75 75 76 76 76 76 76 76 76 76 76 76 77 79 78 77 77 77 77 76 75 74 74 74 75 76 77 77 76 76 75 75 76 76
69 71 72 73 73 74 74 74 75 75 76 76 76 76 76 76 76 76 76 75 76 77 77 77 77 77 77 75 74 74 73 72 72 73 74 75 76 77 75 74 74 74 75
69 70 71 72 73 74 74 74 75 75 76 76 76 76 76 76 75 75 74 74 75 76 76 76 76 75 75 74 72 72 73 72 70 72 73 68 69 75 75 74 74 74 75
72 70 70 72 72 73 73 74 74 75 75 75 75 75 75 75 75 75 74 73 73 74 75 75 75 74 72 71 70 70 70 71 71 71 69 71 71 75 75 74 74 75 74
68 68 70 71 72 73 73 73 73 73 73 73 74 74 74 74 75 74 73 72 73 74 74 74 74 73 70 70 70 70 68 69 71 72 67 69 69 75 76 75 74 74 74
65 66 68 70 71 72 73 73 72 72 72 72 72 73 74 74 74 73 72 72 73 73 74 73 73 71 70 69 69 68 68 68 68 69 68 70 72 75 76 74 73 73 72
65 66 68 69 71 72 73 72 72 72 71 71 72 72 72 72 72 72 71 71 72 72 72 72 72 69 69 68 68 68 68 68 68 68 67 68 70 74 76 74 73 72 72
67 67 68 70 71 71 72 71 71 71 71 71 71 71 71 70 70 70 70 70 70 70 70 70 69 69 68 67 68 68 67 67 69 67 66 67 71 74 76 74 73 72 72
69 67 66 67 69 70 69 69 69 70 70 70 69 69 69 68 68 69 69 69 69 69 69 69 68 68 68 68 67 67 67 67 65 65 67 69 71 73 76 74 73 72 72
68 67 65 66 66 65 65 68 68 68 69 69 69 67 67 67 67 67 67 68 68 68 68 68 68 68 67 67 67 66 66 66 63 63 64 66 70 75 76 75 73 72 72
68 65 65 65 65 64 64 67 67 69 68 68 68 67 65 63 63 64 66 67 68 67 67 66 66 65 65 65 65 66 65 62 62 63 63 66 69 74 76 74 72 72 72
63 64 63 63 64 64 71 66 64 67 65 65 65 64 64 62 61 63 64 66 66 65 65 64 64 63 61 58 58 62 60 61 61 61 62 67 70 75 75 73 72 72 71
63 63 63 65 64 64 65 63 62 62 62 63 64 62 62 61 61 60 59 60 58 61 57 58 57 55 56 55 55 56 58 58 59 60 63 65 68 72 73 73 72 72 71
62 62 62 63 64 62 61 62 62 62 61 61 61 62 59 59 58 58 58 58 57 56 56 55 55 55 54 54 55 55 56 56 59 62 61 63 65 67 70 72 72 71 71
62 61 61 62 63 62 61 60 59 59 59 60 60 61 60 58 58 58 57 56 56 56 56 55 58 58 57 55 56 56 56 56 57 58 60 62 63 66 68 70 71 72 72
63 61 61 62 63 62 60 60 59 58 58 58 58 59 60 58 57 57 56 56 55 55 54 54 53 53 53 54 55 57 57 57 59 59 58 59 61 63 65 67 69 71 72
62 62 61 61 61 61 60 60 59 59 59 57 57 58 59 58 57 56 55 54 54 54 54 52 52 51 50 52 52 53 55 56 56 57 58 59 60 61 62 64 65 68 69
62 62 62 68 61 60 60 60 60 58 57 57 57 56 58 59 58 55 54 53 53 53 52 50 50 49 49 48 47 48 51 52 52 53 54 56 59 61 62 62 64 65 66
62 62 62 61 60 59 58 58 57 58 56 56 56 56 58 58 58 55 53 53 54 52 50 51 50 49 48 49 50 50 49 49 50 55 53 54 56 58 60 62 61 62 63
60 60 60 59 59 59 57 55 55 54 55 54 55 55 58 57 58 54 53 53 53 51 50 49 50 49 49 48 53 51 48 49 48 49 50 54 54 55 56 59 59 60 60
59 60 60 60 59 56 55 54 52 53 54 54 54 57 56 57 57 54 53 53 52 51 50 50 49 49 47 47 46 45 46 47 48 51 49 48 50 52 53 53 56 59 60
60 60 59 60 59 58 56 55 55 54 54 55 55 54 55 55 55 55 53 52 51 50 50 50 49 47 47 47 45 42 40 45 46 48 50 49 48 48 51 53 53 58 59
58 59 61 60 59 58 57 55 54 52 52 52 53 52 54 55 56 54 54 52 50 50 49 49 49 47 45 45 46 44 39 37 44 47 47 49 48 47 47 49 52 56 58
58 57 58 60 59 59 57 54 53 56 56 57 56 53 54 55 55 54 53 52 50 49 48 47 49 45 44 43 44 48 45 42 38 40 45 48 50 50 46 46 48 52 56
59 59 59 60 59 60 57 54 52 52 55 57 51 52 51 52 53 54 52 51 49 48 47 47 46 44 45 43 43 41 42 41 41 39 38 44 49 49 48 46 45 45 51
57 57 57 57 58 58 57 55 52 51 54 52 51 49 49 48 47 49 51 49 49 48 48 46 46 45 44 45 44 42 41 39 40 38 38 40 41 46 50 49 47 45 45

GFSSE_sfc_temp_015.txt.gz
Temp
66 69 72 73 74 74 74 74 74 75 75 75 76 76 75 75 76 75 75 75 76 78 78 78 77 77 77 77 76 75 75 74 74 75 75 76 77 77 76 75 74 74 75
67 69 72 73 73 74 74 74 74 75 75 76 75 75 75 75 75 75 75 75 76 77 77 77 77 77 77 76 75 74 74 73 73 73 74 75 75 75 75 74 74 73 74
66 68 70 72 73 73 74 75 75 75 76 76 75 75 75 75 75 75 74 74 75 76 76 76 76 76 75 74 73 72 73 73 72 73 73 69 69 75 75 73 74 74 75
68 68 70 72 73 73 73 73 74 75 75 75 75 75 75 75 75 74 73 72 72 75 75 75 75 75 74 72 72 72 72 71 72 72 70 70 72 75 75 74 74 75 75
66 67 69 71 72 72 73 73 73 73 73 73 73 74 74 74 74 74 72 72 73 74 74 75 75 73 71 71 71 71 72 71 69 70 66 68 69 74 75 75 74 74 73
64 66 68 70 71 72 72 72 72 72 72 72 72 73 73 73 73 73 70 70 73 73 73 73 73 71 70 69 69 70 69 68 68 66 67 69 70 73 75 74 73 72 72
63 65 67 69 71 72 73 72 72 71 71 71 72 72 72 72 72 71 71 71 72 72 72 72 72 70 69 69 69 68 68 68 67 65 65 66 68 72 75 74 73 72 72
66 66 67 70 71 71 72 71 70 70 70 70 70 71 71 70 70 70 70 70 70 70 70 70 69 69 69 68 68 68 67 67 67 65 64 64 68 72 74 74 73 72 72
66 65 66 67 69 69 69 69 69 69 69 69 69 69 69 68 68 69 69 70 69 69 69 69 68 68 68 68 67 67 66 66 63 63 65 64 69 71 73 75 73 72 72
64 65 64 65 66 64 64 67 67 68 68 68 68 68 67 67 67 68 67 68 68 68 68 68 67 67 67 66 66 66 65 65 61 62 63 63 69 72 74 75 74 73 72
65 64 64 64 64 63 63 66 67 68 68 67 67 66 64 63 63 63 66 67 67 66 66 66 65 64 63 63 63 64 63 60 60 60 62 65 69 73 75 73 73 72 72
62 62 63 63 63 63 68 64 63 65 64 64 64 63 62 61 60 62 64 66 66 65 65 64 63 62 59 56 56 59 58 59 59 60 60 65 68 71 73 73 72 73 71
61 61 61 61 61 62 63 62 61 61 61 62 62 62 61 61 60 59 59 59 57 61 56 57 56 54 54 53 54 54 55 56 56 58 60 64 66 69 70 71 71 72 71
61 62 61 61 61 60 61 61 61 61 61 60 60 61 59 58 58 58 57 57 56 55 55 54 54 54 54 54 54 54 55 55 55 57 58 62 64 66 68 70 71 71 71
60 60 60 60 60 61 60 59 59 59 59 59 59 59 59 57 56 56 56 55 55 55 54 54 54 54 54 54 55 55 56 55 56 56 57 61 62 64 66 68 70 71 71
60 60 59 59 60 60 59 58 58 58 58 57 57 58 59 57 56 56 55 54 54 54 53 52 51 51 50 51 52 53 54 55 55 56 55 56 60 62 64 66 67 68 70
60 60 59 59 59 59 59 58 57 57 58 56 57 57 57 57 55 56 54 54 53 53 52 51 50 48 48 49 49 49 51 53 51 52 52 53 55 59 61 63 65 67 68
59 59 59 64 59 58 57 57 57 56 55 55 55 55 56 57 56 54 53 52 52 52 51 49 48 48 47 46 46 47 48 49 50 51 51 50 52 56 59 61 63 64 65
59 58 58 59 58 58 57 56 55 56 54 54 54 54 55 56 56 54 52 52 51 51 49 49 48 48 47 47 48 48 47 47 48 52 51 52 51 52 53 57 61 61 63
57 58 59 58 58 57 54 53 53 52 53 52 53 53 55 54 55 53 52 52 51 49 48 48 48 47 47 47 51 50 46 47 46 46 47 51 50 51 50 53 50 54 60
56 58 58 57 57 54 52 52 51 52 52 52 53 55 54 55 55 52 51 51 50 49 49 48 47 47 46 45 44 44 45 46 46 47 47 46 47 49 49 49 49 50 54
58 57 57 57 57 55 54 53 53 52 52 53 54 53 55 55 55 54 52 52 51 49 48 47 47 45 45 44 44 40 39 43 44 47 47 47 46 46 48 50 49 51 52
56 57 58 58 57 56 55 54 52 51 51 50 52 51 54 55 56 54 53 53 51 51 50 48 47 46 44 44 45 43 37 36 38 43 45 45 45 44 45 46 48 50 50
57 56 56 58 57 57 55 53 52 52 55 57 57 55 55 53 55 56 55 53 52 50 47 46 48 44 43 42 43 47 44 41 36 34 41 43 44 45 43 43 45 47 49
56 55 54 55 57 57 56 54 52 50 53 55 53 49 51 51 52 54 54 54 52 50 48 46 45 43 43 42 43 41 40 39 39 36 35 40 43 43 43 43 43 43 47
54 53 53 54 56 55 54 53 51 50 51 50 51 48 51 48 48 48 49 48 47 46 43 43 45 45 45 44 44 42 42 40 37 36 33 37 38 41 43 44 43 42 43

GFSSE_sfc_temp_018.txt.gz
Temp
65 68 72 74 74 74 74 74 74 74 75 76 76 75 76 76 76 75 76 75 76 78 78 77 77 77 78 77 76 76 75 75 75 75 76 77 77 77 76 75 74 75 75
66 67 71 73 73 74 74 74 74 75 75 76 75 75 75 75 75 75 75 75 76 77 77 77 77 77 77 76 75 74 74 73 73 74 74 75 76 77 76 74 74 74 74
66 67 69 72 73 74 74 75 75 75 76 76 75 75 75 75 75 75 74 74 74 76 77 76 77 77 75 74 73 73 73 73 73 73 73 70 70 75 75 73 73 74 74
66 67 68 72 73 73 73 73 74 75 75 75 75 75 75 75 75 74 73 72 71 75 76 76 76 76 75 72 72 72 72 72 71 71 69 70 72 75 76 74 74 75 75
66 66 68 71 71 72 73 73 73 73 73 73 73 74 74 74 74 73 72 70 73 74 75 75 75 74 72 71 71 70 70 69 69 69 67 68 69 73 75 74 74 74 74
63 64 68 70 71 72 72 73 72 72 72 72 72 73 73 73 72 71 70 70 72 74 74 73 73 72 70 69 70 69 69 69 68 66 66 69 70 72 74 73 73 73 72
62 64 65 68 71 72 73 72 71 71 71 71 71 72 72 72 72 71 71 71 71 71 72 72 72 70 69 69 68 68 68 68 66 65 66 65 67 72 74 74 73 72 72
63 64 66 70 71 71 71 71 70 70 70 70 70 71 71 70 70 70 70 70 70 70 70 70 69 69 68 68 68 67 66 67 65 65 65 64 68 70 73 74 73 72 72
64 64 64 65 68 69 68 68 68 69 69 69 69 69 69 68 68 69 69 69 69 69 69 69 68 67 67 67 66 66 65 65 62 62 65 63 69 71 72 74 73 73 72
63 64 63 63 64 63 63 67 67 68 68 68 68 67 67 67 67 67 67 68 68 67 67 67 66 65 65 64 64 64 64 63 60 60 62 64 69 72 74 74 74 72 72
64 63 63 63 63 63 62 66 67 68 68 67 67 66 63 62 62 62 66 67 67 66 66 66 65 64 62 62 62 63 62 59 59 59 61 65 68 71 72 73 72 72 72
61 62 62 62 62 62 67 63 62 64 63 63 63 62 61 60 60 62 64 66 66 65 65 64 63 62 58 55 55 58 56 57 57 58 59 64 67 70 71 71 71 71 71
62 61 62 62 61 61 62 60 60 60 61 61 61 61 61 60 59 59 58 58 57 61 55 56 55 54 54 53 53 54 55 55 55 56 59 63 65 68 69 70 71 71 70
60 61 61 60 60 60 60 60 60 60 60 60 60 60 59 58 58 57 57 57 56 55 54 53 53 54 54 54 54 54 55 55 55 56 57 62 64 66 68 69 70 70 71
59 60 59 59 59 59 59 59 59 59 60 59 59 59 58 57 56 56 56 55 55 54 54 53 53 53 53 53 54 54 54 55 55 55 55 60 62 64 66 68 68 69 70
59 59 59 58 58 58 57 57 57 57 57 57 57 57 58 57 56 55 55 54 53 54 53 52 51 50 50 51 51 52 52 53 53 53 52 53 59 61 63 66 67 68 68
59 59 58 58 58 57 57 57 56 56 57 55 56 56 57 57 55 55 54 53 53 53 52 51 50 48 47 49 49 49 51 52 51 51 51 51 53 58 61 63 65 66 67
58 59 58 62 58 57 56 56 56 55 54 54 54 54 55 56 55 54 53 52 53 52 51 49 48 47 47 47 47 48 48 49 51 51 51 51 51 53 55 60 62 63 64
58 58 57 57 57 57 55 54 54 54 53 53 52 53 54 54 55 52 52 52 51 50 49 48 47 47 46 46 47 47 46 47 49 52 51 51 51 52 51 56 58 58 61
57 57 57 57 57 56 53 52 52 51 52 51 52 52 53 53 54 52 51 51 50 48 48 46 47 46 47 47 51 50 46 46 46 46 48 52 50 51 50 52 50 51 57
55 56 57 56 56 53 51 51 51 52 52 52 52 53 53 54 53 52 52 50 50 49 50 48 46 46 45 44 44 44 44 45 45 46 47 47 49 50 50 50 49 50 52
55 56 56 57 56 54 53 51 51 50 51 51 52 52 52 52 53 53 52 52 50 50 47 47 46 44 45 44 43 41 40 43 44 45 46 48 47 47 49 50 49 50 50
55 55 57 56 57 55 54 53 52 51 51 50 52 51 53 53 54 52 53 53 51 51 51 50 48 46 46 43 44 44 37 37 38 43 45 45 45 45 45 47 48 49 49
54 54 54 55 56 57 54 52 50 49 49 52 51 51 55 52 52 53 53 52 52 51 51 48 47 45 44 42 42 46 44 42 37 37 41 44 44 45 44 44 45 47 48
52 51 52 53 53 53 52 51 50 49 48 50 50 49 51 50 49 51 52 52 50 48 49 48 45 45 45 43 42 40 40 40 40 38 35 39 43 44 44 43 43 43 45
50 50 50 52 53 53 52 52 50 47 47 48 49 47 48 46 45 45 46 45 44 43 42 44 45 45 43 44 42 42 41 39 38 37 34 36 37 42 43 44 43 43 44

GFSSE_sfc_temp_021.txt.gz
Temp
75 76 73 74 74 74 74 74 74 75 75 76 76 76 77 77 77 76 76 76 76 77 78 77 77 77 78 77 76 76 76 75 75 75 76 77 77 77 76 75 75 83 76
76 76 72 73 74 74 75 74 75 75 76 76 76 76 76 76 76 75 75 75 76 77 77 77 77 77 77 76 75 75 74 74 73 74 74 76 76 77 76 74 75 80 75
75 76 76 72 73 74 74 75 75 76 76 76 76 75 75 75 75 75 74 74 75 77 77 77 77 77 76 75 74 74 73 73 73 73 73 83 81 76 76 74 74 74 75
75 75 76 72 73 73 73 74 74 75 75 75 75 75 75 75 75 74 74 73 74 75 76 76 76 75 75 73 73 72 71 71 71 71 82 81 81 75 76 75 74 74 75
74 75 75 71 72 73 73 73 73 73 73 73 74 75 75 75 74 73 70 71 73 75 75 75 75 74 72 71 70 70 70 70 70 74 78 80 82 76 75 76 75 74 74
74 75 72 70 71 72 73 73 72 72 72 72 72 73 74 73 73 72 71 71 72 73 74 74 73 71 70 69 69 69 69 69 69 78 77 76 77 74 74 74 73 73 73
73 74 75 69 71 72 73 72 71 71 71 71 71 72 72 72 72 71 71 72 71 71 72 71 71 70 69 69 69 68 68 68 75 76 75 74 74 70 73 74 73 73 73
74 74 75 71 71 71 71 71 70 70 70 70 70 71 71 70 70 70 70 70 70 70 70 70 69 69 68 68 68 67 66 67 73 73 74 74 71 71 73 73 73 72 73
75 75 75 76 74 69 69 69 69 69 69 69 69 69 69 68 68 69 69 69 69 69 69 68 68 67 67 66 66 65 65 65 74 75 74 76 69 72 74 74 74 73 72
73 75 74 75 75 74 74 68 68 68 68 68 68 68 67 67 67 67 68 68 68 68 68 67 66 66 65 65 64 64 63 65 73 75 77 75 69 72 73 72 72 73 72
72 73 73 75 74 73 74 73 69 68 68 68 68 67 67 74 73 72 67 67 67 67 66 66 65 64 63 63 63 63 64 73 73 74 75 65 68 71 71 71 71 71 72
71 73 74 73 73 73 75 73 73 73 75 74 74 72 74 71 73 71 69 66 66 65 64 64 63 62 65 71 71 64 72 71 73 72 74 64 67 70 71 71 71 71 71
75 74 73 72 72 72 73 75 75 75 74 74 71 72 71 71 71 72 72 71 71 66 70 67 68 68 66 68 69 68 69 70 72 73 68 64 66 68 70 70 70 71 71
73 74 74 72 70 70 73 74 74 73 73 73 73 70 71 71 69 69 70 70 69 70 68 68 67 66 66 65 66 66 67 69 72 72 69 62 64 67 68 69 69 70 70
72 73 73 70 70 70 69 72 71 71 72 73 72 70 71 70 69 70 69 69 69 69 68 67 67 66 65 65 66 66 66 67 67 71 71 60 62 64 66 68 68 69 69
73 72 72 71 70 70 70 69 70 71 71 71 71 70 68 69 68 69 68 68 68 68 68 66 65 66 65 65 64 64 64 66 67 66 70 67 60 63 64 66 67 68 68
73 73 70 70 70 69 69 69 70 71 69 70 70 68 68 68 68 67 68 68 69 68 66 65 64 64 64 63 63 63 63 64 64 64 66 67 66 59 61 63 64 64 65
71 70 71 70 70 69 68 69 70 70 69 69 68 68 67 67 67 66 67 67 68 66 66 65 64 64 63 63 64 65 65 64 63 64 65 66 66 68 61 60 61 62 63
70 70 70 69 70 69 68 69 68 67 68 69 68 68 67 66 66 66 67 67 66 66 64 64 63 62 63 63 64 64 64 64 64 65 64 63 64 66 67 58 58 59 61
68 70 70 69 69 67 68 66 68 67 68 67 68 68 66 67 65 65 66 65 65 64 64 63 61 62 63 63 64 63 63 63 64 63 64 65 64 63 65 64 66 64 58
66 68 68 69 68 68 67 66 68 66 67 68 68 66 65 66 65 64 65 65 64 62 63 62 62 59 60 61 59 60 61 61 60 62 63 63 62 64 63 64 66 66 65
68 68 67 67 65 65 66 65 65 64 66 65 65 65 65 64 64 63 63 64 63 62 61 61 59 60 60 61 59 59 56 60 59 59 61 61 60 62 61 62 62 61 63
63 62 64 65 65 64 63 65 65 65 65 66 67 67 67 65 64 63 62 62 62 61 61 61 60 58 59 60 59 59 54 53 59 58 57 59 59 59 60 60 59 60 60
60 61 63 63 64 64 63 63 61 61 60 63 62 63 63 63 62 62 61 60 60 61 59 60 61 59 58 58 56 57 56 56 54 54 55 56 57 56 56 58 58 58 58
60 60 62 63 63 62 61 61 60 59 60 60 60 59 60 61 61 60 59 58 58 59 58 57 57 55 57 53 56 56 53 53 52 52 51 53 53 55 55 55 56 56 57
61 61 61 62 62 62 61 60 58 56 56 57 57 58 59 59 59 56 55 54 54 54 53 54 53 52 53 52 51 52 50 51 50 48 46 47 48 51 54 54 53 55 56

GFSSE_sfc_temp_024.txt.gz
Temp
85 84 73 75 75 75 75 75 75 75 76 76 77 77 77 77 77 77 77 77 77 78 78 78 78 78 78 78 77 76 76 75 75 76 76 77 78 77 76 76 76 87 76
86 86 73 74 75 75 75 75 75 76 76 77 76 76 76 76 76 76 76 76 77 78 78 77 77 77 77 77 75 75 75 74 74 74 75 76 77 77 76 75 75 81 76
86 87 85 73 74 74 75 75 76 76 77 76 76 76 75 75 75 75 75 75 76 77 77 77 77 77 77 75 74 74 73 73 72 73 75 90 89 77 76 75 75 75 75
85 86 85 72 73 74 74 74 75 75 76 75 75 75 75 75 75 75 74 73 75 76 77 77 77 75 74 73 72 72 71 71 72 73 85 88 88 75 76 75 75 75 75
85 86 82 72 72 73 73 73 73 73 73 73 74 75 75 75 74 74 72 72 73 75 75 75 75 72 71 70 70 70 70 71 71 75 87 87 87 79 75 76 76 74 74
85 86 74 71 72 73 73 73 73 73 72 72 73 74 74 74 73 73 73 72 73 73 73 74 72 71 70 70 70 70 70 70 69 86 85 83 82 72 75 75 73 73 73
85 85 83 70 72 73 73 73 72 72 72 72 72 72 73 73 72 72 72 72 72 72 72 72 71 70 69 69 69 69 68 69 81 84 84 83 82 71 72 74 73 73 73
86 84 83 72 72 72 72 71 71 71 71 71 71 71 71 71 71 71 71 70 70 70 70 70 69 69 68 68 68 67 67 68 78 83 83 84 71 72 74 73 73 73 73
87 86 86 85 77 70 70 70 70 70 70 70 70 70 69 69 69 70 70 70 70 70 69 68 68 67 67 67 66 66 65 66 81 85 83 86 69 72 73 73 73 73 73
85 86 85 85 85 83 82 69 69 69 69 69 69 68 68 68 68 68 69 69 69 68 68 67 66 66 66 65 65 64 65 67 82 82 86 80 68 72 73 72 72 72 73
84 83 84 85 83 83 85 78 70 69 69 68 70 68 69 84 81 78 68 68 68 67 67 66 65 64 64 64 64 64 64 82 80 83 83 66 68 71 72 71 71 71 72
82 83 85 82 82 82 86 83 83 83 86 84 83 81 85 81 81 78 72 67 66 66 65 65 64 64 66 81 79 67 81 78 79 80 82 65 67 70 71 71 71 71 71
84 85 84 82 81 81 84 86 87 86 86 85 81 81 81 80 81 80 80 79 79 69 79 75 75 79 75 77 78 77 78 76 80 81 73 64 66 68 70 70 70 70 71
85 85 85 82 81 81 85 87 87 85 85 83 84 79 79 80 79 78 80 79 77 79 76 77 78 74 73 74 74 74 74 76 80 81 74 63 64 67 69 69 69 70 70
85 86 84 82 80 82 79 84 83 81 83 82 82 81 79 79 77 78 77 78 78 79 78 76 76 76 74 73 74 73 74 74 74 78 79 62 62 65 67 68 69 69 69
85 85 84 82 81 81 81 80 82 82 83 82 82 81 77 77 77 77 77 77 78 78 78 76 75 75 75 74 73 72 73 75 74 73 77 72 62 63 66 66 67 67 67
86 85 83 82 81 80 80 81 82 84 81 82 82 78 77 76 76 75 77 77 78 78 75 74 74 74 73 74 72 72 72 72 73 72 74 75 68 60 63 63 64 65 66
85 84 83 82 81 81 81 81 82 84 81 81 80 80 77 75 75 75 76 76 77 76 76 75 74 73 73 73 72 74 73 73 72 71 73 73 74 75 62 61 63 63 64
85 84 82 82 81 81 80 81 79 77 79 82 80 80 77 76 75 74 75 75 75 75 75 74 73 72 71 72 73 73 73 73 72 73 72 71 71 72 74 61 60 60 61
82 81 81 82 80 78 80 79 80 79 80 80 80 80 77 77 75 73 74 74 74 73 73 73 71 73 72 71 73 73 72 73 73 72 72 73 72 70 71 71 69 66 59
76 77 77 78 77 79 79 77 78 77 78 78 80 77 74 75 74 72 73 73 73 72 71 71 71 69 69 71 67 68 70 70 69 71 72 72 71 70 70 70 70 72 68
74 74 75 74 74 75 79 76 75 73 76 75 76 75 75 73 72 72 70 71 71 70 69 68 68 67 68 70 65 65 62 67 69 69 70 70 68 71 70 68 68 67 68
71 72 74 74 73 72 73 76 77 77 76 75 74 74 73 70 70 70 70 69 68 68 68 68 67 66 64 67 68 63 60 59 65 71 66 68 67 67 68 68 66 66 66
70 72 73 73 73 72 71 72 69 70 68 69 69 71 70 70 69 69 68 67 66 67 66 66 68 65 65 62 66 68 65 64 59 57 63 65 66 65 64 66 66 64 64
70 70 71 73 72 71 70 69 68 66 69 69 67 66 67 69 68 69 67 64 64 65 64 63 62 62 63 62 62 62 59 61 61 54 56 57 63 64 64 62 63 64 63
70 70 70 71 71 69 68 66 63 62 63 65 65 64 66 66 67 67 66 63 62 61 60 60 59 58 58 57 56 55 53 49 49 50 51 55 53 55 61 61 61 61 62

GFSSE_sfc_temp_027.txt.gz
Temp
84 85 74 76 76 76 76 75 75 75 76 77 77 77 77 77 77 77 77 77 78 78 78 78 78 78 78 77 77 76 76 75 75 76 77 77 78 77 77 77 77 82 76
89 87 73 75 75 75 75 76 76 76 76 77 77 77 76 77 76 76 75 76 77 77 79 78 78 78 77 76 75 75 75 74 74 75 76 77 77 77 76 76 75 80 76
90 87 84 74 74 75 75 76 76 77 77 77 76 76 76 76 75 75 75 75 76 77 78 78 77 77 76 75 74 73 73 73 73 74 75 82 80 77 76 75 75 76 76
91 91 84 72 73 74 74 74 75 76 76 76 76 76 76 75 75 75 74 74 75 76 76 77 76 74 73 72 72 72 72 72 72 73 81 85 87 76 76 75 75 75 75
90 88 79 72 73 73 73 74 74 74 74 74 75 75 75 75 75 74 74 73 74 75 75 76 74 72 71 71 71 71 71 72 72 75 86 84 83 76 76 75 76 75 75
89 86 74 72 72 73 74 73 73 73 73 73 73 74 74 74 74 74 74 74 73 74 74 74 72 71 70 70 70 70 71 71 70 85 81 80 85 72 74 75 74 74 74
89 86 81 71 72 73 74 73 73 72 72 72 73 73 73 73 73 72 73 72 72 72 72 72 71 70 70 70 69 69 69 70 78 84 81 80 73 73 74 74 73 73 73
89 88 84 73 72 72 72 72 71 71 71 71 72 72 72 71 71 71 71 71 71 70 70 70 69 69 68 68 68 68 68 68 79 85 86 84 72 72 74 74 73 72 73
91 89 88 85 76 72 70 70 70 70 70 70 70 70 70 70 70 70 70 70 70 70 69 68 68 67 67 67 67 67 67 68 76 85 84 76 70 72 74 73 73 73 73
90 91 90 89 88 85 81 70 70 70 70 70 69 69 69 69 69 70 69 69 69 69 68 68 67 66 66 66 66 66 67 67 78 84 86 72 70 72 73 72 72 72 73
89 88 89 90 87 86 87 78 70 69 70 69 70 69 71 82 82 77 68 68 68 68 67 67 66 66 66 66 66 67 66 80 82 84 81 68 69 70 72 71 70 71 71
85 87 88 86 85 86 90 86 85 85 86 85 84 83 86 82 81 79 73 68 68 68 67 67 66 66 66 80 76 68 77 81 80 82 80 66 68 69 71 71 71 71 71
88 89 89 85 85 85 86 88 89 89 88 86 83 83 83 82 83 82 81 77 75 68 79 71 75 77 79 78 79 78 79 79 80 82 70 66 66 68 70 70 70 71 71
88 89 88 86 84 84 88 89 88 88 87 86 86 82 81 82 81 80 81 81 80 82 79 79 79 78 76 76 76 75 76 77 80 81 71 65 65 67 69 70 70 70 70
88 89 88 87 84 85 83 86 85 84 86 84 84 83 82 80 79 79 79 79 80 80 80 79 79 78 77 76 76 75 75 76 76 77 79 63 64 66 68 69 69 69 69
89 88 89 87 85 85 84 83 83 84 85 84 85 83 80 79 78 78 78 79 79 80 80 78 77 77 76 77 75 75 74 75 77 76 78 72 63 64 66 68 68 68 68
89 90 88 86 86 83 84 84 85 86 83 84 84 82 80 79 78 77 78 77 79 79 77 77 77 77 76 77 75 75 75 73 74 74 75 76 69 61 64 65 66 66 67
91 89 89 88 86 84 84 85 86 86 83 83 83 83 80 78 78 77 77 77 78 77 77 76 76 75 75 75 74 75 75 75 74 73 74 74 76 75 63 63 64 65 65
89 88 87 87 85 84 84 84 83 81 82 84 84 83 81 79 78 76 76 76 76 76 75 75 75 75 73 74 74 75 75 74 74 76 73 72 73 74 75 62 62 62 63
86 84 84 85 84 83 83 83 83 83 83 84 83 82 79 78 77 75 75 75 75 75 74 75 73 74 73 73 74 74 74 75 75 74 73 74 73 72 72 70 65 64 61
81 82 82 82 80 81 82 80 80 79 80 80 81 79 77 77 75 74 74 74 74 72 72 72 72 70 70 72 68 70 71 72 72 73 74 73 73 73 71 71 72 72 65
77 79 79 79 78 79 81 78 77 76 78 78 79 77 77 75 73 72 71 71 71 70 69 69 69 68 69 71 64 64 61 66 72 72 72 72 70 73 72 70 70 70 72
75 76 77 77 77 75 76 80 78 78 78 77 77 76 75 73 72 71 70 69 68 69 68 68 68 66 65 68 68 63 57 57 65 72 68 69 69 70 71 71 69 69 68
73 75 77 76 76 75 74 75 72 72 71 73 72 72 72 72 71 71 70 69 67 66 65 66 68 66 65 62 66 68 63 60 54 55 64 62 66 65 66 69 70 68 67
73 73 74 76 75 74 73 71 70 69 70 71 71 69 68 70 70 70 69 67 65 64 64 63 62 62 63 61 61 57 55 56 58 49 47 58 56 63 62 63 64 66 66
74 73 74 74 75 74 73 71 69 67 66 67 67 66 67 66 67 67 66 64 63 62 62 61 58 56 54 54 54 52 48 45 47 42 44 48 48 52 55 55 57 61 62

GFSSE_sfc_temp_030.txt.gz
Temp
80 78 75 76 76 75 75 75 75 75 76 76 76 76 76 76 76 76 76 77 77 78 78 78 78 78 77 77 76 75 75 74 74 75 76 78 78 77 76 75 76 80 76
82 78 73 75 75 75 76 75 75 76 76 76 76 76 76 76 76 75 76 76 77 78 78 78 77 78 77 75 75 74 74 73 73 74 75 76 77 77 76 75 75 76 75
81 81 78 73 74 75 75 76 76 76 76 76 76 76 76 75 75 75 75 75 76 77 77 77 76 76 75 74 73 73 73 72 72 73 73 73 74 75 76 75 75 76 76
85 81 78 73 73 74 74 74 75 76 76 76 76 76 75 75 75 75 75 74 75 76 76 76 75 74 73 72 72 72 72 72 72 72 73 77 79 76 76 76 75 76 75
82 80 75 72 72 73 73 73 74 74 74 74 75 75 75 75 75 75 74 74 74 74 76 75 73 72 71 71 71 71 71 71 71 71 73 74 73 76 76 75 75 75 74
82 77 72 71 72 73 73 73 73 73 73 73 73 74 75 74 74 74 73 73 73 73 73 73 72 71 70 70 70 71 70 70 69 72 76 73 74 74 75 74 73 73 73
80 77 75 71 72 73 73 73 72 72 72 72 72 73 73 73 73 72 72 72 72 72 72 71 71 70 70 69 69 69 69 69 69 72 76 71 71 74 75 74 73 73 73
82 77 76 72 71 71 72 71 71 71 71 71 71 71 72 71 71 71 71 71 71 70 70 70 69 69 68 68 68 68 68 68 72 73 74 69 72 73 74 74 73 72 73
84 81 78 74 71 70 70 70 70 70 70 70 70 70 70 70 70 70 70 70 70 69 69 69 68 68 68 68 67 67 67 67 65 71 77 69 71 73 73 73 72 72 72
84 85 82 78 77 74 71 69 69 69 69 69 69 69 69 69 69 69 69 69 69 69 69 68 67 67 67 67 67 67 67 66 66 70 69 67 71 73 73 72 71 71 71
85 82 82 82 80 78 75 72 69 70 69 69 69 69 68 73 71 73 68 68 69 68 68 68 68 67 66 66 66 66 66 66 69 70 69 68 70 71 72 71 71 71 71
80 82 81 79 79 80 86 72 73 76 73 72 73 72 74 74 74 76 71 68 68 68 68 67 67 66 66 66 65 65 64 68 69 69 65 67 69 70 71 71 71 71 71
82 82 81 78 79 79 78 78 78 77 76 75 76 75 75 74 72 70 67 68 66 67 67 67 66 64 69 67 67 66 67 68 66 69 65 66 68 69 70 71 71 71 71
83 83 81 79 78 78 77 77 77 77 76 75 75 75 72 71 71 70 69 69 68 68 68 68 67 69 68 69 68 67 67 66 66 67 61 65 66 68 69 70 71 70 70
83 83 81 79 78 77 76 75 75 74 75 74 75 75 73 70 69 69 69 69 68 69 68 67 67 67 67 68 68 67 67 66 67 66 62 64 65 67 68 70 70 70 70
84 82 81 80 78 78 77 75 74 74 75 74 74 72 73 70 68 68 68 68 68 68 67 66 66 65 65 66 66 67 66 66 65 65 65 58 63 65 66 69 69 70 69
84 84 81 80 79 78 77 76 75 75 75 73 74 73 73 72 69 69 67 67 67 67 67 66 66 65 65 67 66 66 65 64 64 64 64 63 60 62 63 66 67 68 68
85 83 83 86 79 77 77 76 76 76 73 73 73 72 72 72 71 67 66 66 67 66 66 64 64 63 63 63 62 63 64 64 64 64 64 64 63 64 61 63 64 66 67
84 83 81 81 79 78 76 76 74 74 73 73 72 72 71 71 70 67 65 65 66 65 64 64 64 62 61 62 64 63 63 62 63 69 64 63 62 64 60 61 62 63 64
76 78 78 80 78 77 74 74 73 73 73 72 72 70 69 69 69 66 65 64 65 64 63 62 61 62 61 61 67 67 65 65 64 60 62 66 63 64 63 60 58 58 61
75 76 76 74 71 72 72 70 69 67 68 69 71 70 70 69 68 65 64 64 62 61 60 61 60 59 60 60 59 60 61 63 62 65 64 61 63 65 63 63 58 58 58
72 73 74 73 71 72 71 70 68 67 69 69 70 69 70 68 66 66 62 61 61 59 58 57 57 57 58 58 56 57 53 57 60 64 64 65 64 66 65 64 63 62 60
69 70 72 72 71 69 68 71 69 68 67 67 67 67 66 66 66 64 62 60 59 58 56 55 56 55 55 56 56 54 50 49 54 58 60 57 59 61 62 64 64 64 61
68 69 71 72 72 70 68 67 64 63 63 63 64 64 64 64 63 62 61 59 57 57 55 55 59 54 53 51 54 57 52 49 45 46 53 55 56 57 56 54 54 60 63
68 68 69 71 72 70 68 66 63 61 61 62 61 60 60 60 60 61 59 57 55 55 54 53 51 49 50 48 47 46 46 46 48 45 43 46 51 50 51 51 49 51 52
69 68 68 70 71 70 68 66 63 61 60 58 58 57 57 57 57 57 58 55 54 53 51 50 49 49 49 47 45 45 43 41 40 39 38 39 40 44 45 46 47 49 51

GFSSE_sfc_temp_033.txt.gz
Temp
70 72 74 75 75 74 74 74 74 75 75 76 76 76 75 75 75 75 76 76 77 77 78 78 77 77 77 76 75 75 74 74 73 74 75 76 77 77 76 76 76 77 75
72 74 73 74 74 74 75 75 75 75 76 76 75 75 75 75 75 75 75 75 76 77 78 77 76 77 75 75 74 73 73 72 72 73 74 75 76 77 76 74 75 75 75
73 74 74 73 74 74 75 75 75 76 76 76 75 75 75 75 75 75 74 74 75 77 77 76 75 75 74 73 72 72 72 72 72 72 72 71 71 77 77 74 74 75 75
75 73 73 72 73 73 74 74 74 75 75 75 75 75 75 75 74 74 74 73 74 76 76 75 74 74 72 72 71 71 72 71 71 71 70 72 72 76 76 75 75 75 75
72 72 72 71 72 73 73 73 73 73 73 73 74 74 74 74 74 74 73 73 74 75 75 74 73 72 71 70 70 70 70 70 70 70 67 70 70 76 75 74 74 74 73
68 67 69 70 71 72 73 73 72 72 72 72 72 73 74 74 73 72 72 72 73 73 73 73 72 70 69 69 69 69 69 69 68 65 68 70 71 74 75 74 72 71 72
66 67 68 69 71 72 73 72 72 71 71 71 72 72 72 72 72 71 71 71 71 72 72 71 70 69 69 68 68 68 68 68 67 65 68 67 70 75 75 74 73 72 72
68 67 70 71 70 71 71 71 70 70 70 70 71 71 71 71 71 71 70 70 70 70 69 69 68 68 68 68 68 67 67 67 68 65 68 66 71 74 74 73 71 71 72
70 68 66 68 70 69 69 69 69 69 69 70 70 70 70 69 69 70 70 70 69 69 69 68 68 67 67 67 67 67 66 66 62 63 71 65 71 73 73 72 72 71 71
72 70 67 66 67 65 66 68 68 68 68 69 69 69 68 68 68 69 69 69 69 69 69 68 68 67 67 67 66 66 65 66 62 63 65 63 71 73 73 72 71 71 71
74 72 70 68 68 66 65 68 68 69 68 68 68 68 67 66 67 68 67 68 69 69 68 68 68 67 66 66 66 66 66 61 63 64 63 68 71 72 72 71 71 70 70
72 72 72 70 69 68 76 66 66 68 67 66 67 66 66 66 66 70 67 68 68 68 68 68 67 67 66 62 62 65 61 62 63 64 62 67 70 72 71 71 70 70 70
74 72 72 72 72 71 71 65 65 66 65 65 67 68 68 68 67 65 62 63 62 65 63 65 63 62 63 61 63 61 62 63 61 63 65 66 69 71 71 70 70 70 70
72 73 72 71 72 70 68 68 67 67 67 66 70 69 66 64 64 63 63 63 61 62 61 61 60 62 61 64 65 64 63 63 62 61 60 65 67 69 71 71 71 71 70
72 73 71 71 70 70 69 66 68 67 67 68 67 68 66 64 63 63 63 63 63 63 62 61 62 63 63 63 64 64 63 63 63 62 58 63 65 67 70 71 71 71 70
75 75 72 71 70 70 67 68 67 67 67 67 66 66 67 64 63 63 62 63 62 62 61 61 61 61 61 62 63 63 63 62 63 62 60 58 63 65 67 69 70 71 71
75 74 73 72 71 70 69 69 67 67 68 66 65 66 66 66 63 63 61 61 61 61 61 61 61 60 59 61 61 61 62 62 61 62 61 58 58 62 64 66 68 69 69
74 75 74 79 68 66 67 68 68 67 65 65 64 65 66 66 66 62 61 60 61 61 61 59 59 59 58 57 57 59 60 60 61 61 63 60 59 61 61 63 65 66 67
74 76 68 72 68 66 64 64 66 67 67 65 64 63 64 65 64 61 60 60 60 59 59 58 58 56 56 56 59 59 57 57 58 64 61 61 59 59 58 61 63 63 65
68 69 65 68 64 64 63 63 63 63 63 63 62 63 65 64 64 60 59 59 59 57 56 55 54 55 55 55 62 62 58 56 57 56 57 62 61 60 58 58 59 60 61
64 66 66 66 61 60 60 60 59 60 61 61 62 65 65 63 62 60 58 58 57 56 54 55 53 52 54 53 53 56 54 55 55 56 56 56 56 59 61 58 58 58 59
60 62 63 64 63 63 61 60 60 59 61 61 61 62 62 61 61 61 56 55 55 53 53 52 51 49 50 51 48 50 47 51 53 55 54 56 55 54 58 61 58 57 58
59 61 63 63 63 61 61 60 60 59 59 58 58 57 58 58 58 56 55 53 52 52 50 49 50 48 46 48 48 45 43 41 46 51 52 53 51 51 52 55 57 59 57
58 60 62 63 63 63 62 59 57 54 54 55 55 55 56 56 56 56 54 52 51 50 49 48 49 46 45 42 45 49 44 45 41 41 46 50 46 47 46 48 51 53 54
60 60 61 62 62 62 60 59 56 55 55 55 55 54 54 54 54 54 54 51 48 47 46 45 45 45 48 47 45 44 44 41 39 35 36 40 44 45 45 45 47 49 52
59 59 60 61 61 60 59 57 56 54 55 53 53 51 51 51 51 50 50 47 46 45 44 43 43 45 42 43 43 41 40 38 39 38 37 37 37 41 42 43 43 47 48

GFSSE_sfc_temp_036.txt.gz
Temp
70 71 74 74 74 74 74 74 74 74 75 75 75 75 75 75 75 75 75 76 76 77 77 77 77 76 76 76 75 74 74 73 73 74 75 76 77 77 76 76 75 76 75
71 72 72 74 74 74 74 74 74 74 75 75 75 74 74 74 75 75 75 75 76 77 76 76 76 75 75 74 73 73 73 72 72 72 73 74 76 76 76 75 74 74 75
71 73 73 72 74 74 74 75 75 75 75 75 75 74 74 74 74 74 74 74 75 76 76 75 75 74 73 72 72 72 72 72 71 71 72 68 70 76 75 73 73 74 75
72 71 72 72 73 74 74 74 74 75 75 74 74 74 74 74 74 74 73 73 74 76 76 75 74 73 72 71 71 71 71 71 70 70 68 70 72 76 76 75 74 74 74
69 71 71 71 72 73 73 73 73 73 73 73 73 74 74 74 74 73 72 72 73 74 74 74 72 71 70 69 69 70 70 70 69 68 65 67 69 75 76 75 74 74 73
66 67 69 70 71 72 72 72 72 72 72 72 72 73 73 73 72 72 71 72 72 73 73 72 71 70 69 68 68 69 68 68 68 63 65 69 70 74 75 74 73 72 72
64 66 67 69 71 72 73 72 71 71 71 71 72 72 72 72 72 71 71 71 71 71 71 70 70 69 68 68 68 68 67 67 65 63 65 65 67 74 76 74 73 72 72
65 65 68 70 71 71 71 71 70 70 70 70 71 71 71 71 71 71 70 70 70 70 69 69 68 68 68 68 68 67 66 66 65 63 65 65 69 73 73 73 72 71 71
65 64 65 66 69 69 69 69 69 69 69 69 70 70 69 69 69 70 70 70 69 69 69 69 68 68 68 67 67 66 65 65 60 62 68 63 71 73 73 72 70 71 71
64 65 63 64 65 64 65 67 68 68 68 69 69 68 68 68 68 69 69 69 69 69 69 69 68 67 67 67 66 66 65 65 59 61 63 62 70 73 73 72 71 71 71
67 64 63 64 64 64 64 67 67 68 68 68 68 68 65 65 66 67 67 68 69 69 68 68 68 67 66 66 65 65 65 60 60 61 61 65 70 73 73 72 71 70 70
65 66 66 64 64 64 72 66 64 67 65 65 65 65 65 63 64 67 66 67 68 68 68 68 67 67 65 61 60 64 61 62 61 61 61 65 69 72 73 71 70 70 70
69 69 68 67 65 65 67 63 63 63 63 63 65 64 63 65 63 63 61 62 61 65 62 63 62 61 61 60 60 60 61 61 59 60 62 66 68 71 72 72 71 71 70
69 70 69 68 66 65 65 64 64 63 63 63 64 65 62 61 61 61 60 60 60 60 60 60 59 60 60 61 61 61 61 60 60 60 60 65 66 70 72 72 72 71 70
70 70 70 68 67 66 65 63 63 63 64 64 65 65 63 62 60 60 60 60 59 59 58 58 59 60 60 61 62 61 61 61 60 60 58 62 64 67 70 72 72 72 72
72 70 69 68 67 67 65 65 63 64 64 64 64 64 64 62 61 61 60 60 59 59 59 58 59 59 59 59 60 61 61 60 60 60 59 58 62 64 67 70 71 72 72
73 72 70 66 65 64 67 68 67 66 65 63 63 64 64 63 61 60 59 59 59 59 58 58 58 57 57 59 58 58 59 60 59 59 60 58 58 61 63 66 68 70 70
73 71 69 71 64 64 65 65 66 65 63 62 62 61 63 63 62 60 59 58 58 57 57 55 55 55 54 54 54 56 56 57 58 58 58 58 57 60 60 63 65 67 68
66 65 63 64 63 63 63 62 62 62 61 60 60 60 62 62 62 59 58 56 56 56 55 55 54 52 52 52 56 56 55 55 56 60 58 58 56 58 60 61 62 63 65
63 64 61 60 61 61 60 59 58 59 60 60 60 61 64 62 61 57 56 56 55 54 53 52 51 51 51 50 56 56 51 52 53 53 54 58 56 56 56 58 60 62 62
59 61 61 60 58 58 57 56 56 56 57 58 61 63 62 61 59 55 54 53 53 52 50 51 50 49 49 49 47 50 49 51 51 50 51 52 54 55 55 55 54 58 61
56 58 59 60 60 59 58 56 57 55 56 58 59 58 58 56 56 56 52 51 51 50 49 48 47 46 46 46 44 44 42 47 46 51 51 52 47 50 50 52 53 54 56
55 57 59 59 59 58 59 58 57 56 55 54 54 53 54 54 54 52 51 50 49 48 46 45 45 44 43 44 44 44 39 37 42 46 49 46 44 45 45 47 51 53 54
56 57 58 59 59 60 58 57 55 53 52 52 51 51 51 53 52 52 50 48 47 46 45 45 47 44 47 45 44 47 43 43 35 37 41 45 42 44 42 43 44 47 51
58 57 57 58 58 58 56 55 53 53 53 54 53 51 51 51 51 51 49 47 45 45 44 43 42 42 42 41 40 38 38 38 37 34 33 37 40 40 40 40 41 44 48
55 55 55 56 56 56 55 53 53 52 51 51 50 49 49 48 47 47 47 45 44 43 42 42 41 41 40 40 39 37 39 38 38 37 36 37 36 37 40 39 40 42 44

GFSSE_sfc_temp_039.txt.gz
Temp
69 70 73 74 74 74 73 73 73 74 75 75 75 75 75 75 75 75 75 75 75 77 77 76 76 76 75 75 74 73 73 73 72 73 74 75 77 77 76 75 75 75 75
70 70 72 73 73 74 74 74 74 74 75 75 75 74 74 74 74 75 75 75 76 76 76 75 75 75 74 73 73 72 72 72 71 72 73 74 74 76 76 74 74 74 75
69 71 72 72 73 74 74 75 75 75 75 75 75 74 74 74 74 74 74 74 75 76 75 75 74 74 73 72 72 71 71 71 71 71 71 67 70 75 75 74 74 74 75
71 70 71 72 73 73 73 74 74 75 75 74 74 74 74 74 74 73 73 73 74 75 75 74 73 72 71 70 70 70 70 70 69 70 66 68 70 76 76 75 75 74 74
68 70 71 71 72 73 73 73 73 73 73 73 73 74 74 73 73 73 72 72 73 74 74 73 72 71 70 69 69 69 69 69 68 66 63 66 67 74 76 75 74 73 73
66 68 69 70 71 72 73 73 73 72 72 72 72 73 73 73 72 72 71 72 73 73 73 72 71 70 68 68 68 68 68 68 67 61 63 66 68 74 75 74 73 72 72
64 66 68 69 70 72 73 72 72 71 71 71 72 72 72 72 72 71 71 71 71 71 71 70 70 69 68 68 68 67 66 66 63 61 63 64 65 72 76 74 73 72 72
65 65 67 70 70 71 71 70 70 70 70 70 70 71 71 71 71 70 70 70 70 70 69 69 68 68 68 68 68 67 66 66 63 61 63 63 68 73 75 74 72 72 72
64 63 64 66 68 69 69 69 68 69 69 69 70 70 70 69 69 70 70 70 69 69 69 69 68 68 68 68 67 66 65 65 59 60 65 62 68 72 72 73 72 72 71
62 63 62 63 64 63 64 67 67 68 68 68 69 68 68 68 68 69 69 69 69 69 69 69 68 68 67 67 66 65 65 64 59 59 61 60 68 72 73 72 72 71 71
63 61 61 62 63 62 63 66 67 68 68 68 68 67 65 64 64 65 66 68 69 69 68 68 68 67 66 65 64 65 65 59 59 59 59 65 68 72 73 72 71 70 70
62 62 61 62 62 63 70 64 63 65 64 64 64 64 63 62 63 66 65 67 68 68 68 68 67 66 65 59 59 62 59 60 60 60 59 66 68 71 72 72 71 71 70
65 65 64 63 62 63 65 62 62 62 62 62 63 62 62 63 62 62 61 61 60 63 60 61 61 60 60 59 58 58 59 59 58 59 61 65 68 71 72 73 72 71 70
64 66 66 64 63 62 63 63 63 62 62 61 63 63 61 60 60 60 60 59 59 59 58 58 58 59 59 59 59 59 59 58 58 59 59 63 66 70 72 73 73 72 71
66 66 66 65 64 65 62 62 61 61 62 63 63 63 62 60 59 59 59 58 57 57 57 57 57 57 57 58 58 58 59 59 59 58 57 62 63 67 70 72 73 73 72
69 68 68 66 64 63 61 61 61 62 63 63 63 63 62 61 59 58 58 59 58 57 57 56 55 55 55 56 57 57 58 57 58 58 58 57 61 63 66 70 72 73 73
70 70 66 63 63 62 62 62 62 62 63 61 62 62 62 61 59 59 58 57 56 56 56 55 55 54 54 55 54 55 56 57 56 57 57 57 57 60 62 64 67 69 71
67 66 65 69 62 61 61 63 64 62 60 60 60 60 61 61 60 57 56 55 55 55 54 53 52 52 51 51 50 52 53 54 55 55 55 55 55 57 59 61 63 66 67
63 62 60 61 62 62 61 61 60 60 57 57 57 58 59 59 58 55 54 53 54 53 52 52 51 50 49 49 52 51 50 50 51 55 53 54 53 53 54 58 60 61 63
59 59 59 61 62 61 59 58 57 58 58 58 57 58 57 58 59 57 54 55 55 54 50 49 49 49 48 47 53 52 48 49 48 48 49 53 51 51 51 52 52 54 58
57 58 59 60 59 57 56 56 54 53 53 54 59 60 59 59 57 55 55 52 50 50 48 49 47 46 46 45 44 46 46 47 46 46 47 47 48 49 49 49 50 51 53
55 56 56 57 57 56 57 55 55 53 54 54 55 54 54 53 53 53 50 51 53 52 49 46 45 44 44 43 42 41 39 44 43 49 46 47 43 45 47 48 48 49 50
54 55 57 56 57 57 56 55 54 54 53 52 51 50 51 52 52 50 50 48 47 46 44 43 43 42 41 42 42 41 36 34 38 43 45 42 40 42 43 43 45 46 48
53 54 56 57 57 57 56 55 54 52 50 49 49 49 49 50 50 50 48 46 45 44 43 42 46 42 41 40 41 44 40 38 33 32 38 40 41 42 40 40 40 43 46
54 53 54 55 55 55 54 53 52 50 51 52 52 50 50 49 49 49 47 45 43 43 42 41 40 40 40 39 38 37 36 36 35 34 32 36 40 40 38 39 38 40 43
53 53 53 55 54 53 52 52 51 51 51 50 49 48 47 46 45 44 45 43 43 42 41 40 40 39 38 38 38 36 39 38 38 37 36 32 33 36 37 38 37 39 41

GFSSE_sfc_temp_042.txt.gz
Temp
68 70 73 74 74 74 73 73 73 74 74 75 75 75 75 75 75 75 75 75 76 77 77 76 75 75 75 74 74 73 73 72 72 73 74 75 77 77 76 75 74 75 75
69 70 72 73 74 73 74 74 74 74 75 75 74 74 74 74 74 75 75 75 76 76 76 75 75 74 74 73 72 72 72 71 71 72 72 73 74 76 76 74 73 74 75
68 70 71 72 73 74 74 74 75 75 75 75 75 74 74 74 74 74 74 74 75 76 76 75 74 73 73 72 71 71 71 71 70 70 70 67 70 75 76 74 74 74 75
69 69 70 72 73 74 74 74 74 75 75 74 74 74 74 74 74 74 73 73 74 75 75 74 73 72 71 70 70 70 70 70 69 69 65 67 70 75 76 75 74 74 74
69 69 70 71 72 73 73 73 73 73 73 73 73 74 73 73 73 73 72 72 74 74 74 73 73 71 70 69 69 69 69 69 68 65 63 66 68 72 76 75 74 73 73
68 68 69 70 71 72 73 73 73 72 72 72 72 73 73 73 73 72 72 72 73 73 73 72 71 70 69 68 68 68 68 68 66 61 63 65 67 73 75 74 73 72 72
66 67 68 69 71 72 73 72 72 71 71 71 72 72 72 72 72 71 71 71 71 72 71 71 70 69 68 68 68 67 67 66 62 61 63 64 66 73 75 75 73 72 72
65 66 67 70 70 71 71 71 70 70 70 70 71 71 72 71 71 70 70 70 70 70 70 69 69 69 68 68 68 67 66 66 63 62 63 64 68 72 75 74 72 71 71
64 63 64 66 68 69 69 69 68 69 69 69 70 70 70 69 69 69 69 70 70 70 70 69 68 68 68 68 67 66 65 65 60 61 65 63 68 72 74 73 72 72 71
61 62 62 63 63 63 64 67 67 68 68 68 69 69 68 68 68 69 68 69 69 69 69 69 68 68 67 66 66 65 65 64 59 61 61 62 69 72 73 73 72 71 71
62 61 61 61 62 62 62 66 67 68 68 68 68 67 65 63 64 64 66 68 69 69 69 68 68 67 66 64 64 64 64 59 59 60 59 64 69 72 73 73 72 71 71
60 61 61 61 61 61 67 63 62 64 63 63 64 64 63 62 62 65 65 67 68 68 67 66 66 65 63 59 59 61 59 60 59 60 60 65 69 72 73 73 72 71 71
62 62 61 61 61 61 64 61 61 61 61 62 63 62 62 62 61 61 60 60 59 63 59 60 59 59 59 58 58 58 58 58 58 59 60 64 67 71 73 73 72 72 71
62 63 63 62 61 60 61 61 61 61 61 60 61 62 60 59 59 59 60 59 58 58 57 57 56 57 57 58 58 58 58 58 58 58 59 62 64 68 71 73 73 73 72
62 64 63 62 61 61 61 60 60 60 61 61 61 62 61 59 59 58 58 57 56 56 55 55 55 56 56 57 57 57 57 57 58 57 57 61 62 65 68 70 72 73 73
64 64 64 63 62 62 60 60 59 60 60 61 62 62 61 59 58 57 56 56 55 55 55 54 54 54 53 54 55 55 56 56 56 57 57 56 60 62 64 66 68 69 70
65 64 63 62 62 60 60 60 60 61 63 62 62 61 61 60 58 57 55 54 54 54 54 53 53 53 52 54 53 54 54 54 54 55 55 55 55 57 60 61 63 65 66
64 62 62 64 60 59 59 60 61 61 58 58 58 58 59 58 57 55 54 52 53 53 52 51 51 52 51 50 50 51 51 52 52 52 53 53 52 54 54 58 59 59 61
61 60 60 61 60 59 60 57 57 58 56 55 56 56 56 56 57 56 53 52 53 54 54 54 52 49 48 48 50 50 49 49 49 53 51 51 51 51 52 54 55 56 57
58 59 60 60 60 58 58 58 57 56 55 55 54 56 59 58 58 55 55 55 53 52 49 50 49 49 47 46 50 50 48 48 48 47 48 51 49 48 49 49 49 51 54
57 59 60 60 59 59 57 55 54 52 52 52 54 56 55 55 54 52 50 49 49 49 47 48 46 45 45 44 43 44 45 46 46 46 46 46 46 47 47 47 47 48 49
55 57 57 56 56 56 56 54 53 51 50 51 51 51 52 51 51 51 49 48 47 47 45 44 43 42 43 43 41 40 38 42 43 47 44 45 41 43 45 46 46 46 47
53 54 56 57 57 56 55 53 52 51 50 50 49 48 49 50 50 49 48 47 45 45 43 42 42 41 39 41 41 40 36 34 37 42 42 41 41 41 41 42 44 45 46
52 52 54 55 55 55 54 54 52 50 49 48 48 47 48 49 48 48 46 45 43 43 42 41 43 40 39 38 40 43 40 38 34 34 39 40 40 42 40 40 40 42 45
52 51 53 54 54 53 53 52 50 49 48 49 48 48 47 46 46 46 45 43 43 43 42 41 40 39 39 38 37 37 37 36 35 36 34 39 38 40 40 39 39 40 43
52 51 53 55 53 53 51 51 50 50 49 47 47 46 45 43 43 44 45 43 42 42 41 40 39 38 38 37 37 41 40 38 38 37 35 37 37 38 39 39 39 39 40

GFSSE_sfc_temp_045.txt.gz
Temp
74 78 73 74 74 74 74 74 74 74 75 75 75 75 75 75 75 75 75 75 76 77 77 76 75 75 75 74 74 73 72 72 72 73 74 75 77 77 76 75 76 83 75
76 77 72 74 74 74 74 74 74 74 75 75 75 75 74 75 75 75 75 75 76 76 76 75 75 75 74 73 72 72 72 71 71 71 72 74 74 76 76 74 74 78 75
75 78 77 72 74 74 74 74 75 75 75 75 75 74 74 75 75 75 75 75 75 76 75 75 74 74 73 72 71 71 71 71 70 70 71 81 81 76 76 74 74 75 75
76 77 78 72 73 74 74 74 75 75 75 75 74 74 74 74 74 74 74 74 75 75 75 74 74 73 71 70 70 70 70 70 69 69 79 80 81 75 76 75 75 75 74
76 77 77 71 72 73 74 74 74 74 73 73 74 74 74 74 74 73 73 73 74 74 74 74 73 71 70 69 69 69 70 69 68 75 80 78 80 76 76 75 76 75 73
74 77 73 70 72 73 73 73 73 73 72 72 73 73 74 74 73 73 72 73 73 74 73 72 71 70 69 69 69 69 68 68 70 79 78 77 79 74 76 74 73 72 72
73 76 76 70 71 72 73 73 72 72 72 72 72 72 73 73 72 72 71 72 72 72 72 71 70 70 69 69 69 68 67 67 76 78 79 79 77 73 75 74 72 72 72
73 75 76 71 71 71 72 71 71 71 71 71 71 71 72 71 71 71 71 71 70 70 70 70 69 69 69 68 68 66 66 66 75 78 79 79 72 72 74 74 72 71 71
74 74 75 76 74 70 69 69 69 69 69 70 70 70 70 69 69 70 70 70 70 70 70 70 69 68 68 67 67 66 66 66 77 78 78 80 70 72 74 74 73 72 71
71 73 73 74 75 75 75 67 68 68 68 69 69 69 68 68 69 69 69 70 70 70 70 69 68 68 67 66 66 65 65 66 76 77 78 78 70 73 74 74 73 72 71
69 70 70 72 72 72 73 72 69 68 68 68 69 67 68 75 75 74 69 68 69 69 68 68 68 66 65 65 65 64 66 76 75 76 77 67 69 72 74 73 72 72 71
69 70 70 69 70 70 73 73 72 73 74 73 74 73 75 73 75 74 70 67 68 67 66 66 65 65 69 75 75 70 75 73 75 75 77 65 67 71 73 73 72 72 71
70 71 70 70 69 70 72 72 72 73 73 73 72 72 72 73 74 75 75 75 74 68 74 72 73 73 71 72 72 71 72 73 74 75 72 64 66 69 71 72 72 73 72
71 71 70 69 69 68 71 72 72 73 73 73 73 71 72 73 72 73 74 74 72 72 70 71 72 69 69 69 69 69 70 72 73 73 72 63 64 67 69 70 71 72 72
70 71 71 69 69 69 69 70 70 71 72 72 73 73 73 72 71 72 71 72 71 72 71 70 70 70 68 68 68 68 68 69 69 71 71 62 61 63 66 67 69 69 70
72 72 71 70 69 70 70 69 70 70 71 70 69 69 68 69 68 70 69 69 69 69 69 68 68 68 68 67 67 67 67 68 68 67 70 69 59 60 61 63 64 65 66
74 72 70 68 70 68 69 69 69 69 67 65 63 65 65 67 66 67 67 66 66 66 65 66 66 67 67 66 65 67 67 67 67 65 66 67 67 58 58 59 60 61 62
74 72 70 68 65 65 64 65 62 63 60 61 61 62 64 64 64 64 65 60 64 64 65 62 64 59 63 64 63 65 65 65 64 64 64 64 64 64 61 56 57 58 59
70 68 66 66 65 63 60 59 57 58 60 60 61 63 62 62 63 64 59 63 63 63 63 63 63 61 61 61 62 63 63 64 63 65 61 60 60 60 61 57 55 56 56
65 65 64 64 62 59 57 57 57 59 61 62 62 65 65 66 64 64 63 62 63 62 61 60 58 58 58 58 59 60 61 63 62 62 60 61 59 57 58 57 59 60 54
65 65 63 59 59 58 59 61 61 61 62 64 66 65 64 64 63 62 62 61 61 60 57 57 58 56 57 57 56 57 59 59 58 60 60 58 56 57 56 56 57 58 59
65 65 62 63 60 62 65 67 66 65 64 64 63 61 61 61 61 61 60 59 58 59 56 55 54 54 56 55 52 53 52 55 58 58 58 57 54 56 56 55 54 55 56
63 64 66 66 66 66 66 65 64 63 62 62 63 63 60 59 59 59 58 58 57 58 56 55 54 52 51 54 52 50 48 47 49 56 54 54 52 53 54 54 54 54 54
63 64 66 65 66 65 64 65 63 66 65 61 61 61 61 58 57 58 57 57 56 57 54 54 55 52 51 50 52 53 50 46 40 41 52 52 53 52 52 52 52 52 53
61 62 62 63 63 62 62 62 63 60 60 60 61 58 58 58 57 57 56 56 56 56 55 53 52 51 52 49 49 47 45 48 47 41 41 47 51 52 53 51 51 51 52
60 60 61 62 61 60 60 60 60 59 58 60 59 59 58 58 57 56 56 55 55 54 53 53 51 50 50 49 49 48 47 44 44 41 38 41 42 48 50 51 50 51 52

GFSSE_sfc_temp_048.txt.gz
Temp
86 84 74 75 74 74 74 74 74 74 75 75 75 75 75 75 75 75 76 76 76 77 77 76 75 75 75 74 73 73 73 72 72 73 74 76 77 77 76 75 75 87 76
87 84 73 74 74 74 74 74 74 75 75 75 75 75 75 75 75 75 75 75 76 77 76 75 75 74 74 73 72 72 72 71 71 71 73 75 76 77 76 75 74 81 75
85 85 82 73 74 74 74 75 75 75 75 75 75 75 75 75 75 75 75 75 76 76 76 75 74 74 73 72 71 71 71 71 70 71 74 91 86 77 77 75 74 75 75
83 86 84 72 73 74 74 75 75 76 75 75 75 75 75 75 75 75 75 75 75 75 75 75 74 73 72 71 71 71 71 70 70 72 88 88 87 75 76 75 75 75 74
84 86 82 72 73 73 74 74 74 74 74 74 74 75 74 74 74 74 74 74 74 75 75 74 73 72 71 70 70 70 70 70 70 78 88 85 87 77 76 75 78 75 73
85 86 75 71 72 73 74 74 73 73 73 73 73 74 74 74 73 73 73 73 74 74 74 73 72 71 70 69 69 69 69 69 69 88 86 82 83 75 75 74 73 72 72
86 85 81 70 71 73 74 73 73 72 72 72 73 73 73 73 73 72 72 72 72 72 72 72 71 70 70 69 69 68 68 68 84 87 87 86 80 74 75 74 73 72 72
82 82 80 72 71 72 72 72 71 71 71 71 71 72 72 72 71 71 71 71 71 71 71 70 70 70 69 69 68 67 67 67 83 85 86 86 72 73 75 74 73 72 72
82 83 82 82 76 70 70 70 70 70 70 70 71 70 70 70 70 71 71 71 71 71 70 70 69 69 68 67 67 66 66 67 84 85 85 86 70 73 75 74 74 73 72
81 83 84 83 82 81 79 69 69 69 69 69 69 69 69 69 69 70 70 70 70 70 70 70 69 68 67 66 66 66 66 68 84 85 86 80 69 72 74 74 73 73 72
79 79 81 82 81 81 82 76 70 69 69 69 70 68 69 82 81 78 69 69 70 69 69 68 68 67 67 67 66 66 67 84 83 84 86 67 68 71 73 73 73 72 72
75 78 80 79 78 80 82 79 79 80 82 81 81 79 84 81 82 80 73 68 69 68 68 67 67 68 71 85 84 75 83 81 83 82 83 66 68 71 72 72 72 72 72
79 80 79 77 77 78 78 81 82 83 81 81 79 81 80 81 82 84 81 83 82 72 84 80 81 84 78 80 81 79 79 80 82 82 77 65 66 69 70 71 71 71 71
80 79 79 77 76 77 80 82 81 82 82 82 82 79 81 77 79 78 81 80 79 82 79 81 82 77 78 77 76 76 76 78 80 80 78 63 63 66 68 69 70 70 70
80 80 79 78 77 77 77 79 80 80 82 81 83 81 81 80 76 78 77 80 80 80 80 79 79 78 77 76 75 75 75 75 75 78 78 63 61 63 65 66 67 67 67
82 80 79 78 78 79 79 77 78 78 80 80 79 77 74 74 69 70 73 77 80 78 78 77 74 75 75 75 75 74 73 75 75 74 76 76 60 60 61 62 63 63 64
82 81 78 78 79 78 77 77 76 75 76 76 74 72 73 72 71 70 73 75 73 74 72 75 74 74 74 73 72 71 74 74 74 72 73 74 71 58 59 59 59 60 61
83 80 78 76 75 73 73 74 72 70 65 64 68 69 67 67 67 69 72 66 70 71 72 72 71 71 71 71 71 72 72 73 72 71 72 71 72 72 65 59 58 58 59
83 80 75 73 70 66 61 60 60 60 62 65 67 68 66 66 68 68 69 69 71 72 70 69 69 67 66 68 69 69 69 71 70 73 69 67 67 67 68 63 59 59 58
79 77 74 70 65 61 60 60 59 60 65 67 69 71 72 72 71 72 71 69 71 70 69 66 64 66 66 66 66 66 67 68 69 69 68 68 67 64 65 64 64 66 58
73 72 71 68 66 63 62 62 64 68 69 71 75 72 72 72 70 69 72 70 69 66 64 64 64 63 63 64 60 64 65 67 65 67 67 66 64 64 64 64 63 64 65
72 72 72 72 71 73 74 76 75 74 76 75 74 70 70 69 68 69 68 68 66 66 64 62 61 60 62 63 57 57 57 62 67 66 65 63 61 62 62 62 60 60 61
71 73 75 75 75 75 76 75 74 72 73 73 72 72 69 68 68 67 66 66 65 65 63 61 61 58 57 60 60 55 51 51 55 61 61 62 60 60 60 61 60 59 60
73 75 76 75 76 74 74 74 72 75 73 71 73 71 72 67 67 67 66 65 64 63 61 61 62 58 58 55 58 60 57 54 46 46 56 58 60 59 59 59 59 59 59
72 73 73 74 73 72 71 72 72 69 70 71 72 67 67 67 66 66 65 63 63 63 62 59 58 57 58 55 55 55 55 54 54 46 43 50 56 58 59 59 59 58 58
70 70 71 71 71 70 70 70 69 67 66 69 68 66 67 67 67 65 65 64 63 62 60 59 58 57 56 55 55 53 48 44 43 42 42 43 45 51 55 55 53 51 55

GFSSE_sfc_temp_051.txt.gz
Temp
85 84 74 74 74 74 74 74 74 74 75 75 76 76 76 76 76 76 76 76 76 77 76 76 75 75 74 74 74 73 73 72 72 73 74 77 78 77 76 75 76 83 76
85 85 73 74 74 74 74 74 74 75 75 76 75 75 75 75 75 75 76 76 76 77 76 75 75 74 74 73 73 72 72 72 72 72 73 76 76 77 76 75 74 79 75
84 84 82 73 74 74 75 75 75 75 76 76 75 75 75 75 75 75 75 75 76 76 75 75 74 74 73 73 72 72 72 71 71 72 74 77 82 76 76 75 74 75 75
84 85 82 72 73 74 74 74 75 76 75 75 75 75 75 75 75 75 75 75 75 75 75 75 74 73 72 71 71 71 71 71 71 72 84 88 82 76 76 75 75 74 74
83 83 78 72 73 74 74 74 74 74 74 74 74 75 74 74 74 74 74 74 75 75 75 74 73 72 71 70 70 70 71 71 71 74 89 86 82 77 75 74 77 75 73
79 80 73 71 72 73 74 74 74 73 73 73 74 74 74 74 74 73 73 74 74 74 74 73 72 71 70 70 69 69 69 70 69 89 88 81 80 75 75 73 73 72 72
78 81 79 71 72 73 74 73 73 73 73 73 73 73 74 73 73 72 72 72 73 73 72 72 71 71 70 69 69 68 68 68 83 87 88 82 77 75 75 74 72 72 72
79 80 78 72 72 72 72 72 72 72 72 72 72 72 73 72 72 72 72 71 71 71 71 71 70 70 69 69 68 68 67 68 85 86 87 81 72 74 75 74 73 72 72
82 81 80 78 74 71 70 70 70 71 71 71 71 71 70 70 70 71 71 71 71 71 71 70 70 69 68 68 68 67 67 68 80 87 87 82 70 73 74 74 74 73 72
80 82 82 81 80 79 77 69 69 69 70 70 70 69 69 70 70 70 70 71 71 71 70 70 69 69 68 67 68 68 68 68 84 86 85 76 70 72 73 73 73 73 72
80 85 85 85 83 82 80 75 70 69 69 69 70 69 69 82 80 77 70 70 71 70 70 69 68 68 69 69 68 69 68 85 83 85 84 67 70 72 73 72 72 72 72
81 83 84 81 81 82 85 79 81 80 81 81 81 80 84 82 82 80 74 70 70 70 70 69 69 70 69 84 82 74 83 81 83 83 80 67 69 71 71 71 71 71 71
82 83 82 79 79 81 79 83 83 83 82 82 81 82 81 82 81 82 82 79 77 70 82 77 79 82 80 80 81 80 79 80 82 82 75 66 67 69 70 70 70 70 70
81 79 78 78 78 79 82 84 83 84 83 83 83 80 81 81 79 78 82 82 78 82 80 81 81 79 78 78 78 77 77 78 79 78 77 64 65 67 68 69 69 68 68
82 82 80 80 79 79 81 81 82 81 80 78 78 78 75 73 70 72 74 78 77 78 80 79 79 78 77 78 77 76 76 76 77 78 78 63 63 64 65 65 66 66 66
84 82 81 80 80 81 80 79 76 77 77 78 77 76 76 74 74 76 76 77 78 78 77 76 74 74 74 74 74 75 74 75 76 75 77 75 62 62 62 62 62 63 64
84 83 81 81 81 80 78 77 76 76 75 73 73 73 73 73 71 72 73 73 73 73 72 72 73 71 73 75 74 74 75 74 75 74 75 74 73 59 60 60 60 61 61
85 82 82 82 79 75 72 71 70 69 68 64 66 68 69 69 70 71 70 69 69 70 70 70 71 71 70 71 70 72 72 72 72 73 73 74 73 72 62 60 60 61 61
86 83 79 76 69 69 67 65 62 60 61 62 66 68 67 68 69 70 71 71 72 72 71 70 69 68 67 67 69 70 69 69 71 73 71 71 70 69 68 65 61 61 60
85 83 78 70 65 66 66 61 64 60 61 65 69 70 71 73 73 73 72 70 71 71 69 67 65 67 66 66 67 66 67 69 70 69 69 71 70 68 67 66 65 65 61
81 79 72 67 70 70 70 71 71 70 70 72 75 74 74 74 73 71 73 71 70 69 67 66 65 63 63 65 62 63 64 66 68 69 69 68 67 66 65 65 64 64 64
76 74 69 71 71 75 78 78 76 75 76 78 76 73 73 72 71 72 69 70 69 67 66 65 62 61 62 63 58 58 54 58 65 65 64 65 65 66 64 64 63 62 62
69 73 74 77 77 79 79 78 78 77 75 74 73 73 71 71 71 70 69 67 66 66 65 63 62 60 57 60 60 56 50 49 55 60 60 62 61 62 62 62 62 62 62
76 78 80 79 79 79 79 77 74 74 71 72 73 74 74 70 70 69 68 67 65 65 63 63 63 60 58 55 58 61 59 56 48 46 55 57 59 60 59 60 61 60 60
77 77 78 79 78 77 76 76 74 74 74 74 71 69 70 69 69 68 68 66 65 64 63 62 60 59 59 56 56 55 54 54 53 47 44 48 53 56 58 59 58 58 58
75 74 75 76 75 75 74 73 72 70 70 71 70 67 69 69 70 69 68 66 65 64 63 62 58 56 56 54 55 52 51 47 46 45 42 45 46 51 55 56 56 57 57

GFSSE_sfc_temp_054.txt.gz
Temp
77 76 74 74 74 74 74 74 74 74 75 75 75 75 75 75 75 75 75 76 76 76 76 75 75 75 75 74 73 73 73 72 72 73 76 77 77 77 76 75 76 77 75
78 78 73 74 74 74 74 74 75 75 75 75 75 75 75 75 75 75 75 76 76 76 76 75 75 75 74 73 73 73 72 72 72 73 75 76 75 76 76 74 73 75 75
78 77 77 73 74 74 75 75 75 75 75 75 75 75 75 75 75 75 75 75 75 75 75 75 75 74 73 72 72 72 72 71 71 72 74 71 76 76 76 74 73 74 74
80 80 77 73 73 74 74 75 75 75 75 75 75 75 75 75 75 75 74 74 75 75 75 75 74 73 72 71 71 71 71 71 71 71 75 76 78 75 75 75 74 74 74
80 80 74 72 73 74 74 74 74 74 74 74 74 74 75 74 74 74 73 74 74 75 75 74 73 72 71 70 70 70 70 70 70 72 72 75 74 75 75 73 73 73 72
76 75 71 71 72 73 74 74 73 73 73 73 73 74 74 74 73 73 73 73 73 74 74 73 72 71 69 69 69 69 69 70 71 77 75 74 73 75 74 73 72 71 71
71 73 74 70 71 73 74 73 73 73 72 73 73 73 73 73 73 72 72 71 72 72 72 72 71 70 69 69 69 69 68 68 73 75 73 70 70 75 75 74 72 71 71
70 73 75 71 72 72 72 72 71 71 71 71 72 72 72 72 71 71 71 71 71 71 71 70 70 70 69 69 69 68 68 68 74 75 72 68 71 74 75 74 72 72 71
70 71 74 73 71 70 70 70 70 70 70 70 70 70 70 70 70 70 70 71 71 71 71 70 70 69 69 69 69 68 68 68 67 74 76 69 71 73 74 73 73 72 72
70 74 75 74 73 72 71 69 69 69 69 69 69 69 69 69 69 70 70 70 71 71 70 70 70 69 69 69 69 69 68 67 67 72 70 66 71 73 73 72 72 72 71
71 74 75 75 74 73 72 70 69 69 69 69 69 69 67 72 71 71 70 70 70 70 70 70 70 69 69 68 69 69 68 71 71 72 66 68 71 73 72 71 71 71 71
70 76 78 76 75 75 78 71 71 72 71 71 73 70 71 73 72 76 71 69 70 70 70 69 69 69 68 70 67 67 69 71 71 71 64 68 71 72 72 71 70 70 70
71 76 74 74 75 75 73 74 74 72 73 73 74 75 75 74 73 70 68 66 67 68 71 68 68 70 71 70 69 68 69 69 67 69 65 67 69 71 71 70 69 69 68
76 75 74 74 73 72 74 74 74 74 74 73 73 73 69 67 68 66 67 70 70 70 70 71 69 72 70 71 71 69 68 67 67 68 67 65 66 69 70 69 68 67 66
75 74 74 73 73 73 73 73 71 71 70 69 70 71 69 68 66 67 67 69 69 70 68 68 67 67 66 68 67 68 68 67 67 67 65 64 64 66 66 66 66 65 65
77 75 75 74 74 75 72 71 71 70 69 69 69 69 69 67 67 67 66 65 64 65 66 65 65 64 64 65 66 67 67 66 66 65 65 62 62 63 63 64 64 64 64
78 76 75 74 75 73 72 71 70 69 67 66 66 66 66 66 66 66 64 63 63 63 63 63 63 63 62 65 63 65 64 64 63 63 63 64 61 60 61 62 63 64 64
79 77 77 79 73 70 68 69 67 65 63 63 64 64 65 65 65 64 62 61 62 63 62 61 60 60 59 59 58 59 60 61 62 62 62 61 61 62 59 61 62 64 64
78 77 72 70 66 65 62 62 61 61 62 61 63 63 63 64 65 63 62 62 62 62 61 60 57 56 55 56 59 58 56 57 59 65 61 61 61 60 60 62 62 62 61
78 77 69 66 63 63 63 62 62 63 62 62 64 65 65 67 67 64 63 62 63 61 59 57 55 56 54 54 61 59 54 55 58 58 60 63 61 61 61 59 55 56 61
75 71 66 64 65 65 64 63 65 64 65 65 67 68 68 67 67 64 63 62 61 59 57 57 55 53 52 53 50 52 51 55 54 55 54 55 58 60 60 59 57 55 55
73 66 66 68 66 68 70 70 69 67 66 67 67 66 66 66 65 65 62 60 59 57 57 55 53 50 50 51 48 47 44 48 51 55 52 54 52 53 58 58 55 55 53
67 67 70 70 70 71 73 71 70 69 66 66 65 64 65 66 66 64 62 59 57 56 54 53 53 51 47 49 50 45 43 40 46 49 50 49 49 49 52 55 54 54 54
69 68 71 72 72 74 72 70 67 66 64 64 64 65 65 65 64 64 62 59 57 56 54 53 55 50 49 46 48 53 47 45 40 38 45 47 48 50 47 47 50 53 52
71 71 73 74 74 72 72 70 67 67 65 65 65 64 64 63 63 63 61 59 57 55 54 53 53 51 48 46 46 44 44 43 43 39 35 39 45 46 48 47 46 47 50
71 70 71 72 72 71 70 69 68 64 62 61 60 59 61 61 61 61 62 58 56 55 54 54 52 50 48 47 46 45 43 40 40 38 36 37 37 42 44 45 45 45 47

GFSSE_sfc_temp_057.txt.gz
Temp
70 73 73 74 74 74 73 73 74 74 75 75 75 75 75 75 75 75 75 75 75 76 76 75 75 75 75 75 74 73 73 73 72 74 75 76 77 77 75 74 74 75 75
72 73 73 73 74 74 74 74 74 74 75 75 75 74 74 75 75 75 75 75 75 76 76 75 75 75 74 73 73 73 72 72 72 73 74 75 75 75 75 73 73 74 74
72 74 74 73 74 74 74 75 75 75 75 75 75 75 74 74 74 74 74 74 75 75 76 75 75 74 73 72 72 72 72 72 72 72 73 73 75 76 75 73 73 74 74
73 73 74 73 73 74 74 74 74 75 75 74 74 74 74 74 74 74 74 74 75 75 75 75 74 73 72 71 71 71 71 72 71 71 72 73 75 75 75 74 73 73 73
74 74 73 72 73 73 73 74 74 74 73 73 74 74 74 74 74 74 73 73 74 75 74 74 73 72 71 70 70 70 71 71 72 72 68 70 71 75 74 73 72 72 72
72 72 71 71 72 73 73 73 73 73 72 72 73 73 74 74 73 73 72 72 73 74 73 73 72 71 70 69 70 70 70 70 71 67 69 70 71 75 75 73 71 71 71
70 71 72 71 72 73 73 73 72 72 72 72 72 72 73 73 72 72 71 71 72 72 72 72 71 70 69 69 70 69 69 69 69 66 65 64 68 74 74 73 72 71 71
69 70 73 72 71 71 71 71 71 71 71 71 71 71 72 71 71 71 71 71 71 71 71 70 70 70 69 70 69 68 68 69 70 66 64 64 71 74 74 73 72 71 71
69 69 70 70 70 70 69 69 69 69 70 70 70 70 70 70 70 70 70 70 70 70 70 70 70 69 69 69 68 67 66 68 65 66 70 64 72 73 73 72 72 71 71
68 68 69 70 70 69 69 68 68 68 68 69 69 69 68 68 69 69 69 70 70 70 70 70 69 69 69 68 68 67 66 67 65 64 63 65 72 73 73 72 71 71 71
68 68 69 70 69 68 68 69 68 69 68 68 68 68 66 67 67 68 68 69 70 70 70 70 69 69 68 68 67 66 66 66 67 64 62 68 72 73 72 71 70 70 70
64 67 67 70 69 70 73 67 66 68 66 66 67 66 66 66 66 70 68 69 69 69 69 69 69 68 68 66 66 67 65 66 65 63 61 68 71 73 72 71 70 69 68
66 68 68 71 70 70 69 66 65 65 65 66 67 67 67 68 66 66 64 65 65 68 67 69 69 68 70 66 65 64 65 64 62 63 64 66 70 72 72 70 68 68 67
64 68 69 69 71 68 68 66 65 67 67 66 66 67 65 64 63 63 63 64 65 67 64 64 62 64 63 65 65 64 64 63 63 63 63 65 67 70 70 69 67 66 66
66 68 68 68 68 67 66 66 67 65 66 65 65 67 65 64 63 63 63 62 61 61 61 61 61 62 62 63 63 64 63 63 63 63 60 63 64 66 67 67 66 66 65
69 67 67 67 67 68 67 65 64 63 63 64 63 64 65 63 62 61 60 59 59 59 60 59 59 58 58 59 60 60 61 60 60 60 59 57 62 63 64 65 65 65 65
70 70 67 67 67 69 66 65 64 63 61 61 62 63 63 63 61 60 58 58 58 58 58 58 56 56 55 58 57 58 58 57 58 58 59 58 57 61 62 64 64 65 64
71 70 71 73 68 66 64 61 61 60 59 59 59 59 61 61 61 58 57 57 58 57 57 55 54 54 53 52 52 53 53 55 56 57 58 57 54 57 59 62 63 64 63
72 71 64 64 62 61 59 58 58 58 58 57 58 58 60 60 61 58 57 57 57 56 55 55 53 51 50 50 54 52 50 51 52 57 56 57 56 54 54 60 61 61 62
70 66 64 61 60 59 59 57 57 57 57 57 57 61 61 61 61 59 58 58 57 55 53 52 51 51 49 48 56 52 49 50 49 49 50 55 54 56 55 57 55 57 60
64 63 61 60 60 60 58 57 57 56 56 57 59 61 61 61 61 58 56 55 55 54 52 52 50 49 47 46 45 46 46 47 50 48 48 48 50 54 56 55 55 54 53
62 61 61 61 61 61 61 60 59 58 58 58 59 59 60 60 60 60 56 55 54 52 51 50 48 46 46 47 43 41 38 44 45 49 46 48 45 50 54 56 52 52 50
60 61 62 62 62 63 63 63 60 59 58 57 57 56 59 60 60 58 56 54 53 51 49 48 48 47 44 45 46 43 37 35 38 43 45 43 43 44 45 48 52 52 52
61 62 64 64 63 64 64 62 60 57 57 56 56 57 58 60 59 59 57 55 54 52 51 49 51 47 45 43 44 49 43 40 35 34 40 43 43 45 42 43 44 47 48
62 61 63 63 64 64 66 62 60 57 58 60 61 60 59 60 60 59 57 54 53 51 49 48 48 47 45 43 42 41 40 39 39 35 34 35 39 41 43 42 41 42 45
61 61 61 62 65 63 62 60 58 56 55 54 54 57 56 56 55 54 55 52 51 50 49 48 47 46 45 43 43 41 40 39 38 37 33 33 34 37 40 41 41 41 42

GFSSE_sfc_temp_060.txt.gz
Temp
70 73 73 74 74 73 73 73 73 74 74 75 75 75 75 75 74 74 74 75 75 75 76 76 75 75 75 74 73 73 73 73 73 75 75 76 76 76 75 74 73 73 74
72 74 73 73 73 73 74 74 74 74 75 75 74 74 74 74 74 74 74 75 75 76 76 75 75 75 74 73 73 73 73 72 72 73 74 74 74 75 75 73 73 73 74
73 73 74 73 73 74 74 74 75 75 75 75 74 74 74 74 74 74 74 74 75 75 75 75 75 74 74 73 72 72 72 72 72 73 73 69 72 75 74 73 73 73 74
73 74 74 72 73 74 74 74 74 75 75 74 74 74 74 74 74 74 74 74 74 75 75 75 75 74 73 72 72 72 72 71 71 71 70 70 73 74 74 73 73 73 73
72 73 73 72 73 73 73 73 73 74 73 73 73 74 74 74 74 73 73 73 74 75 75 75 74 73 71 70 70 70 71 71 70 70 66 67 68 74 74 72 72 72 71
70 72 70 71 72 73 73 73 73 73 72 73 73 73 74 74 73 73 72 73 73 74 74 73 73 71 70 70 70 70 70 70 68 64 65 69 68 75 74 72 71 71 71
70 70 71 70 72 72 73 73 72 72 72 72 72 72 73 73 73 72 71 72 72 73 72 72 71 70 70 70 69 69 69 69 65 63 63 63 68 74 74 72 71 71 71
68 69 71 71 72 72 72 71 71 71 71 71 71 72 72 71 71 71 71 71 71 71 71 71 70 70 70 69 69 68 67 68 67 63 63 63 71 73 73 72 71 70 71
68 68 68 69 72 69 69 69 69 69 69 70 70 70 70 70 70 70 70 70 70 70 70 70 70 69 70 69 68 67 66 67 63 63 68 63 72 73 73 72 71 71 70
67 67 67 69 69 68 68 68 68 68 68 69 69 69 68 68 69 69 69 70 70 70 70 70 70 69 69 68 67 66 66 66 62 62 62 63 72 73 72 71 71 70 69
66 67 68 67 67 67 67 68 68 69 68 68 68 68 65 65 66 68 68 69 70 70 70 70 69 68 67 66 66 66 66 63 62 61 61 68 72 73 72 70 70 69 68
64 65 67 67 67 68 71 66 65 68 65 66 66 65 66 65 65 68 67 69 69 69 69 68 68 68 67 64 63 65 63 63 62 61 60 68 71 73 71 70 68 68 67
64 66 66 68 68 67 66 64 63 63 63 64 65 65 65 66 65 64 63 64 64 68 65 66 66 64 64 63 62 61 62 61 59 60 62 66 69 71 70 69 68 67 66
64 66 65 66 66 65 66 65 63 63 63 64 64 65 63 62 62 62 62 61 61 62 62 61 60 61 61 62 61 61 60 59 58 58 59 64 66 69 70 68 67 66 65
63 65 66 67 64 63 63 63 63 63 63 63 64 64 63 62 61 60 59 61 59 59 59 58 58 59 58 59 59 59 59 58 58 57 55 61 64 67 68 67 66 66 65
65 65 66 66 65 66 63 63 61 62 62 62 63 63 63 62 60 58 58 57 56 57 57 56 55 54 54 55 56 56 56 55 55 55 55 53 62 64 65 66 66 65 65
67 67 66 64 66 65 63 63 60 62 62 61 61 61 61 61 59 58 56 56 56 56 55 54 54 53 52 54 53 53 53 53 54 54 55 54 55 61 63 64 65 64 64
68 68 67 70 65 64 62 60 60 59 58 58 59 59 60 59 59 57 55 55 55 54 53 52 52 51 49 49 49 49 49 51 52 52 53 54 51 54 58 62 63 63 63
69 68 64 63 61 60 59 58 57 57 57 56 57 57 58 58 58 56 55 54 55 53 52 53 49 49 47 47 51 48 48 48 48 53 51 51 52 52 52 59 59 60 62
68 66 64 62 59 58 58 57 57 56 55 56 56 57 58 58 59 56 55 54 54 52 51 50 49 48 46 46 53 50 46 46 46 46 47 51 50 50 51 52 53 55 59
63 63 62 60 59 59 57 56 55 54 55 55 56 59 59 58 57 55 54 53 52 51 50 50 48 47 45 44 43 43 43 45 45 45 45 45 47 49 50 52 52 49 51
61 61 60 61 60 60 60 57 57 56 55 56 56 57 58 57 56 55 53 52 52 50 49 48 47 44 44 44 43 39 38 40 43 47 44 45 42 45 47 50 48 49 46
60 59 60 60 60 61 61 60 57 56 55 54 54 54 56 57 57 56 55 52 51 49 48 47 46 45 43 43 43 42 37 34 36 41 43 42 41 42 42 44 46 47 46
60 59 61 61 61 61 60 59 57 54 54 53 53 54 55 57 56 56 54 52 50 49 48 46 48 45 43 42 42 46 41 39 34 32 39 42 41 43 40 40 42 44 44
60 60 60 60 60 61 61 59 58 54 54 54 54 54 55 55 55 56 53 51 49 48 47 46 46 45 43 42 40 40 38 37 36 34 33 34 38 40 41 40 39 39 42
60 58 59 59 60 61 59 58 56 55 53 53 52 52 54 54 54 53 52 49 48 47 46 45 44 44 43 41 41 39 39 37 36 34 35 34 32 36 39 39 39 39 39

GFSSE_sfc_temp_063.txt.gz
Temp
70 73 73 74 74 73 73 73 73 74 74 74 74 74 74 74 74 74 74 74 75 76 76 76 75 75 75 75 74 73 73 73 74 74 75 76 76 75 74 73 73 72 74
73 73 72 73 74 73 73 73 74 74 74 75 74 74 74 74 74 74 74 74 75 76 76 75 75 75 75 74 73 73 73 73 72 73 73 74 74 74 74 73 73 72 74
73 74 72 72 74 74 74 74 74 75 75 74 74 74 74 74 74 74 74 74 75 75 76 76 76 75 74 73 72 72 72 72 72 72 72 67 70 74 73 72 72 73 73
74 73 72 72 73 74 74 74 74 75 74 74 74 74 74 74 74 74 74 74 74 75 76 76 76 74 73 72 71 72 72 72 71 70 67 67 72 74 73 72 72 72 72
73 73 73 72 73 73 73 74 74 74 73 73 73 74 74 74 74 74 73 73 74 75 76 76 75 73 71 70 71 71 71 70 69 68 64 65 66 73 73 72 71 71 71
72 73 70 69 72 73 73 73 73 73 72 72 73 73 74 74 74 73 72 73 74 74 75 74 73 71 70 69 70 70 69 68 67 62 63 67 67 74 73 72 71 71 70
70 71 70 69 71 73 73 73 72 72 72 72 72 72 73 73 73 72 71 72 72 73 73 72 72 71 70 69 68 69 68 67 63 62 62 63 67 73 73 72 71 70 70
67 68 71 71 71 72 72 71 71 71 71 71 71 72 72 72 71 71 71 71 71 71 71 71 70 70 69 69 69 67 68 67 65 62 62 63 71 73 73 72 70 70 70
67 67 67 67 68 69 69 69 69 69 69 70 70 70 70 69 69 70 70 70 70 70 70 70 69 69 69 68 68 66 66 66 61 62 66 62 71 72 72 72 71 70 69
66 66 66 67 68 67 69 68 68 68 68 68 69 69 68 68 69 69 69 70 70 70 70 69 69 68 67 67 67 66 65 65 60 60 61 62 71 72 72 71 70 69 68
65 65 65 66 66 66 67 68 68 68 68 68 68 67 65 64 65 66 68 69 69 69 69 69 68 67 66 66 66 65 64 61 61 60 59 67 71 72 71 69 69 68 67
62 61 62 66 66 66 70 65 65 67 65 65 65 64 63 63 64 66 67 68 69 68 68 67 67 66 65 63 63 63 60 60 59 59 58 67 70 72 70 68 68 67 66
62 63 64 66 65 65 65 63 62 62 62 63 63 63 64 64 63 62 62 62 62 65 64 64 63 62 62 60 60 59 59 58 55 56 59 65 68 71 70 68 67 66 66
61 64 65 65 65 64 63 62 62 62 63 62 62 64 62 61 61 60 59 59 59 60 59 59 58 59 58 60 58 58 57 55 54 54 55 63 65 68 69 68 66 66 65
62 64 63 64 63 62 61 60 62 62 63 63 63 63 62 60 58 58 57 58 57 57 57 56 56 56 56 56 55 55 54 54 54 53 51 59 63 66 68 67 66 66 65
64 63 64 63 62 62 61 61 62 62 62 62 62 62 62 60 58 57 56 55 54 55 55 54 53 52 51 52 52 53 52 52 52 51 51 49 58 64 66 66 66 65 65
64 65 65 63 63 62 62 61 60 61 62 61 60 61 60 59 58 56 54 54 54 54 53 52 51 50 50 52 50 51 50 50 51 51 51 52 51 58 62 64 65 64 64
66 65 64 68 62 61 60 59 59 59 59 59 59 58 59 58 57 55 54 53 53 52 51 50 50 48 48 48 47 47 47 48 49 49 49 50 49 52 54 60 63 63 63
66 64 64 62 59 58 57 57 57 57 57 56 56 56 57 57 56 54 53 52 53 52 52 51 48 48 46 47 48 47 45 45 46 51 49 49 49 49 49 57 58 59 61
63 63 62 60 58 57 57 56 55 55 55 55 55 56 57 56 56 54 53 53 53 51 49 48 48 46 45 45 52 49 43 44 44 44 45 49 48 48 48 49 49 52 58
61 61 60 59 58 58 56 55 54 53 53 54 55 57 57 56 56 54 52 52 51 50 49 49 46 46 44 43 42 42 42 42 43 43 43 43 46 47 47 47 46 45 47
59 60 58 60 58 58 59 56 56 54 54 54 55 55 56 55 55 54 52 51 50 48 48 47 46 43 43 42 41 38 37 40 42 44 42 44 42 43 45 47 45 45 44
58 58 59 59 59 59 58 58 54 54 54 53 52 52 54 55 55 54 52 50 49 48 46 45 44 44 42 42 42 41 36 33 35 39 41 40 41 40 41 42 45 45 44
60 59 59 59 59 59 58 57 56 53 52 52 52 52 53 55 55 54 52 50 48 47 46 46 46 43 42 41 40 44 40 39 34 32 37 39 39 41 39 39 40 42 42
59 58 58 59 59 60 59 58 55 52 52 51 52 52 52 52 53 53 51 48 47 46 46 45 44 43 41 40 39 38 37 36 35 33 30 33 37 39 39 38 38 38 41
59 58 58 59 59 59 58 57 55 53 52 51 50 50 49 49 50 51 52 48 47 49 46 44 42 42 41 40 39 38 38 36 35 33 30 32 31 35 37 38 38 38 38

GFSSE_sfc_temp_066.txt.gz
Temp
70 73 73 74 74 74 74 74 74 74 74 75 75 74 74 74 74 74 74 75 75 76 76 76 76 76 75 75 75 74 74 73 73 75 75 75 75 75 74 73 73 73 74
73 73 73 74 74 73 74 74 74 74 74 75 74 74 74 74 74 74 74 75 75 76 76 76 76 75 75 74 74 73 73 72 72 72 73 74 74 74 74 73 73 73 74
73 73 72 73 73 74 74 74 74 75 75 74 74 74 74 74 74 74 74 75 75 76 76 76 75 74 73 73 73 73 72 72 71 71 71 67 70 74 73 72 72 73 73
73 73 72 72 73 74 74 74 74 75 74 74 74 74 74 74 74 74 74 74 75 76 76 76 75 74 72 72 72 72 72 71 70 69 66 67 72 74 74 73 72 72 72
73 74 72 72 72 73 74 74 74 74 73 73 73 74 74 74 74 74 73 74 75 76 76 75 74 73 71 71 71 71 70 70 68 67 64 66 67 73 73 72 71 71 71
71 72 69 70 72 73 74 74 73 73 72 72 73 74 74 74 74 73 73 73 74 75 75 74 73 71 70 70 70 69 68 68 66 63 64 67 67 73 73 72 71 70 70
69 69 70 70 71 73 73 73 72 72 72 72 72 73 73 73 73 72 72 72 72 73 73 72 72 70 69 69 69 68 67 67 63 63 63 65 68 73 72 71 70 70 70
68 68 70 72 71 72 72 72 71 71 71 71 71 72 72 72 71 71 71 71 71 71 71 70 70 70 69 68 69 67 67 66 64 62 63 64 71 73 72 71 70 70 69
67 67 67 69 70 70 69 69 69 70 69 70 70 70 70 69 69 70 70 70 70 70 70 70 68 68 69 68 67 66 65 65 61 62 66 64 71 72 72 71 70 69 69
66 66 66 66 67 67 68 68 68 68 68 68 69 68 68 68 68 69 68 70 70 70 70 69 68 67 67 66 65 65 64 64 60 61 61 64 71 72 71 70 69 68 68
65 65 65 66 66 66 66 68 68 68 68 68 68 67 65 64 64 65 68 69 69 69 69 68 67 66 65 65 65 64 63 60 60 59 60 66 70 71 70 69 68 68 68
61 62 63 64 65 66 69 65 65 66 64 65 64 64 63 62 63 65 66 68 68 67 67 66 66 65 63 60 60 61 58 57 57 57 58 65 69 72 69 68 67 67 66
61 61 63 64 65 64 64 63 62 62 62 63 63 63 63 63 62 62 61 61 61 63 61 61 61 60 58 58 57 56 55 55 53 54 59 64 67 70 69 68 67 66 66
60 61 62 63 64 63 63 62 61 62 62 61 61 63 62 61 60 58 58 58 58 57 57 57 56 56 56 56 55 54 54 52 52 52 54 61 64 68 69 67 66 66 65
60 61 61 63 63 62 61 61 61 61 62 62 62 63 61 60 57 57 56 56 56 56 56 54 54 54 53 53 53 52 52 51 51 51 50 57 60 65 68 67 66 66 65
62 62 64 63 62 62 60 60 60 61 62 62 61 61 61 58 57 55 54 54 53 54 53 52 51 50 50 50 50 50 50 50 50 50 50 49 59 62 66 66 66 65 65
65 64 63 61 61 60 61 61 60 61 61 61 60 61 59 58 57 55 54 53 52 55 54 53 50 49 49 50 49 49 49 49 49 49 49 50 52 57 60 62 64 64 64
64 62 62 66 62 61 59 59 59 60 59 59 58 59 60 57 56 55 56 55 55 54 54 52 50 47 47 47 47 46 46 48 49 49 49 50 50 52 54 60 61 62 63
65 63 62 62 59 58 57 57 57 57 57 57 58 59 58 56 55 57 54 52 53 52 52 53 49 47 46 46 49 45 44 45 47 51 48 48 49 49 50 56 58 59 61
62 61 60 58 57 56 56 55 55 55 55 55 55 55 55 55 55 53 54 51 52 50 48 48 47 45 45 45 50 47 43 44 44 45 46 49 48 48 48 49 48 49 55
59 59 58 57 56 57 56 54 53 53 53 53 57 57 57 56 54 53 51 50 50 49 48 48 46 45 44 43 43 43 42 43 43 43 44 45 46 47 47 48 47 47 47
59 59 58 58 57 57 59 54 55 53 53 54 56 56 55 55 54 53 51 50 49 47 47 46 45 43 43 42 41 39 38 41 42 43 42 45 43 44 46 47 46 47 45
59 58 59 58 57 58 57 56 54 54 53 52 51 52 53 54 53 52 51 49 47 47 46 45 44 44 42 42 42 41 36 35 36 40 41 41 42 42 42 43 44 45 45
59 58 59 58 58 57 57 56 56 54 53 53 51 51 52 53 52 52 50 48 47 46 47 45 48 43 42 41 41 43 40 39 36 34 38 40 40 42 41 41 42 43 43
57 57 57 57 58 58 58 57 57 56 52 51 50 51 50 50 51 50 49 48 50 46 47 45 43 42 41 40 39 39 38 36 36 34 31 35 38 40 42 40 40 40 41
56 55 56 57 58 58 57 57 57 54 51 49 49 48 48 48 48 49 52 50 46 49 48 44 42 42 40 39 39 38 38 37 36 34 31 32 33 37 39 39 39 39 39

GFSSE_sfc_temp_069.txt.gz
Temp
74 79 73 74 74 74 74 74 74 74 74 75 75 75 75 75 74 75 75 75 76 76 77 76 76 76 76 76 75 74 74 74 74 75 75 75 76 75 74 74 76 80 74
75 79 73 74 74 74 74 74 74 74 74 75 74 74 74 74 74 75 75 75 76 77 77 76 76 76 76 75 74 73 73 72 72 73 74 74 74 74 74 73 73 77 74
75 79 78 73 74 74 74 74 74 75 75 75 74 74 74 74 74 75 75 75 76 77 76 76 75 75 75 74 73 73 72 71 71 71 74 81 79 74 74 73 73 73 73
76 79 78 72 73 74 74 74 74 75 74 74 74 74 74 74 74 75 75 75 76 76 76 76 75 75 74 73 72 72 71 71 70 72 80 81 80 74 73 73 72 72 73
76 78 77 72 73 74 74 74 74 74 74 74 74 74 74 74 74 74 74 74 75 76 76 76 74 74 72 71 71 71 70 70 70 76 80 79 80 75 73 73 73 72 71
73 77 73 71 72 73 74 74 73 73 73 73 73 74 74 74 74 74 74 74 74 75 75 74 73 72 70 70 69 69 69 68 72 80 79 76 78 73 73 72 71 71 70
72 76 75 70 72 73 73 73 72 72 72 72 73 73 73 73 73 73 73 73 73 73 73 73 71 70 70 69 69 68 67 68 78 78 78 78 77 73 73 71 71 70 70
70 74 75 72 72 72 72 72 71 71 71 71 72 72 72 72 71 71 71 71 71 71 71 71 70 70 69 69 68 67 67 69 76 77 78 78 73 73 72 71 70 70 70
70 70 68 72 72 70 69 69 69 70 70 70 70 70 70 69 70 70 70 71 71 70 70 70 69 68 69 68 67 66 65 66 76 76 76 78 71 72 72 71 70 69 69
68 67 66 67 67 67 69 68 68 68 68 69 69 68 68 68 69 69 69 70 70 70 69 69 68 67 66 66 65 64 64 67 75 75 75 74 71 72 71 70 69 69 69
65 65 65 64 64 65 67 69 69 68 68 68 69 67 67 72 72 73 69 69 69 68 68 67 66 65 65 64 64 64 66 73 73 74 75 67 71 71 70 69 68 68 68
62 63 64 63 65 64 68 67 69 70 71 70 71 70 70 71 73 73 69 67 67 67 67 66 65 65 68 72 71 67 71 70 72 72 73 66 69 72 69 68 68 67 67
61 62 63 64 65 65 66 67 67 70 70 69 69 71 71 71 71 70 69 69 69 67 69 69 70 70 68 69 68 68 68 69 70 71 68 63 66 70 69 68 67 67 66
60 60 62 63 64 65 66 67 66 67 69 69 70 70 68 69 68 67 67 64 66 69 67 68 67 65 65 65 65 64 65 67 69 69 68 60 62 67 69 68 67 66 66
59 62 61 62 64 65 66 65 66 67 69 70 70 71 69 67 63 63 63 67 66 68 67 67 67 66 65 64 64 64 64 64 65 67 68 60 62 65 68 68 67 66 65
60 62 63 62 67 65 65 66 67 69 70 71 69 70 68 65 63 64 64 65 66 67 67 67 66 65 64 65 63 63 63 64 64 64 67 66 60 62 64 66 66 66 65
64 67 65 67 67 66 66 67 68 69 68 67 68 67 65 64 64 65 65 66 66 65 63 63 63 64 64 64 62 62 63 62 64 64 66 65 66 60 61 63 65 65 64
66 67 69 70 68 67 68 69 69 69 66 66 66 66 66 66 66 65 65 65 65 65 63 64 64 62 62 64 62 62 63 63 62 63 64 64 65 66 63 60 61 62 63
68 68 67 68 66 66 66 66 66 66 65 65 65 66 63 65 64 66 64 64 65 64 64 63 61 63 62 63 63 62 62 63 62 64 62 62 62 63 65 59 57 57 58
69 69 68 66 65 65 64 64 64 64 64 64 64 65 66 64 64 63 65 63 65 62 61 62 61 61 62 62 62 61 60 60 62 62 62 63 62 61 63 61 62 62 55
68 68 67 65 64 64 63 62 62 62 62 62 64 65 62 63 61 64 64 62 62 62 62 61 61 60 60 60 60 60 58 57 57 60 61 61 61 61 60 60 61 62 62
69 67 66 66 64 65 68 67 66 64 63 64 65 63 62 60 63 64 62 62 62 61 60 60 60 59 59 58 58 56 54 56 57 58 58 58 58 60 59 58 57 58 58
66 65 66 67 66 66 66 64 62 61 61 61 62 60 62 62 64 62 62 62 61 62 61 59 58 58 57 57 55 56 52 51 52 58 55 56 56 57 57 57 56 56 56
66 67 68 66 65 65 64 63 62 62 58 61 60 59 62 63 62 62 61 61 61 60 59 59 58 57 57 56 56 56 54 53 50 49 56 56 55 55 55 56 55 55 54
66 64 65 65 65 64 64 64 62 60 60 60 58 60 60 61 62 61 61 60 59 58 56 56 56 55 58 57 55 55 53 53 51 48 46 50 54 55 56 55 54 54 53
64 63 63 64 64 63 63 63 62 60 58 59 60 59 60 61 61 60 60 58 56 56 53 53 54 53 55 55 55 53 52 50 50 48 46 48 48 51 53 54 53 53 53

GFSSE_sfc_temp_072.txt.gz
Temp
82 84 73 74 75 74 74 74 74 74 75 75 75 75 75 75 75 75 75 75 76 77 77 77 77 77 77 76 75 75 74 74 74 75 75 76 76 75 75 74 77 82 74
84 85 73 74 74 74 74 74 74 74 75 75 75 74 74 75 75 75 75 76 76 77 77 77 77 77 76 75 74 73 73 72 73 73 74 75 75 75 74 73 73 78 74
84 85 82 73 73 74 74 74 75 75 75 75 74 74 74 75 75 75 75 76 76 77 77 77 77 76 75 74 73 73 72 72 72 73 77 86 81 74 74 73 73 73 73
85 86 85 72 73 74 74 74 74 75 75 74 74 74 74 75 75 75 75 75 76 76 77 77 76 76 74 73 72 72 71 71 71 73 87 86 83 74 74 73 72 72 74
83 86 83 72 73 74 74 74 74 74 73 73 74 74 74 75 75 75 74 74 75 76 76 76 76 74 72 71 71 71 71 71 72 81 87 85 84 76 73 72 74 72 71
80 84 74 71 72 73 74 74 73 73 73 73 73 74 74 75 75 74 74 74 75 75 75 76 74 72 70 70 70 70 70 71 73 87 85 80 80 73 73 71 71 71 70
76 81 79 70 71 73 74 73 73 72 72 73 73 73 73 74 74 73 73 73 73 73 73 73 72 71 70 69 69 68 69 71 85 86 85 84 78 73 72 71 71 71 70
78 78 79 71 72 72 73 72 71 71 72 72 72 72 72 72 72 72 71 71 71 71 71 71 70 70 70 69 68 67 68 70 82 84 84 83 73 72 72 71 70 70 70
74 76 74 74 72 68 68 69 70 70 70 71 71 70 70 70 70 70 70 71 71 71 70 70 70 69 68 68 67 66 66 69 83 83 84 83 71 72 72 71 70 70 69
67 68 67 66 66 68 68 68 68 68 69 69 69 69 68 69 69 69 69 70 70 70 69 68 68 67 67 66 65 66 67 70 82 82 83 78 72 71 71 70 70 69 69
65 65 64 63 63 66 69 69 69 68 68 68 69 68 70 76 78 77 70 69 69 68 68 67 66 66 65 64 65 67 70 81 81 82 81 67 71 71 70 69 69 68 68
62 62 62 62 61 61 65 68 71 71 76 77 76 77 79 78 81 79 71 67 67 67 66 66 67 68 72 81 78 73 79 78 80 80 77 65 68 71 69 69 68 67 67
62 62 62 62 62 62 62 63 66 71 73 75 76 79 77 78 77 79 75 76 75 72 76 75 76 79 76 78 76 75 76 77 78 79 70 63 65 69 70 68 67 67 66
62 63 63 62 64 64 65 68 69 71 73 73 74 76 76 78 77 77 78 77 74 77 74 75 75 73 73 73 73 72 73 76 77 79 70 62 64 67 69 68 67 67 66
59 59 60 63 64 65 66 68 70 71 72 74 73 76 79 78 76 76 74 73 76 75 77 75 74 74 72 72 73 72 72 72 72 76 75 61 63 66 68 68 67 66 65
60 60 61 60 63 64 68 70 71 72 73 74 75 77 76 77 73 70 70 74 75 77 77 76 75 74 74 73 71 70 70 72 71 71 75 70 61 62 65 66 67 66 66
60 61 62 63 67 69 71 73 73 74 76 77 75 73 71 69 70 71 74 75 76 74 71 73 72 73 74 74 70 71 73 71 71 70 73 73 70 60 61 62 64 65 65
67 66 70 72 72 71 72 73 74 76 76 75 75 75 73 73 73 73 74 74 73 73 73 73 73 72 72 73 72 73 73 73 70 70 71 72 71 73 62 60 60 60 61
73 73 72 73 72 72 73 75 76 75 75 73 71 75 73 73 73 74 74 72 72 73 72 72 71 73 71 73 73 72 71 72 71 73 69 69 68 69 70 59 59 59 58
74 75 74 73 71 73 72 72 74 74 71 70 72 73 71 73 72 73 73 72 74 72 71 70 69 71 72 71 71 70 68 69 69 69 68 69 69 66 68 66 67 67 58
74 74 74 73 73 73 72 73 73 69 67 68 70 71 70 66 71 73 74 71 72 71 70 68 69 67 69 70 66 68 68 65 64 66 68 67 67 66 65 66 65 67 67
73 73 74 74 73 74 76 76 75 73 68 69 74 68 70 69 70 71 71 71 71 70 68 67 67 68 69 68 63 63 61 65 64 65 66 65 64 66 65 65 63 62 63
73 73 75 76 77 76 77 77 75 74 71 70 70 65 66 66 69 72 71 71 69 70 68 67 66 65 66 66 63 62 59 58 61 67 63 64 62 63 64 64 63 62 61
75 77 78 78 77 76 76 75 71 72 70 71 68 67 66 66 70 71 71 70 69 70 68 67 67 66 63 63 66 64 61 60 56 55 65 63 62 61 61 62 63 62 61
77 77 77 77 76 75 74 73 72 72 71 67 59 59 65 67 70 71 70 69 68 69 67 64 63 62 65 62 63 62 61 60 59 54 52 57 62 63 63 62 62 61 60
76 74 73 74 73 74 72 71 71 70 66 63 58 58 65 69 69 68 70 68 68 65 64 62 57 55 59 62 62 61 59 57 56 55 53 54 55 59 62 61 60 60 60

GFSSE_sfc_temp_075.txt.gz
Temp
85 84 74 75 75 74 74 74 74 74 75 75 75 75 75 75 75 75 75 76 76 77 78 77 77 77 77 76 75 74 74 74 74 75 75 75 76 75 75 74 77 80 74
85 85 73 74 74 74 74 74 74 74 75 75 75 75 74 75 75 75 75 76 77 77 78 77 77 76 75 75 74 73 73 73 73 74 74 75 74 75 74 73 73 76 73
83 86 82 73 74 74 74 75 75 75 75 75 74 74 75 75 75 75 76 76 76 77 77 77 77 76 75 74 73 73 73 73 73 74 78 83 78 74 74 73 73 73 73
85 86 84 72 73 74 74 74 75 75 75 74 74 75 75 75 75 75 75 75 76 77 77 77 76 75 74 73 72 72 72 73 73 75 86 85 81 73 74 74 72 72 74
84 86 83 72 73 74 74 74 74 74 74 74 74 74 75 75 75 75 74 74 75 77 77 77 75 74 72 71 71 71 72 73 73 83 85 83 81 75 73 72 73 72 71
84 86 74 71 72 73 74 74 73 73 73 73 73 74 75 75 75 74 74 74 75 76 77 75 73 72 70 70 70 71 71 72 72 88 84 79 78 73 72 71 71 70 70
83 80 78 70 72 73 73 73 72 72 72 72 73 73 74 74 74 73 72 73 73 74 75 73 72 71 70 69 69 70 70 71 86 86 85 81 76 72 72 71 70 70 70
78 77 77 72 72 72 72 72 71 71 72 72 72 73 73 72 72 71 71 71 72 72 72 71 70 70 69 69 68 68 68 70 84 85 85 79 72 72 72 71 70 70 69
72 72 73 73 72 70 69 69 70 70 70 71 71 70 70 70 70 70 71 71 71 71 70 70 69 68 68 68 67 67 69 70 84 84 84 80 71 72 71 71 70 70 69
67 68 69 69 71 69 69 67 67 68 69 69 69 68 68 69 69 69 70 70 70 70 70 69 68 67 67 66 67 68 69 71 83 84 79 74 71 71 71 70 70 69 69
64 64 66 64 65 66 67 68 68 68 68 68 68 68 70 74 74 75 68 69 69 68 68 68 67 66 66 66 67 68 68 82 83 82 77 66 71 71 70 69 69 68 68
62 62 63 63 63 64 65 68 70 73 75 75 74 76 79 77 78 77 69 67 67 67 67 67 67 66 70 79 78 72 80 79 81 81 72 65 68 71 69 68 68 68 67
62 61 62 63 62 62 64 65 67 75 76 75 74 76 78 78 76 75 73 75 74 72 75 75 73 79 78 79 77 76 78 79 79 80 68 64 67 70 70 68 68 67 67
61 60 61 63 62 61 66 64 67 68 73 72 74 75 74 74 75 75 77 77 76 79 77 77 76 74 75 75 75 74 74 76 77 78 66 63 66 68 69 68 67 67 66
60 60 60 61 62 61 63 64 67 67 72 73 74 75 75 75 73 75 77 78 79 77 76 76 75 76 74 74 75 74 74 73 74 77 72 62 63 66 69 68 68 67 66
58 58 59 59 61 62 63 65 65 69 72 74 72 75 76 73 70 72 74 76 75 77 79 77 76 76 76 74 72 72 72 74 73 73 76 67 62 63 65 66 67 66 66
58 58 58 57 59 59 60 63 68 72 75 74 73 75 76 73 73 73 74 74 77 78 75 75 75 75 75 75 72 73 74 72 73 72 74 74 66 61 62 63 63 64 64
60 59 60 61 60 60 65 71 72 76 74 74 75 73 74 73 73 74 75 76 76 74 75 75 74 73 73 74 73 74 73 73 72 71 72 72 71 72 61 61 61 61 61
65 61 60 62 62 66 73 74 75 75 73 71 72 71 74 74 75 77 77 76 74 75 74 74 73 73 71 73 73 72 72 72 71 74 70 70 69 69 70 61 61 61 60
71 70 69 67 67 70 71 73 74 74 72 72 71 73 73 76 75 77 77 74 75 74 73 73 71 72 73 72 73 72 70 70 71 70 69 71 70 68 68 67 66 66 60
74 74 74 73 70 71 71 73 74 74 70 69 71 74 74 75 75 75 76 73 75 73 72 70 70 68 69 71 67 69 70 68 66 68 69 69 68 68 68 66 66 67 66
74 75 75 76 74 74 78 77 77 77 72 73 75 72 73 69 69 75 75 73 73 72 69 69 69 68 70 69 64 64 62 66 66 67 68 67 66 67 66 67 66 64 64
74 74 76 75 75 75 79 80 79 76 74 69 70 71 72 72 74 75 74 73 72 72 69 68 68 68 67 68 65 62 59 59 61 67 66 66 65 64 65 65 65 65 64
76 77 77 78 75 75 75 78 76 71 70 72 71 71 66 65 69 72 74 73 71 71 70 68 69 68 66 64 63 66 64 61 55 54 64 65 66 63 63 64 64 64 64
77 77 77 79 80 79 77 75 77 75 75 73 69 69 64 63 67 72 73 71 70 70 69 68 65 63 65 58 55 62 63 62 61 56 53 58 64 65 66 65 64 63 63
80 78 79 79 80 80 74 74 75 74 75 71 67 64 64 62 66 71 72 70 70 69 67 65 62 61 55 59 63 62 60 58 57 57 54 56 56 59 63 63 63 62 61

GFSSE_sfc_temp_078.txt.gz
Temp
79 78 74 75 74 74 74 74 74 74 74 75 75 75 75 75 75 75 76 76 77 78 78 77 77 76 76 76 75 74 74 74 74 74 75 75 75 75 74 74 74 74 74
79 79 74 74 74 74 74 74 74 74 75 75 75 74 74 74 75 75 75 76 77 78 77 77 76 76 76 75 74 73 73 73 73 74 75 74 74 74 73 73 73 73 73
79 78 77 74 74 74 74 74 75 75 75 75 74 74 74 75 75 75 75 76 76 77 77 77 76 76 75 74 73 73 73 73 73 75 75 73 72 74 73 72 72 73 73
80 79 77 73 74 74 74 74 74 75 75 74 74 74 74 75 75 75 75 75 76 77 77 76 76 75 74 72 72 73 73 73 73 74 77 75 74 73 73 73 72 72 72
78 81 77 72 73 74 74 74 74 74 74 74 74 74 74 75 75 75 74 74 76 76 77 76 75 73 72 71 71 72 72 72 73 77 73 72 71 73 72 71 71 70 70
78 80 71 71 72 73 74 74 73 73 73 73 73 74 74 74 74 74 74 74 75 76 76 74 73 71 70 70 70 71 71 71 71 76 73 72 70 72 72 71 70 70 70
76 73 73 70 72 73 74 73 72 72 72 72 73 73 74 73 73 73 72 73 74 74 74 72 71 70 70 69 70 69 70 70 75 76 72 69 69 72 72 71 70 70 69
72 74 73 72 72 72 72 72 71 71 71 72 72 72 72 72 71 71 71 72 72 72 71 71 70 69 69 69 69 69 69 69 78 76 71 69 71 72 71 71 70 69 69
65 71 72 72 72 70 69 69 69 70 70 71 71 70 70 70 70 70 70 71 71 70 70 70 69 68 68 68 69 68 68 69 70 73 74 68 71 71 71 70 70 69 69
62 63 65 69 69 68 68 67 67 68 68 68 69 68 68 69 69 69 69 70 70 70 69 69 68 67 67 67 68 68 69 68 70 70 67 65 71 71 70 70 69 69 69
62 64 65 64 65 67 68 68 68 68 68 68 68 68 68 71 70 70 68 68 69 69 68 68 67 66 67 67 68 69 69 69 70 68 64 66 70 71 70 69 69 68 68
62 63 63 63 63 66 67 67 68 70 70 70 70 69 70 69 70 69 67 67 67 67 67 67 67 67 68 67 67 68 68 69 68 65 61 66 69 71 69 69 68 68 68
61 60 61 62 63 62 63 63 63 65 68 68 68 70 69 70 68 66 66 67 65 67 68 67 66 67 69 67 67 65 66 67 65 63 62 65 68 70 69 68 68 67 67
60 60 60 61 61 60 61 60 63 67 65 67 70 69 69 67 67 66 69 67 67 67 67 67 66 67 66 68 67 65 65 64 63 61 60 63 66 69 69 68 67 67 66
59 60 60 61 61 61 61 63 65 65 68 68 69 70 69 68 66 67 68 68 69 68 67 66 66 66 66 66 65 66 65 64 64 63 58 62 64 67 69 69 68 67 66
59 58 60 60 60 61 61 62 62 65 66 67 67 69 70 67 66 66 67 68 67 68 68 67 65 65 64 64 63 64 64 63 64 63 60 57 62 64 65 66 67 67 66
57 58 58 58 59 58 58 58 61 64 66 66 67 68 68 68 67 67 66 66 66 68 66 66 65 64 63 65 63 63 63 64 63 63 61 59 58 61 62 64 64 63 64
58 58 59 60 58 58 58 57 59 63 66 66 66 67 68 69 67 67 67 66 67 65 65 63 62 61 61 61 61 61 62 62 63 62 62 60 59 60 60 62 62 62 62
59 59 59 59 58 58 59 59 62 66 65 65 66 66 69 68 68 66 66 66 66 65 63 64 62 61 60 61 62 60 60 59 61 66 62 61 59 59 57 60 61 61 62
60 60 59 60 60 60 59 62 66 66 67 67 66 66 68 69 69 67 67 65 66 64 63 62 61 61 60 59 67 63 59 59 59 58 59 63 60 59 59 58 55 56 60
61 61 62 62 62 61 61 64 66 66 64 64 66 68 68 69 69 68 67 65 64 63 62 62 60 59 58 59 56 57 57 58 57 56 57 57 59 60 58 57 55 54 55
63 63 64 65 64 65 65 70 70 69 67 65 67 67 68 68 68 68 66 65 64 62 60 60 59 58 58 58 53 53 49 52 54 57 55 57 55 57 58 59 57 57 55
66 66 68 68 68 69 69 71 71 69 66 65 64 66 68 65 64 64 67 65 63 62 59 59 59 59 55 57 57 52 48 46 48 53 53 54 54 53 54 56 57 57 56
69 70 71 72 70 71 71 71 69 68 65 66 65 67 67 65 65 68 69 65 63 62 60 59 62 58 57 53 56 60 55 52 45 43 51 52 53 54 53 52 53 55 56
71 70 71 73 72 72 71 69 69 66 66 66 66 65 62 62 62 62 64 65 63 62 61 60 58 57 56 54 52 54 54 51 49 45 42 46 51 53 52 51 51 51 55
72 70 71 73 73 72 71 70 68 68 67 66 64 62 61 61 61 62 65 64 62 62 61 58 57 55 53 53 54 54 51 49 47 45 42 44 44 48 50 51 50 50 50

GFSSE_sfc_temp_081.txt.gz
Temp
71 75 74 75 75 74 74 74 74 74 74 75 75 75 75 75 75 76 76 76 76 77 77 77 77 77 77 76 75 74 74 73 73 74 74 74 75 74 73 73 73 73 74
71 75 73 74 74 74 74 74 74 74 75 75 75 75 75 75 75 76 76 76 76 77 77 77 77 77 76 75 74 73 73 73 73 73 73 74 74 73 73 72 72 72 73
68 67 75 73 74 74 74 74 75 75 75 75 75 75 75 75 75 75 76 76 76 77 77 77 77 76 75 74 73 73 73 73 73 72 72 70 71 73 72 72 72 72 73
71 69 72 73 74 74 74 74 75 75 75 75 75 75 75 75 75 75 76 75 76 76 77 77 77 76 74 72 72 72 72 72 73 72 70 70 72 72 72 71 71 72 72
69 68 66 71 73 74 74 74 74 74 74 74 74 75 75 75 75 75 75 75 76 76 76 76 76 74 72 71 71 71 71 71 72 71 67 66 69 72 72 71 70 70 70
67 68 66 70 73 74 74 74 73 73 73 73 73 74 74 75 75 74 74 75 75 76 75 75 74 72 70 70 70 70 70 71 70 68 68 69 68 72 71 70 70 70 69
69 70 70 71 72 73 74 73 73 72 72 73 73 73 74 74 74 73 73 74 74 74 73 73 72 70 70 70 70 69 70 71 70 67 66 64 68 71 71 70 70 69 69
63 69 70 71 72 73 72 72 71 71 72 72 72 72 72 72 72 73 73 72 72 71 71 71 70 70 69 70 69 68 67 70 71 67 65 65 70 71 71 70 69 69 69
63 62 63 71 72 70 70 70 70 70 70 70 70 70 70 70 70 71 71 71 71 70 70 70 69 69 69 69 69 67 67 69 66 66 68 64 70 71 71 70 69 69 68
63 62 62 65 69 68 68 69 68 68 68 69 69 68 68 68 69 69 70 70 70 70 70 69 68 68 69 69 68 67 67 67 62 62 61 65 70 70 70 70 69 69 68
62 61 62 63 66 67 68 68 68 68 68 68 68 67 67 68 67 68 69 69 69 69 69 68 68 67 67 69 68 67 67 64 62 59 59 68 70 70 70 69 68 68 68
60 61 63 64 65 66 67 67 68 69 67 68 68 67 68 66 67 67 67 68 68 68 68 68 67 67 67 65 64 65 62 62 60 58 58 67 70 70 69 68 68 68 67
62 62 63 63 65 65 65 65 64 66 68 67 66 68 67 66 64 64 64 64 64 66 65 65 64 65 65 63 62 61 61 60 57 57 62 66 69 70 69 68 68 67 67
60 60 61 61 61 60 61 61 63 64 64 65 68 66 66 65 63 64 64 63 63 63 62 62 61 62 63 64 63 62 61 57 55 56 60 65 67 70 69 68 67 67 66
58 59 59 59 59 60 61 63 65 66 68 65 66 66 67 65 64 63 63 63 63 63 62 61 62 63 62 62 61 61 61 60 58 56 54 63 65 68 69 69 67 67 66
58 58 59 59 58 60 60 61 61 64 63 64 64 65 65 64 62 62 64 64 63 64 64 63 62 61 60 61 60 61 60 59 57 56 55 56 63 65 67 68 67 67 66
58 58 59 58 60 59 58 60 62 63 64 63 64 66 65 64 64 64 62 62 63 63 63 63 61 59 58 61 60 60 60 59 59 57 56 55 57 62 63 65 65 64 64
58 57 58 60 58 58 58 58 60 60 61 62 64 63 63 65 66 62 61 61 62 61 61 60 59 57 57 56 56 55 56 58 59 59 56 55 54 57 60 62 63 63 63
58 58 57 58 58 57 57 57 59 60 61 62 62 62 65 65 65 63 61 61 61 61 60 61 58 57 56 55 57 55 56 55 58 62 58 56 54 54 53 60 61 61 62
59 60 59 60 59 57 57 59 62 61 62 62 61 63 65 65 66 63 62 61 61 61 59 58 58 56 56 55 63 59 54 55 55 54 56 59 55 54 53 54 53 54 60
59 58 58 56 56 56 55 57 60 61 60 61 62 65 65 65 66 62 62 60 61 59 58 58 55 55 54 54 53 52 53 53 54 53 53 54 55 56 54 52 51 51 54
56 57 58 57 56 58 57 60 61 63 62 63 63 63 64 64 63 62 62 61 61 59 57 56 56 54 53 53 51 49 47 50 51 54 52 54 52 54 56 55 53 52 50
56 56 59 59 58 60 61 62 63 61 60 61 61 62 63 63 62 63 63 62 60 57 56 55 55 55 52 52 54 51 46 44 46 49 50 50 51 50 51 53 54 54 52
57 60 62 63 61 61 63 63 63 63 61 61 60 61 61 61 61 62 63 63 61 59 58 56 58 54 53 51 51 55 52 49 44 42 47 48 50 51 49 48 50 52 52
61 61 63 64 64 64 65 63 64 60 63 60 60 60 59 59 60 61 61 60 61 58 57 57 55 54 53 50 49 50 52 48 46 44 41 45 48 49 49 48 47 47 51
64 63 65 66 66 66 66 66 63 64 62 62 60 59 58 57 57 59 60 60 60 59 58 58 54 52 51 51 51 50 51 47 48 43 40 40 42 45 47 46 45 46 47

GFSSE_sfc_temp_084.txt.gz
Temp
71 74 74 75 74 74 74 74 74 74 75 75 75 75 76 76 76 76 76 76 76 77 77 77 77 77 76 76 75 73 73 73 73 74 74 74 74 74 73 73 73 72 74
70 74 73 74 74 74 74 74 74 74 75 75 75 75 75 75 75 76 76 76 76 77 77 77 76 76 76 74 73 73 72 72 72 72 72 73 73 73 72 72 72 72 73
69 74 75 73 73 74 74 74 74 75 75 75 75 75 75 75 76 76 76 76 76 77 77 77 76 76 75 74 73 73 72 72 71 71 71 68 69 72 72 72 72 73 73
70 74 75 72 73 74 74 74 74 75 75 75 75 75 75 75 76 76 75 75 76 77 77 77 76 75 74 72 72 72 72 71 70 70 68 68 71 72 72 71 72 72 72
68 68 73 71 72 73 74 74 74 74 74 74 74 75 75 75 75 75 74 74 75 77 77 76 75 74 72 71 71 71 71 70 69 68 64 64 67 71 71 70 70 70 70
68 68 67 71 70 72 74 74 74 74 73 73 73 74 75 75 75 75 74 74 75 76 76 75 73 72 70 70 70 71 70 68 67 64 65 68 67 71 70 70 69 69 69
65 66 66 67 72 73 74 73 73 73 72 73 73 73 74 74 74 74 73 73 74 74 74 73 72 71 70 70 70 69 68 68 66 65 62 62 67 71 70 70 69 68 68
63 66 68 68 69 72 73 72 72 72 72 72 72 73 73 73 73 73 72 72 72 72 71 71 70 70 70 70 69 69 68 68 67 64 63 64 70 70 70 69 69 68 68
63 63 63 64 67 68 69 70 70 70 70 71 71 71 71 71 71 71 71 71 71 70 70 70 69 69 70 69 68 67 67 67 62 64 66 64 70 70 70 70 69 68 67
63 63 62 62 63 68 68 68 68 69 69 69 69 68 68 68 69 70 70 70 70 70 70 70 69 69 69 68 67 66 65 64 58 59 61 65 70 70 70 69 69 68 67
61 61 61 64 65 66 68 68 68 68 68 67 67 67 67 70 70 68 68 69 70 69 69 69 69 67 67 67 66 65 64 59 59 58 59 68 70 70 69 69 68 68 67
59 60 63 65 66 66 67 67 67 68 67 66 66 66 66 67 68 68 68 68 68 68 68 68 67 67 65 63 62 64 60 58 57 57 59 68 70 70 69 68 68 67 67
61 61 64 64 65 65 64 65 65 67 66 65 66 66 66 65 64 66 66 66 65 66 66 65 63 62 63 62 61 59 58 56 54 56 62 67 69 70 69 68 68 67 67
61 61 62 63 64 64 63 61 63 65 65 65 66 65 64 63 62 62 63 61 61 61 61 60 60 60 60 61 60 58 57 54 54 55 59 65 67 69 69 68 67 67 66
59 58 59 61 61 62 62 62 65 65 66 67 66 65 65 64 62 62 61 60 60 61 60 60 60 61 60 59 59 59 57 56 55 55 54 64 66 68 69 68 67 67 66
58 57 59 59 59 60 59 61 61 63 63 63 64 64 64 62 60 60 61 60 61 61 60 60 60 59 59 59 58 59 57 56 56 55 54 56 63 65 67 68 68 67 66
58 58 57 58 60 60 60 61 65 63 63 63 63 64 64 63 62 61 61 60 61 60 60 60 59 58 57 59 58 58 57 56 56 54 54 54 57 62 64 66 65 65 65
58 57 58 60 58 59 59 61 61 61 61 62 62 63 64 63 62 60 59 60 60 60 59 58 57 56 55 55 54 55 55 56 55 54 54 54 53 56 60 63 64 64 64
58 58 57 58 57 57 58 59 59 60 60 61 62 62 63 64 63 61 59 59 59 58 58 58 55 55 52 52 54 52 52 53 55 58 54 54 53 53 52 60 62 62 63
58 58 57 58 58 58 58 58 58 58 61 61 61 62 63 62 62 60 59 59 58 58 57 56 56 54 53 53 60 56 51 52 52 52 53 56 53 53 52 53 53 54 60
58 58 58 58 57 57 58 58 58 59 60 59 60 62 61 61 62 61 60 58 59 59 57 57 54 54 51 52 52 50 50 50 51 50 51 51 52 53 51 51 49 49 52
58 58 59 58 56 57 59 62 62 63 57 58 60 60 62 63 63 62 61 60 61 59 56 55 54 52 52 51 50 47 47 50 50 52 50 51 50 52 52 52 50 51 50
56 55 56 57 56 57 58 57 57 57 57 57 58 58 60 63 62 63 61 60 60 60 57 55 54 54 51 50 51 50 43 43 43 47 49 48 49 49 50 51 52 52 50
54 55 57 57 57 58 58 58 57 59 58 58 58 60 59 61 61 62 62 61 60 57 55 56 57 53 52 50 49 52 49 47 43 43 47 47 48 49 47 47 48 50 50
56 55 56 58 58 59 58 58 58 57 58 58 58 58 59 59 60 61 60 59 57 57 56 56 54 53 52 50 49 49 48 46 45 43 41 44 46 46 46 46 45 46 48
58 57 57 58 59 59 59 60 59 59 59 59 60 59 59 59 59 59 61 59 59 57 56 59 57 52 51 50 50 50 48 46 45 43 42 41 43 45 45 45 45 45 45

GFSSE_sfc_temp_087.txt.gz
Temp
69 72 73 75 75 74 73 73 74 74 75 75 75 75 75 75 75 75 75 76 76 77 77 77 76 76 76 75 74 73 73 73 73 73 74 74 74 74 73 73 72 72 73
72 72 72 73 74 74 73 74 74 74 75 75 75 75 75 75 75 75 75 75 76 77 77 76 76 75 75 74 73 72 72 71 71 72 72 72 73 73 73 73 72 72 73
71 72 73 72 73 74 74 74 75 75 75 75 75 75 75 75 75 75 75 76 76 77 76 76 75 75 74 73 72 72 71 71 71 71 70 67 69 72 73 72 72 73 73
70 73 72 72 73 73 74 74 74 75 75 75 75 75 75 75 75 75 75 75 76 76 76 76 75 74 73 72 72 71 70 70 69 68 66 67 70 72 72 72 72 72 72
68 68 72 72 73 73 73 74 74 74 74 74 74 75 75 75 75 75 75 75 75 76 76 76 75 73 72 71 71 70 70 69 68 66 61 63 67 70 71 70 69 70 70
66 66 70 70 72 73 72 73 74 73 73 73 74 75 75 75 75 74 74 75 75 75 75 74 73 71 70 70 70 69 68 68 66 60 63 67 66 71 70 69 69 69 69
64 64 67 69 70 72 73 72 72 73 73 73 73 74 74 74 74 73 73 74 74 74 74 73 72 70 70 69 69 68 67 67 62 61 60 60 66 70 70 69 68 68 68
63 64 65 68 70 71 72 71 70 71 72 72 73 73 73 73 73 72 72 72 72 72 72 71 70 70 69 69 68 67 67 67 64 61 60 63 69 70 70 69 68 67 67
63 63 63 63 68 70 70 70 69 70 71 71 72 72 72 71 71 71 71 71 71 71 71 70 70 69 69 68 67 66 66 65 59 61 65 62 70 70 70 69 68 67 67
63 63 61 63 65 67 69 69 68 68 69 70 70 69 69 69 69 70 70 70 70 70 71 70 69 68 68 67 66 65 64 64 58 59 60 65 69 70 70 69 68 67 67
61 61 61 61 61 66 67 67 68 68 68 68 68 67 67 70 68 67 68 69 70 70 69 69 68 66 66 66 65 64 63 58 58 58 59 68 70 70 69 68 68 67 67
59 59 62 63 63 62 66 66 66 66 68 69 70 69 71 70 67 67 67 68 68 68 68 68 67 66 64 61 62 61 57 57 57 58 60 68 70 69 69 68 67 67 66
58 60 63 62 64 63 63 65 64 64 65 66 67 70 70 68 67 66 65 65 66 65 65 64 63 62 59 58 56 55 56 57 55 56 62 67 69 69 69 68 67 67 66
60 61 62 61 63 63 65 64 64 63 64 65 66 67 66 66 64 65 63 61 62 61 60 59 59 58 58 58 57 56 55 54 53 54 59 65 68 69 69 68 67 66 66
59 59 60 62 63 62 62 61 61 61 65 65 64 64 65 64 63 63 59 60 61 58 58 58 58 59 58 58 56 55 55 54 54 53 54 64 66 68 69 68 67 66 66
58 58 59 59 62 62 62 60 60 63 63 64 63 63 64 63 61 61 58 59 58 58 58 60 58 57 56 56 55 56 55 54 54 54 55 59 64 66 67 68 67 66 66
58 58 58 59 60 60 60 60 60 63 63 63 63 62 62 61 61 63 59 60 59 58 58 57 57 55 55 57 55 55 54 54 54 54 54 55 57 63 64 66 66 66 66
57 57 59 61 59 60 60 60 61 62 62 63 63 62 62 62 62 60 58 58 58 58 58 57 55 54 53 53 53 53 53 53 53 53 53 53 53 56 61 63 64 65 64
57 57 57 58 58 59 59 58 59 59 61 61 61 62 62 63 61 61 58 57 58 57 56 57 54 54 52 51 52 50 50 50 52 56 52 52 51 52 52 61 62 62 63
57 57 57 57 58 58 58 57 57 58 59 60 61 61 62 63 62 59 58 57 57 56 55 55 54 52 52 51 57 53 49 50 50 49 51 54 51 52 52 53 53 54 61
57 57 57 56 57 58 57 58 58 56 57 58 60 62 62 62 61 59 58 57 56 57 56 55 53 52 50 50 49 48 48 49 49 48 49 50 51 52 50 50 49 49 52
56 57 57 57 57 58 59 62 61 60 59 59 60 61 62 61 60 60 59 57 57 56 55 54 54 51 51 50 48 46 45 48 47 49 48 49 48 50 50 51 49 49 49
56 57 58 57 57 59 61 62 60 59 57 57 59 59 60 61 61 61 60 59 58 58 56 54 53 54 50 48 49 49 43 43 43 46 47 46 47 46 48 49 50 50 48
57 56 56 56 56 55 56 57 57 58 58 61 56 59 57 59 60 61 61 59 58 56 54 55 55 52 52 50 48 50 47 46 43 43 45 45 45 47 46 46 47 49 49
56 54 54 55 56 57 55 55 55 55 55 55 56 57 57 58 61 62 61 59 58 57 57 55 53 54 55 53 51 49 47 45 43 42 41 44 44 45 45 45 45 45 47
53 53 53 54 55 56 56 55 54 55 55 55 56 55 56 57 58 59 59 58 59 57 55 54 54 55 55 53 52 51 50 48 46 43 42 43 42 45 45 45 44 45 45

GFSSE_sfc_temp_090.txt.gz
Temp
67 71 73 74 74 74 74 74 74 74 75 75 75 75 75 75 75 75 76 76 76 77 77 77 76 76 76 75 74 73 73 73 73 73 74 74 74 74 73 73 73 74 74
68 72 72 74 74 73 74 74 74 75 75 75 75 75 75 75 75 75 75 76 76 77 77 76 76 75 75 74 73 72 72 71 71 72 73 73 74 74 74 73 73 73 73
71 71 72 72 73 74 74 75 75 75 76 75 75 75 75 75 75 75 75 76 76 77 76 76 75 75 74 72 72 71 71 70 70 70 70 68 70 73 73 73 72 73 73
72 71 72 72 73 74 74 75 75 75 75 75 75 75 75 75 75 75 75 75 75 76 76 76 75 74 73 71 71 71 70 70 69 68 65 67 71 73 72 72 72 72 72
68 71 71 72 72 73 73 74 74 75 74 74 74 75 75 75 75 75 75 74 75 76 77 76 75 73 72 70 70 70 69 68 68 65 62 63 68 70 71 70 70 70 71
66 67 70 71 72 73 73 74 74 73 73 73 74 74 75 75 75 75 74 74 75 76 76 75 74 72 70 69 69 69 68 67 64 60 63 68 66 70 70 69 69 69 69
63 66 70 70 72 73 74 74 73 73 73 73 74 74 74 75 74 74 74 74 74 74 74 73 72 70 69 69 68 68 67 66 62 62 61 62 67 70 70 69 68 68 68
63 63 65 69 70 71 73 73 72 72 72 72 73 73 74 73 73 73 73 73 73 72 71 71 70 70 69 68 68 67 66 66 63 62 61 64 69 70 70 68 68 67 67
62 62 64 65 69 70 70 70 70 70 71 71 72 72 72 71 71 72 72 71 71 71 70 70 69 69 68 68 67 66 65 65 61 62 64 64 70 70 69 68 68 67 67
63 62 61 63 64 66 66 68 69 69 69 70 70 70 69 69 70 70 70 70 71 70 70 70 69 68 68 67 66 65 64 64 59 60 61 66 70 70 69 68 68 67 67
62 62 61 61 62 64 66 68 68 69 70 70 67 68 67 68 67 67 69 70 70 69 69 69 68 67 66 65 65 64 62 59 60 60 61 68 70 70 69 68 68 67 67
60 60 61 62 62 62 66 67 67 68 67 68 69 68 70 67 65 66 68 69 69 68 68 67 66 66 64 61 62 62 58 58 59 59 61 68 69 70 69 68 67 67 66
58 61 63 63 63 62 63 65 65 65 63 64 66 68 71 67 64 64 64 65 65 66 65 64 62 61 59 57 56 56 56 56 56 59 64 67 69 69 68 68 67 67 66
58 60 62 62 62 63 63 65 64 62 62 63 65 67 68 67 62 62 63 60 63 61 59 59 57 57 56 56 57 54 54 54 54 56 62 66 68 69 68 68 67 67 66
59 59 61 62 62 62 63 63 63 62 62 64 64 67 68 66 63 62 59 59 60 57 59 57 58 57 55 56 55 55 54 55 55 56 58 64 66 68 69 68 67 67 66
59 58 60 61 61 61 62 62 62 62 64 64 64 64 66 64 62 61 61 61 60 59 58 59 58 56 54 55 54 55 55 54 55 56 58 61 64 66 68 68 67 66 66
58 59 59 59 60 61 60 61 61 61 64 64 63 62 61 61 61 61 61 61 60 58 57 58 55 54 53 55 53 54 54 54 55 55 57 58 61 63 65 67 67 67 66
57 58 59 61 59 59 59 59 60 61 62 62 62 61 61 61 61 58 58 60 59 58 58 56 55 53 52 53 52 52 53 54 55 54 54 55 55 58 62 64 65 66 65
57 58 57 58 58 59 59 59 60 61 61 61 60 61 61 62 60 60 58 59 59 58 57 57 53 53 52 52 52 51 51 51 52 55 53 53 53 54 55 61 62 63 64
57 57 57 58 58 58 59 59 58 59 60 61 61 61 62 61 61 59 57 58 58 56 54 54 53 52 52 52 57 53 50 50 50 51 52 54 52 53 53 54 56 57 61
56 56 56 57 57 59 58 58 57 58 57 57 62 62 62 62 62 60 58 57 56 57 56 54 52 53 51 51 50 49 49 49 49 49 50 51 52 52 52 52 52 52 55
56 57 57 57 57 60 59 59 57 58 58 58 59 61 61 61 62 61 60 57 57 55 54 53 53 51 51 50 49 47 47 49 48 49 48 49 49 50 51 51 50 50 50
55 56 57 57 57 58 59 58 58 58 57 58 58 58 60 61 60 61 59 58 56 56 55 53 52 53 50 48 49 50 43 44 45 47 47 47 48 47 49 50 50 50 49
56 58 58 58 57 59 59 58 58 59 58 62 58 59 59 60 59 59 59 58 57 56 54 54 53 53 52 50 48 50 48 48 46 45 46 47 47 48 47 47 49 49 50
57 57 58 57 58 59 58 58 57 57 59 56 57 58 57 58 59 59 59 58 56 58 57 55 54 52 52 52 51 49 49 47 45 45 43 45 46 46 47 47 46 47 49
58 56 54 56 55 55 55 54 55 55 53 54 54 54 54 55 56 57 59 59 59 57 56 55 54 53 53 52 55 52 50 49 46 47 45 44 45 48 48 47 46 46 47

GFSSE_sfc_temp_093.txt.gz
Temp
75 80 73 74 75 74 75 75 75 75 75 76 76 75 76 76 76 76 76 76 77 77 77 77 77 77 76 76 75 74 73 73 74 75 75 75 75 75 75 74 75 79 74
76 79 72 74 74 74 75 75 75 75 76 76 75 75 75 75 76 76 76 76 76 77 77 76 76 76 75 74 73 72 72 72 72 73 74 74 74 74 74 74 74 75 74
76 78 77 73 74 74 75 75 76 76 76 76 76 75 75 75 75 76 76 76 76 77 77 76 76 75 74 73 72 71 71 71 71 71 74 78 75 74 73 73 73 73 73
77 78 78 72 73 74 74 75 75 76 76 76 75 75 75 75 75 76 75 75 76 76 76 76 75 74 73 72 71 71 71 70 69 71 79 79 78 73 73 72 72 72 72
76 77 77 72 73 73 74 75 75 75 75 75 75 75 75 75 75 75 75 75 75 76 76 76 75 73 71 70 70 70 69 69 69 74 77 77 76 72 72 71 71 72 71
70 75 73 71 72 73 74 74 75 74 74 74 74 74 75 75 75 75 74 75 75 76 76 75 73 71 70 69 69 69 68 68 71 77 76 74 75 71 71 70 70 69 69
70 67 70 70 72 73 74 74 74 73 73 73 73 74 74 75 74 74 74 74 75 75 75 73 72 70 69 69 68 68 67 68 75 75 76 75 74 71 70 70 69 69 69
70 67 65 70 72 73 73 73 72 72 72 73 73 73 74 73 73 73 73 73 73 73 72 71 70 69 69 68 67 67 66 68 74 75 76 75 71 70 70 69 68 68 68
69 67 65 66 68 69 68 70 71 71 71 72 72 72 72 72 72 72 72 72 72 71 71 70 69 69 68 68 67 66 65 68 75 75 75 75 69 70 69 69 68 68 67
65 67 66 66 66 69 68 70 69 70 70 71 71 70 70 70 71 71 70 71 70 70 70 70 69 68 67 67 66 65 65 67 74 75 76 74 69 70 70 69 68 67 67
65 64 65 65 69 71 69 71 67 69 70 69 70 69 69 75 75 74 72 69 70 69 69 69 68 67 66 66 65 65 66 74 74 74 75 69 70 70 69 68 68 67 67
64 64 64 67 66 65 66 68 67 72 74 73 73 72 74 73 75 75 71 69 69 69 69 68 67 66 69 73 71 66 73 73 73 74 74 68 70 70 69 68 67 67 67
65 65 65 66 66 65 64 65 65 64 68 68 73 70 70 71 72 75 74 73 72 70 73 72 70 73 71 72 71 71 71 72 73 74 71 67 69 70 69 68 67 67 67
61 65 64 65 64 66 64 65 64 64 64 68 71 70 66 68 71 72 73 72 71 73 72 71 70 69 68 69 69 68 69 71 72 73 71 66 68 69 69 68 68 67 66
62 62 64 64 64 64 63 63 64 64 64 66 67 69 67 69 69 72 70 72 71 70 69 70 70 69 68 67 68 68 68 69 70 72 73 65 66 68 69 68 68 67 66
61 61 62 62 63 62 62 63 64 64 66 64 65 66 68 70 68 70 69 70 69 71 71 70 69 69 68 68 67 68 68 69 69 70 72 70 64 66 68 68 68 67 67
60 60 60 62 62 60 61 63 63 63 63 65 65 66 67 68 68 69 68 68 70 68 66 68 67 67 67 68 66 66 67 67 68 68 71 71 68 63 65 67 67 67 66
59 59 60 62 60 60 60 62 62 62 63 64 64 64 65 67 68 67 68 69 69 67 68 66 66 66 66 67 65 66 67 66 67 67 68 69 69 70 65 65 66 66 66
60 59 58 61 59 58 59 61 62 62 62 63 63 62 63 66 67 66 67 67 67 67 65 66 65 66 64 67 66 65 64 65 65 65 64 65 67 68 69 64 63 64 65
59 58 58 58 60 59 60 59 61 61 61 62 62 62 64 65 66 65 65 66 67 67 65 66 64 65 66 65 66 63 63 62 61 62 65 66 65 65 67 68 67 66 62
58 58 58 57 58 58 58 58 59 59 59 60 61 62 64 65 65 64 66 65 66 66 66 64 64 62 62 63 61 60 60 60 60 62 64 65 64 65 66 66 67 68 67
57 59 58 58 57 59 61 59 59 60 60 60 62 63 63 64 64 63 65 64 66 65 64 63 63 59 61 61 62 62 58 60 61 62 62 63 63 65 64 64 65 65 66
57 58 58 58 58 59 60 59 57 57 57 61 62 62 66 66 62 63 65 64 63 65 64 62 61 62 60 60 62 63 56 57 60 60 59 61 62 62 65 65 64 64 64
58 59 59 59 58 58 60 61 59 58 58 61 63 63 62 64 62 62 63 64 64 64 63 63 62 61 63 61 60 60 59 61 59 58 59 60 60 61 61 63 64 63 63
60 59 59 59 59 60 61 60 61 59 61 58 60 63 60 60 60 60 62 62 64 65 64 62 61 61 61 62 60 59 57 59 58 60 61 59 58 52 56 62 63 62 58
60 60 59 58 58 58 58 61 62 60 60 61 60 59 60 61 61 62 62 62 65 66 64 62 61 60 60 59 61 57 55 57 54 50 54 47 50 58 60 51 51 52 53

GFSSE_sfc_temp_096.txt.gz
Temp
86 90 74 75 75 75 76 75 75 75 75 76 76 76 76 76 76 76 76 76 76 77 77 77 77 77 76 76 75 74 74 74 74 75 75 75 76 76 76 75 77 81 74
90 91 73 74 74 75 75 75 75 75 76 76 76 76 76 76 76 76 76 76 77 77 77 77 76 76 75 74 73 73 73 73 73 73 74 75 75 75 75 74 75 77 74
86 88 83 73 74 75 76 75 75 76 76 76 76 76 76 76 76 76 76 76 76 77 77 77 76 75 74 73 72 72 72 72 73 74 76 83 78 74 74 73 73 73 73
84 87 87 72 73 75 75 75 75 76 76 76 76 76 76 76 76 76 76 75 76 76 76 76 75 74 73 72 71 71 71 71 72 74 84 83 81 73 73 73 72 72 72
83 85 86 72 72 74 75 75 75 75 75 75 75 75 75 75 76 76 75 75 75 76 76 76 74 73 71 70 70 70 70 71 72 80 84 80 77 75 73 73 72 72 72
82 81 80 71 72 73 75 75 75 75 74 74 74 75 75 75 75 75 74 74 75 76 76 74 73 71 70 69 69 69 69 70 73 84 82 79 79 72 71 70 70 70 70
81 76 67 68 71 73 74 75 74 74 74 74 74 74 75 75 74 74 74 74 74 74 74 73 71 70 69 68 68 68 68 69 84 83 82 80 76 71 71 70 70 69 69
78 73 70 68 67 70 73 74 73 73 73 73 73 74 74 74 73 73 73 73 73 73 72 71 70 69 68 68 68 67 68 72 81 83 82 79 71 70 70 70 69 69 69
73 72 69 66 65 66 70 71 70 72 72 72 72 72 72 72 72 72 73 73 72 72 71 70 69 68 68 67 67 67 67 70 83 83 81 78 70 70 70 69 69 68 68
72 72 68 66 64 63 69 67 67 70 70 70 71 71 70 71 71 71 71 71 71 71 70 69 68 68 67 67 66 65 67 69 83 82 81 76 70 70 70 69 68 68 67
66 69 68 66 65 64 71 71 69 67 69 70 70 69 69 77 76 76 74 70 70 70 69 69 68 67 66 66 65 66 67 82 81 82 79 68 70 70 69 68 68 67 67
70 65 68 67 68 69 71 74 72 67 71 74 72 75 80 77 78 80 72 68 69 69 68 68 67 66 69 77 75 68 82 80 81 81 77 68 70 70 69 68 68 67 67
74 71 66 70 67 70 71 74 68 67 69 70 71 74 76 79 78 78 76 76 75 71 76 74 72 78 79 79 77 80 79 79 81 80 72 68 69 70 69 68 68 67 67
72 71 69 68 71 70 70 68 67 67 69 68 70 72 75 76 76 76 79 79 78 79 77 77 78 79 78 78 78 77 77 80 81 80 72 66 68 70 69 69 68 67 67
69 68 69 70 70 67 70 68 66 68 65 68 68 71 74 75 71 76 79 80 80 81 79 78 79 77 76 76 77 77 77 78 78 79 76 65 66 69 69 69 68 67 67
65 67 69 70 69 69 67 68 65 65 66 67 68 68 70 71 70 73 77 79 80 81 81 79 78 77 77 76 75 76 76 77 77 78 78 73 65 67 68 69 68 68 67
65 66 66 65 69 66 66 65 65 64 65 66 66 67 67 68 69 71 75 77 79 80 77 78 77 77 77 77 75 75 76 76 77 76 78 76 72 64 65 67 67 67 67
63 61 63 64 66 65 62 62 63 64 65 65 66 66 66 68 70 73 76 76 78 77 77 76 76 75 75 76 75 76 76 75 75 75 77 76 75 75 65 65 66 66 66
66 62 61 65 63 60 60 62 63 63 64 65 65 65 65 67 69 75 75 75 75 75 74 74 74 74 73 74 75 75 75 75 73 75 74 74 74 74 74 64 64 64 65
64 62 61 64 62 61 61 61 61 62 63 63 63 64 64 65 69 72 73 73 74 74 73 74 73 74 74 74 76 73 72 73 72 72 73 73 72 72 73 72 70 69 63
63 62 59 60 61 61 60 59 59 59 61 61 62 62 63 66 69 71 73 72 74 73 73 72 72 70 71 71 70 70 68 68 67 70 70 70 70 71 72 73 73 74 70
63 63 60 59 61 61 61 59 60 61 60 61 61 62 63 65 70 70 72 71 73 73 71 70 70 69 68 67 64 67 62 65 68 68 71 70 70 72 72 71 72 72 74
61 64 63 63 59 61 61 59 58 59 60 60 60 61 62 64 69 70 73 72 73 73 70 69 68 68 66 64 67 67 63 62 68 70 67 69 69 69 72 72 71 72 72
62 67 66 65 61 62 62 62 59 59 58 62 62 64 63 63 64 68 72 72 71 72 70 69 69 69 69 65 65 67 68 68 64 61 67 68 69 66 69 71 72 68 69
63 63 64 66 60 61 63 62 60 60 61 60 62 68 65 64 65 64 65 65 68 70 69 69 68 68 70 69 67 66 65 66 67 61 61 64 67 69 71 69 66 63 67
65 65 63 64 62 61 65 66 63 64 60 59 60 62 67 65 69 67 66 65 67 70 70 70 70 68 67 67 70 66 66 64 65 63 52 51 55 63 63 58 60 65 66

GFSSE_sfc_temp_099.txt.gz
Temp
92 85 74 75 75 75 75 74 74 75 75 75 76 75 76 76 76 76 76 76 76 77 77 77 77 77 76 76 75 75 75 74 74 75 75 76 77 77 76 76 76 78 74
95 91 73 74 75 75 75 75 74 75 75 76 75 75 75 75 75 75 76 76 76 77 77 77 76 76 75 75 74 73 73 73 73 74 75 75 75 75 75 74 74 75 73
91 93 84 74 74 75 75 75 75 75 76 76 75 75 75 75 75 76 76 76 76 77 77 76 76 75 74 73 73 73 73 73 73 73 76 77 77 74 74 73 73 73 73
89 91 90 73 74 75 75 75 75 76 76 75 75 75 76 75 76 76 76 75 76 77 77 76 76 74 73 72 72 72 73 73 73 74 82 80 79 74 73 73 73 73 73
88 90 91 73 73 74 75 75 75 75 75 75 75 75 76 76 76 76 75 75 76 76 76 76 75 73 71 70 70 71 71 72 72 78 84 80 78 75 73 73 72 72 72
88 89 74 71 72 73 74 75 75 75 74 74 74 75 75 75 75 75 74 75 75 76 76 74 73 71 70 69 69 70 71 71 71 85 81 78 77 71 71 71 71 70 70
86 86 78 69 71 73 75 74 74 74 74 74 74 75 75 75 75 74 74 74 74 74 74 73 71 70 69 69 69 69 69 70 85 83 81 78 74 71 71 71 70 70 70
82 81 77 70 70 68 67 67 73 73 72 73 73 74 74 74 73 73 73 73 73 73 71 71 70 69 68 69 68 68 68 69 83 83 81 77 71 71 71 70 69 69 69
79 77 77 74 73 69 68 65 67 71 72 72 72 73 73 72 72 73 72 73 72 71 70 69 69 68 68 68 67 67 68 70 84 82 79 76 70 70 70 70 69 69 68
76 75 75 73 71 70 67 64 64 69 70 71 71 71 70 71 71 71 71 71 71 70 69 69 68 67 67 67 67 67 68 69 83 82 79 74 70 71 70 69 69 68 68
73 74 75 72 70 66 67 66 66 68 71 70 70 69 69 76 75 75 74 70 70 69 69 68 67 67 66 66 66 67 66 84 83 81 76 68 70 71 70 69 68 68 67
72 72 74 71 68 65 68 64 66 66 67 73 76 74 79 76 77 81 72 69 69 69 68 67 67 66 69 75 74 68 78 82 83 80 75 68 70 70 69 68 68 67 67
79 71 72 72 70 68 71 69 71 67 64 68 74 76 76 78 75 76 74 73 73 71 74 72 70 75 78 78 78 80 80 81 82 79 71 68 69 70 69 68 68 67 67
76 75 73 74 72 72 70 71 72 73 64 67 73 75 77 76 73 75 76 77 75 77 75 75 76 78 78 79 79 78 79 82 81 78 71 67 68 70 70 69 68 67 67
73 73 71 73 73 72 71 70 72 73 70 67 69 77 75 74 70 71 77 78 78 79 77 76 78 79 79 78 79 78 78 80 79 78 74 66 67 69 69 69 68 68 67
74 73 73 71 72 73 73 72 70 67 67 67 67 72 75 75 72 72 75 79 80 81 80 79 80 79 78 78 77 78 78 79 79 78 76 71 65 67 68 69 69 68 67
74 73 72 73 72 72 71 71 71 69 69 68 66 68 73 70 74 73 74 79 80 81 80 80 79 79 78 78 76 77 78 78 79 78 76 74 70 64 66 68 68 68 67
72 70 70 69 70 70 70 71 68 66 69 66 66 66 66 67 73 72 70 71 78 77 80 80 78 77 76 77 76 77 77 78 77 77 78 77 74 74 65 65 66 67 67
71 68 63 64 68 68 66 66 69 66 66 66 65 65 66 65 66 67 67 70 76 78 78 78 77 76 75 76 76 76 76 76 76 78 77 76 75 74 73 64 64 64 65
70 67 65 62 66 64 63 64 63 63 64 65 65 64 65 65 65 67 68 69 78 77 76 76 73 76 76 76 78 75 75 76 76 75 75 76 75 74 74 71 67 67 63
66 66 62 64 63 63 61 62 61 60 62 63 65 64 64 64 66 67 71 72 74 75 71 69 74 73 74 75 74 72 72 73 72 74 74 74 73 72 73 73 71 71 67
66 66 60 62 63 63 63 61 60 60 62 63 63 63 63 63 64 64 67 70 71 71 69 71 72 71 73 73 69 69 63 66 69 69 71 71 70 72 71 71 72 71 72
66 66 65 63 64 62 61 61 60 60 60 60 60 61 61 62 63 65 67 69 70 71 70 70 71 71 68 69 68 69 63 62 67 69 66 69 69 69 72 72 71 72 72
68 69 70 66 65 62 62 61 60 58 57 59 59 60 61 62 64 66 68 69 69 73 69 69 71 70 71 66 67 70 70 68 64 61 66 66 67 69 69 71 72 71 72
71 67 66 66 65 64 62 64 60 59 59 59 60 59 60 61 64 67 70 71 71 71 72 71 69 68 69 69 67 67 65 66 65 62 60 61 68 70 71 71 69 72 71
69 67 66 64 64 63 62 63 62 60 60 59 59 59 59 60 61 63 67 69 70 71 69 68 68 68 69 70 70 69 67 64 63 60 59 58 55 58 63 63 64 69 71

GFSSE_sfc_temp_102.txt.gz
Temp
81 78 75 75 75 75 74 74 74 74 75 75 75 75 75 75 75 75 75 76 76 77 77 77 77 76 76 76 75 75 74 74 74 75 76 77 77 77 76 75 75 75 74
83 81 74 75 75 75 74 74 74 74 75 75 75 75 75 75 75 75 75 76 76 77 78 77 76 76 75 75 74 74 73 73 73 74 74 75 75 75 75 73 73 73 73
87 82 79 74 75 75 75 75 75 75 76 76 75 75 75 75 75 75 76 76 77 77 77 77 76 76 75 74 73 73 73 73 73 74 75 73 72 74 73 73 73 73 73
89 82 82 73 74 75 75 74 75 75 76 75 75 75 75 75 75 75 75 75 76 76 77 76 76 75 73 73 73 73 73 73 73 74 76 75 74 74 74 73 73 73 73
87 89 84 73 73 74 74 74 74 75 75 75 75 75 75 75 75 75 75 75 75 76 77 76 75 73 72 71 71 71 72 72 73 77 75 73 73 74 73 73 72 72 72
87 82 71 71 73 74 73 74 74 74 74 74 74 73 74 75 75 75 74 75 75 76 76 75 73 71 70 69 70 71 71 71 71 76 73 71 71 72 72 71 71 71 71
85 83 76 70 70 73 75 75 74 74 73 73 74 74 75 74 74 74 74 74 74 74 74 72 71 70 69 69 70 69 70 70 77 74 71 68 68 71 72 71 70 70 70
82 80 76 71 71 71 73 74 73 73 73 73 73 74 73 71 71 73 73 73 73 72 71 70 69 69 69 69 69 69 68 69 77 73 70 67 70 71 71 70 70 69 69
78 77 76 74 73 69 67 68 67 66 64 72 72 71 69 70 71 72 72 72 71 71 70 69 69 68 69 68 68 68 68 69 75 72 71 67 71 71 71 70 69 69 69
75 74 74 73 72 70 70 66 66 67 65 64 71 71 71 70 71 71 71 71 70 69 69 69 68 68 68 67 67 67 67 69 74 71 69 67 70 71 71 70 69 69 68
73 74 72 71 71 69 68 66 66 67 66 60 70 70 68 71 72 71 71 69 69 69 68 68 67 66 66 67 67 67 67 73 74 69 67 68 70 71 70 69 68 68 68
73 71 73 71 70 68 66 64 64 64 63 61 71 69 71 71 72 74 69 68 68 68 68 67 66 66 68 65 65 66 67 74 73 68 66 68 70 70 70 68 68 68 67
78 73 72 71 69 66 65 64 64 63 62 64 69 68 70 72 71 69 68 68 67 67 67 66 65 67 67 66 67 67 69 73 70 68 67 67 70 70 69 68 68 67 67
74 70 72 71 68 66 67 64 64 63 62 63 69 70 71 71 69 68 68 68 67 67 66 65 66 67 67 68 69 70 70 72 69 66 65 66 68 70 69 69 68 67 67
74 72 70 71 68 68 67 66 65 64 62 63 65 69 72 71 68 68 68 69 69 69 68 67 67 69 69 68 69 70 70 72 69 67 64 65 66 69 69 69 68 68 67
75 71 70 70 70 69 67 67 66 65 64 64 66 68 70 71 68 69 69 70 70 70 70 69 69 71 68 68 68 69 70 69 69 67 65 62 65 67 68 69 69 68 68
74 72 69 70 71 69 68 67 67 67 66 66 65 66 68 70 68 69 70 68 71 71 69 70 70 68 67 69 67 67 68 69 71 68 66 64 62 64 66 67 68 68 68
73 70 70 69 69 69 68 67 66 67 67 66 66 66 66 67 69 69 70 70 73 71 71 71 70 66 65 65 64 65 66 67 68 67 67 66 64 66 63 65 66 67 67
72 70 66 67 66 67 67 66 66 67 66 66 66 66 66 66 64 68 70 66 70 72 71 69 66 65 63 64 65 64 64 65 66 70 68 67 65 65 64 63 63 64 66
70 67 65 65 66 66 63 64 64 65 65 66 66 65 64 64 64 64 66 67 66 67 68 69 67 66 64 64 72 67 62 63 64 63 65 69 67 64 64 64 62 62 62
67 65 64 64 64 63 61 61 61 61 62 64 65 65 64 64 64 63 66 65 66 67 64 67 65 64 63 65 61 60 60 62 62 62 63 63 64 65 63 62 62 62 62
65 65 64 64 63 64 63 62 61 61 62 63 64 64 65 63 64 63 65 64 66 65 65 65 64 62 63 64 60 57 53 57 59 61 60 62 62 63 64 64 63 63 64
64 64 64 65 63 63 64 62 60 61 61 61 62 62 64 64 64 63 64 64 64 65 63 63 63 63 61 61 62 59 54 52 54 57 58 58 60 60 61 63 64 64 64
64 65 67 64 62 63 64 63 60 58 58 59 62 62 61 63 62 62 62 63 63 64 63 63 65 63 62 58 59 62 60 58 53 50 56 57 58 60 60 61 64 65 66
66 64 66 65 62 63 62 63 60 58 58 59 59 59 60 60 61 61 61 63 64 64 63 62 62 62 62 61 60 58 58 57 57 53 51 53 58 62 63 63 64 62 64
67 65 64 64 63 63 62 63 61 59 58 58 58 58 58 58 59 60 62 61 62 62 62 62 63 62 61 61 61 60 57 55 54 53 51 52 52 55 63 62 60 64 65

GFSSE_sfc_temp_105.txt.gz
Temp
73 73 74 74 75 74 74 73 73 74 75 75 75 75 75 75 75 75 76 76 76 77 78 77 77 76 76 76 75 75 74 75 75 76 76 76 76 76 75 74 74 74 74
74 74 73 74 74 74 74 74 74 74 75 75 75 75 75 75 75 75 75 76 76 77 77 77 76 76 76 75 74 74 74 73 73 74 74 75 75 75 74 73 73 73 74
75 75 75 73 74 74 74 74 74 75 75 75 75 75 75 75 75 75 76 76 76 77 77 76 76 76 75 74 73 73 73 73 72 72 72 71 72 74 74 73 72 73 73
76 75 74 73 74 74 74 74 74 75 75 75 75 75 75 75 75 76 76 75 76 77 77 76 76 75 74 73 73 73 73 73 72 72 72 72 74 74 73 72 73 72 73
77 78 76 72 73 74 74 74 74 75 75 74 74 75 75 75 75 75 75 75 76 76 76 76 75 74 73 72 72 72 72 72 72 72 70 70 72 73 73 73 72 72 72
76 75 72 71 72 73 74 74 74 74 74 74 74 75 75 75 75 74 74 74 75 76 76 75 74 72 71 70 70 71 71 71 71 69 68 71 72 72 72 71 71 71 71
73 70 70 70 71 73 74 74 74 73 73 73 73 74 73 73 73 73 73 74 74 75 74 73 72 71 70 70 70 70 69 70 70 67 67 66 71 72 72 71 71 70 70
72 70 69 71 71 72 73 73 73 73 72 73 72 72 72 72 71 73 72 73 73 73 72 71 70 70 70 69 69 68 68 71 70 66 65 65 70 71 71 70 70 70 70
70 70 68 67 69 70 69 69 70 72 72 73 69 71 72 71 70 72 72 72 72 71 70 70 70 69 69 69 68 68 67 69 67 67 67 65 70 71 71 70 70 69 69
68 68 67 66 66 65 64 67 67 69 68 71 69 69 69 70 70 70 71 71 70 70 70 69 69 68 68 68 68 66 69 68 67 65 63 67 70 71 71 70 69 69 69
66 66 66 65 65 64 64 65 66 67 66 67 65 64 67 69 70 71 70 69 70 69 69 69 68 67 67 67 67 67 67 68 66 65 63 68 71 71 70 69 69 69 68
64 65 65 65 64 64 64 63 63 64 65 65 65 62 66 68 69 71 69 68 69 68 68 68 67 67 66 63 63 66 68 66 65 64 64 68 70 71 70 69 68 68 68
67 65 65 65 64 65 62 61 62 62 63 62 63 63 65 68 68 67 66 67 65 67 66 66 65 63 64 63 64 64 66 66 64 65 66 67 70 70 70 69 68 68 67
67 65 65 64 62 61 62 61 62 61 61 61 61 65 66 66 66 67 66 64 64 64 62 61 62 63 63 65 65 65 68 65 64 64 64 66 68 70 70 69 68 68 67
64 64 64 63 63 62 62 62 63 62 62 63 62 66 67 66 66 66 64 64 63 63 62 61 61 65 63 64 65 65 66 64 63 64 62 65 66 69 69 69 69 68 67
66 63 64 65 64 64 63 63 63 62 61 63 62 66 67 68 67 67 65 64 64 64 63 64 63 62 62 63 64 65 66 64 64 63 62 62 64 66 68 69 69 68 68
65 64 64 67 66 64 64 64 63 62 62 63 65 66 67 68 67 67 65 65 66 66 64 61 62 62 62 64 64 64 66 64 63 63 62 61 62 63 65 67 68 68 68
64 63 64 67 66 64 65 64 64 63 63 64 64 65 66 67 67 66 67 67 67 67 66 63 62 63 61 61 61 61 63 64 63 63 63 62 61 63 63 65 66 67 67
64 62 62 64 64 63 63 64 63 64 64 64 65 65 65 65 65 66 66 66 67 67 66 64 62 64 61 59 61 60 60 60 63 64 62 62 61 61 60 63 63 64 66
62 61 61 61 61 61 60 62 62 64 64 64 64 65 64 65 66 64 65 65 65 66 65 62 65 63 62 61 68 62 58 59 60 61 62 63 61 61 60 60 61 61 63
60 60 60 62 62 59 58 57 57 60 63 64 64 63 64 64 65 64 66 65 65 66 64 64 65 63 59 59 57 56 56 58 59 59 59 62 61 61 60 60 60 60 61
59 59 62 62 61 59 58 59 59 58 59 64 64 64 64 64 64 63 66 65 66 64 62 63 64 60 59 58 58 55 51 55 56 57 57 58 58 61 61 60 60 60 60
57 59 62 62 60 58 61 60 58 58 59 60 62 62 63 64 63 63 64 64 65 63 63 61 63 60 58 57 63 57 51 51 51 54 56 55 56 56 58 61 61 61 61
57 60 64 63 61 61 61 60 59 59 57 60 61 62 62 63 63 62 64 64 64 64 62 61 63 61 60 58 58 61 58 57 50 48 52 53 54 56 56 57 60 61 62
59 60 64 62 61 62 61 60 58 58 58 60 62 61 61 62 63 62 63 63 62 63 63 63 60 60 60 58 57 57 55 53 52 50 47 50 52 55 56 58 60 59 63
59 59 63 61 61 61 60 60 59 58 58 58 60 59 60 61 60 61 61 61 60 61 61 60 60 60 58 58 60 58 55 53 52 50 48 48 49 51 58 58 59 61 60

GFSSE_sfc_temp_108.txt.gz
Temp
70 71 73 74 74 73 73 73 74 74 74 75 75 75 75 76 76 76 76 76 76 77 77 77 77 77 77 77 76 75 75 74 75 75 76 76 76 75 74 74 73 73 74
72 72 72 74 74 73 73 74 74 74 75 75 75 75 75 75 75 75 75 76 76 77 77 77 76 76 76 75 74 74 73 73 73 73 74 75 74 74 74 73 73 73 74
72 73 73 73 74 74 74 74 74 75 75 75 75 75 75 75 75 75 75 76 76 77 77 77 77 76 75 74 73 73 72 72 72 72 72 69 71 74 74 73 73 73 74
73 73 73 72 73 74 74 74 74 75 75 75 75 75 75 75 75 75 75 75 76 76 76 76 76 75 74 73 72 72 72 71 71 71 70 71 73 74 74 73 73 73 73
73 74 74 72 72 73 73 74 74 74 74 74 74 75 75 75 75 75 75 74 75 76 76 76 76 74 73 72 72 72 72 71 70 69 66 68 69 73 73 72 72 72 71
72 74 72 71 72 73 74 74 74 74 73 73 74 74 75 75 75 74 74 74 75 76 76 76 75 73 71 71 71 70 71 70 69 69 70 71 71 72 72 71 71 71 70
70 72 71 70 71 73 74 74 73 73 73 73 74 73 72 74 74 73 73 74 74 75 74 74 73 71 70 70 70 69 69 68 68 67 66 69 70 72 72 72 71 71 71
68 68 69 71 71 72 73 73 72 71 72 72 72 71 70 72 73 73 73 73 73 73 72 72 70 70 70 69 69 69 68 68 69 67 66 70 71 72 72 71 70 70 70
68 67 67 68 70 70 70 70 70 71 72 71 70 70 71 70 70 72 72 72 72 71 71 70 70 69 69 69 68 68 67 67 65 65 67 66 71 71 71 70 70 70 70
66 66 65 65 65 65 66 68 68 69 68 70 68 68 67 67 69 70 71 71 71 70 70 70 69 68 68 67 67 67 66 66 65 63 62 67 70 71 71 70 70 69 69
65 64 65 63 63 63 63 64 67 66 66 68 68 67 66 67 67 70 70 70 70 69 69 69 69 68 67 66 67 66 66 66 65 64 62 68 70 71 70 70 69 69 69
63 63 63 63 62 62 64 62 62 63 65 67 67 66 67 67 68 68 68 69 69 68 68 68 68 67 66 64 67 66 64 64 64 63 64 68 70 71 70 69 69 68 68
66 63 63 63 63 61 61 61 61 62 62 64 64 66 67 66 66 67 66 67 66 67 64 65 66 65 63 63 63 65 63 63 63 64 66 67 70 70 70 69 69 68 68
63 64 63 63 62 61 61 60 60 61 62 63 63 64 64 65 65 65 66 66 64 64 61 63 60 60 61 63 63 63 63 61 61 62 65 66 68 70 70 69 69 68 67
63 63 63 62 61 60 60 60 60 61 61 62 63 62 65 65 65 65 65 64 62 60 59 58 60 60 61 62 63 64 62 61 61 62 61 65 66 69 70 70 69 68 67
64 63 62 62 61 61 61 60 61 63 62 61 62 63 65 65 65 65 64 61 60 61 60 59 58 58 60 62 61 62 61 61 61 60 61 62 64 66 68 69 69 68 68
64 64 62 62 62 61 62 61 62 62 61 62 62 63 65 65 64 64 62 61 61 60 57 57 58 59 61 62 61 61 61 60 60 60 59 59 61 63 65 67 68 68 68
63 62 62 65 62 62 62 63 63 61 62 63 63 65 66 66 65 64 62 62 62 61 61 60 58 59 60 60 58 59 60 60 60 60 60 59 58 62 63 65 66 67 67
63 61 61 61 61 61 63 63 63 61 62 64 63 65 66 66 66 64 63 63 62 62 62 61 59 61 60 57 60 56 58 58 59 62 60 59 57 58 58 63 63 64 66
62 61 60 60 61 61 60 62 63 61 62 63 64 64 65 65 66 64 62 63 62 63 61 61 62 60 61 58 65 60 58 59 60 59 59 61 58 58 57 58 60 61 63
60 60 59 58 59 59 57 59 61 61 62 62 64 65 65 65 65 64 64 64 63 65 61 62 62 61 56 58 56 55 55 57 57 59 59 59 57 58 56 57 57 57 60
59 59 58 59 59 58 58 57 60 60 63 63 63 65 65 64 65 65 65 65 64 63 63 62 62 58 58 58 56 54 51 54 55 55 56 58 56 58 58 58 57 57 58
58 58 59 59 61 60 58 58 57 58 60 61 61 62 63 64 65 65 66 66 66 64 62 63 63 63 61 56 60 55 49 49 51 55 54 54 55 53 57 58 58 59 58
57 58 59 60 61 60 59 58 58 55 58 59 62 63 63 63 64 65 65 66 66 65 64 63 64 61 62 60 55 58 56 56 51 50 53 54 52 54 55 56 58 59 59
57 57 59 59 60 61 60 60 59 58 58 58 60 61 63 62 63 63 63 63 64 63 63 63 60 60 58 58 57 54 55 54 52 51 48 52 51 53 54 56 57 58 59
57 57 58 59 60 60 60 60 59 58 59 58 60 60 60 61 61 61 62 62 63 62 61 59 58 59 57 58 58 58 56 55 53 51 47 49 49 51 52 54 54 57 58

GFSSE_sfc_temp_111.txt.gz
Temp
70 71 73 74 73 73 73 73 73 74 75 75 76 76 76 76 76 76 76 76 76 77 78 78 77 77 78 77 76 75 75 75 75 75 76 76 76 75 74 74 73 73 75
71 71 72 73 73 73 73 73 74 74 75 75 76 75 75 75 75 75 76 76 76 77 78 77 77 78 77 76 74 74 73 73 73 73 74 75 75 75 74 73 73 73 74
70 71 72 72 73 73 74 74 74 75 75 75 75 75 75 75 75 75 75 75 76 77 77 78 77 76 75 74 73 73 72 72 72 72 72 68 73 74 74 73 73 73 74
71 71 72 72 73 73 73 74 74 75 75 75 75 75 75 75 75 75 75 75 76 77 77 76 76 75 74 72 72 71 71 71 71 71 69 68 72 74 74 73 73 73 73
71 72 72 71 72 73 73 73 74 74 74 74 74 74 75 75 75 75 74 74 75 77 77 77 76 74 72 71 71 71 71 70 69 68 64 65 69 73 74 73 72 72 72
70 71 71 70 71 73 73 74 74 73 73 73 73 74 75 75 75 74 74 74 75 76 76 75 74 72 71 70 70 70 70 69 68 63 65 69 69 73 73 72 71 71 71
69 70 70 70 71 73 73 73 73 73 73 73 73 74 74 74 74 73 73 74 74 75 75 74 72 71 70 70 70 69 68 68 66 66 64 68 69 73 72 72 72 71 71
69 69 70 70 71 72 72 72 72 72 72 72 73 73 73 72 72 72 73 73 73 73 73 72 71 70 69 69 69 68 67 68 68 67 66 67 71 72 72 71 70 70 70
67 67 68 69 70 70 70 70 70 70 71 71 71 71 70 70 70 71 72 72 72 72 71 70 69 69 69 69 68 67 66 67 67 66 67 67 71 71 71 70 70 70 70
65 65 66 66 68 68 71 69 69 69 69 69 68 68 68 69 69 69 71 70 71 71 70 70 69 69 68 68 67 66 66 66 62 63 63 67 71 71 71 71 70 70 69
64 64 64 64 64 64 66 67 68 69 66 68 68 68 66 68 68 69 70 70 70 70 69 69 68 67 66 67 66 66 66 64 64 63 64 68 71 72 71 70 70 69 69
62 62 63 62 62 62 63 63 63 66 67 67 68 67 66 65 66 69 69 69 69 69 68 68 67 66 66 66 65 65 64 64 63 64 65 68 71 71 71 70 69 69 68
65 62 62 62 61 61 61 60 60 60 64 66 66 65 65 64 65 67 66 67 66 67 64 66 66 64 63 64 63 62 61 61 59 61 64 67 70 71 70 69 69 69 68
62 63 62 62 61 61 61 60 62 62 62 64 65 66 64 64 65 64 66 65 64 63 60 61 61 60 60 64 63 62 61 60 59 59 62 66 68 70 70 70 69 68 68
62 62 62 62 61 61 60 59 60 61 62 63 64 65 66 64 64 65 66 66 62 59 59 58 58 61 61 61 61 62 60 58 59 58 58 65 66 69 70 70 69 68 68
65 62 62 62 62 60 60 59 59 59 62 62 63 64 66 65 64 65 64 65 61 60 58 60 61 60 60 60 59 60 59 58 58 57 58 61 64 66 68 69 69 68 68
64 62 62 62 61 60 60 59 60 61 61 61 62 64 64 65 65 64 64 62 60 58 56 57 57 57 59 60 59 59 59 58 58 58 57 57 60 63 65 67 68 68 68
62 62 62 64 61 59 60 60 61 62 61 61 62 62 63 64 66 64 62 61 59 57 57 58 57 57 56 60 57 58 57 57 57 57 57 57 57 59 62 65 66 67 67
63 62 61 62 60 60 60 61 62 60 61 63 62 62 63 64 64 64 62 60 59 58 58 59 54 59 57 58 59 56 54 54 56 60 57 57 57 57 57 62 63 64 65
62 61 61 61 60 59 62 62 62 60 62 62 62 62 63 64 64 63 61 59 60 59 58 57 58 56 56 59 62 56 53 54 55 57 59 59 57 57 56 57 58 59 62
60 60 60 59 59 59 60 60 60 60 61 61 62 64 64 64 63 61 62 60 61 60 58 59 58 58 53 57 55 54 53 54 54 55 55 55 55 56 56 55 55 55 57
59 60 59 60 59 58 59 59 61 61 61 62 63 64 65 64 63 62 62 61 61 60 57 59 61 54 55 57 55 53 48 52 54 55 55 57 55 55 56 55 55 55 55
58 59 59 59 59 57 57 57 58 60 61 60 61 62 63 64 64 64 62 62 62 62 60 60 61 61 57 54 59 54 50 49 51 52 54 55 55 53 55 56 56 57 56
59 59 58 59 58 57 57 56 58 59 59 61 61 62 63 64 64 64 63 63 63 62 62 62 62 62 58 57 54 57 57 55 50 50 53 52 55 55 54 53 56 57 58
58 57 58 58 58 60 58 57 56 55 57 59 61 61 62 62 64 64 64 64 63 63 62 62 61 58 60 60 58 54 54 53 52 52 48 50 52 54 56 56 56 56 57
56 56 57 57 60 61 60 57 57 55 55 56 58 59 61 62 63 63 64 63 63 63 62 62 60 59 57 57 57 57 55 54 52 51 50 49 50 53 56 56 54 55 56

GFSSE_sfc_temp_114.txt.gz
Temp
70 70 73 74 75 75 73 73 73 74 75 76 76 76 76 76 76 76 76 76 77 78 78 77 77 77 78 77 76 76 75 75 75 75 76 76 76 76 75 74 73 74 75
70 70 72 75 75 75 73 73 74 75 76 76 76 75 75 75 75 76 76 76 77 78 78 78 77 77 77 76 75 74 74 73 73 74 74 75 75 75 74 73 73 74 74
69 70 71 73 74 73 74 74 75 76 76 76 75 75 75 75 75 75 75 76 77 78 79 77 78 77 76 74 73 73 73 73 72 72 73 73 73 75 74 73 73 74 74
70 70 72 72 73 73 74 74 74 75 76 77 76 75 75 75 75 75 75 75 76 77 78 78 77 76 74 73 72 72 71 71 71 70 70 70 73 74 74 73 74 74 74
70 70 71 71 72 73 73 74 74 75 74 74 75 75 75 75 75 75 75 75 76 77 78 78 77 74 72 71 71 71 71 70 69 68 66 67 70 74 74 73 73 73 72
69 70 70 70 71 73 73 74 74 73 73 73 74 74 75 75 75 74 74 74 75 77 76 77 74 72 70 70 70 70 69 69 67 64 66 70 69 73 73 72 71 72 71
69 69 69 69 71 73 73 74 73 73 72 73 74 75 74 74 74 73 73 73 74 76 75 73 72 71 70 69 69 69 68 68 64 63 64 66 69 73 73 72 72 71 71
68 68 68 70 71 72 73 73 72 72 72 72 73 72 72 71 73 73 72 72 73 73 73 72 71 70 70 69 69 68 67 68 66 64 64 65 71 73 73 72 71 71 70
66 66 67 69 70 70 70 70 70 70 71 71 71 71 71 71 71 71 71 72 72 72 71 71 70 69 69 68 68 67 66 67 62 64 66 68 71 72 71 71 70 70 69
65 65 67 68 70 69 70 69 68 69 69 70 70 70 70 70 70 71 70 70 72 71 70 70 68 68 68 67 67 66 66 66 63 63 63 69 71 72 72 71 70 70 69
63 64 65 68 69 70 71 70 69 69 69 68 70 69 67 67 68 69 70 70 71 70 69 69 68 68 67 66 66 65 64 62 64 63 65 69 71 72 72 71 70 69 70
62 62 64 65 66 67 68 68 70 70 69 68 68 68 68 66 67 69 69 69 70 69 68 68 67 66 66 65 65 65 63 63 63 63 65 68 71 72 71 70 70 69 69
65 63 63 63 63 63 64 66 65 65 67 67 66 67 66 66 66 66 66 67 67 68 66 66 65 64 63 64 62 61 62 62 62 62 65 68 71 72 71 70 69 69 69
61 63 62 62 61 61 61 61 62 63 64 66 66 65 64 63 64 65 65 66 66 66 64 62 61 59 61 61 61 61 60 61 60 60 64 67 69 71 71 70 69 69 69
61 62 62 62 62 61 60 59 61 61 63 65 66 66 65 63 63 65 65 65 66 65 64 59 58 59 59 60 61 61 60 60 60 60 61 65 66 69 70 70 70 69 68
65 62 62 62 62 61 60 59 61 61 62 63 64 65 65 64 64 63 64 64 63 64 62 60 59 58 60 60 59 60 59 58 58 58 59 62 64 67 68 70 70 69 69
68 64 61 62 61 61 60 59 59 60 61 62 63 65 66 65 64 64 64 64 62 61 59 59 57 56 58 59 57 57 58 57 58 58 59 59 62 63 65 68 68 68 68
67 62 62 64 61 60 60 59 59 61 60 60 62 63 65 65 65 64 64 62 61 59 60 60 58 55 55 57 55 55 56 57 57 57 58 58 59 61 63 65 66 67 68
64 61 61 62 60 60 59 59 59 61 61 61 62 62 63 64 64 65 64 62 59 58 59 59 57 59 56 55 57 54 54 56 57 59 57 57 58 59 59 63 64 64 66
60 61 61 62 61 60 59 61 61 60 60 61 62 62 62 63 63 64 62 59 60 58 57 59 58 55 55 56 60 55 53 55 55 55 57 59 58 58 58 59 60 61 62
59 59 60 60 59 60 61 60 60 59 60 62 62 62 62 63 63 62 60 59 59 59 58 58 59 57 52 55 53 52 52 54 54 55 56 56 57 58 57 57 57 58 59
59 60 60 60 59 61 62 62 61 61 61 62 62 62 62 62 61 61 60 60 59 58 57 57 59 55 53 57 53 52 50 53 53 54 54 56 55 57 57 58 57 57 57
57 59 60 60 60 60 62 62 60 60 60 60 61 61 62 62 61 61 61 60 59 59 57 58 59 60 55 53 60 54 49 49 51 52 53 55 56 55 58 57 57 57 57
57 57 59 59 60 58 58 61 60 60 59 60 60 62 62 62 61 60 61 61 60 59 58 58 60 60 57 55 54 56 56 54 50 49 53 53 55 55 56 56 58 58 58
57 56 58 60 60 58 58 59 60 59 60 61 61 61 62 63 62 61 60 60 60 59 58 59 58 57 57 59 55 54 54 53 53 52 50 52 52 55 57 57 57 57 58
56 56 59 59 59 58 57 55 56 55 58 59 60 60 61 62 62 62 61 60 60 59 58 58 59 57 56 59 56 55 55 54 53 52 50 50 51 54 54 55 56 57 57

GFSSE_sfc_temp_117.txt.gz
Temp
81 80 73 75 76 74 74 73 74 74 76 76 76 76 76 76 76 76 76 76 77 78 78 78 77 78 78 78 77 76 75 75 75 76 76 77 77 76 75 75 76 81 75
84 80 72 74 75 74 73 74 75 75 76 76 76 76 76 76 76 76 76 76 77 78 78 78 77 78 77 76 75 74 74 74 74 74 75 75 75 76 74 74 75 78 75
81 79 78 74 74 74 74 74 75 77 76 76 76 76 76 76 76 76 76 76 77 78 78 78 78 77 76 75 74 74 73 73 73 73 75 83 79 75 74 74 74 74 74
79 79 79 73 74 74 74 74 75 76 76 76 76 76 76 76 76 76 76 76 77 78 78 78 78 76 75 73 73 72 72 72 71 73 82 82 80 74 74 74 74 74 74
78 78 78 72 72 73 74 74 75 76 75 75 75 75 76 76 76 76 75 75 77 78 78 78 77 75 72 72 71 71 71 70 70 77 82 81 80 76 74 74 73 73 74
78 78 74 71 72 73 74 74 75 75 75 75 74 75 76 75 75 76 76 75 76 76 78 77 75 72 71 70 70 70 70 69 72 81 80 77 77 74 74 73 72 72 72
78 77 74 70 71 73 74 74 74 74 74 74 74 74 74 74 74 74 73 74 75 75 76 74 72 71 70 70 70 69 68 69 79 79 79 79 77 74 74 73 72 72 72
76 75 75 71 71 72 73 73 72 72 73 73 73 74 73 73 72 71 72 73 74 74 74 72 71 70 70 69 69 68 67 69 77 78 79 80 73 73 73 72 71 71 71
75 74 75 73 73 70 70 70 70 70 71 70 72 72 72 71 70 71 73 73 73 72 72 70 70 69 69 69 68 67 66 69 78 78 78 79 72 72 73 72 71 70 70
74 74 72 72 72 74 75 69 69 69 69 70 70 70 69 69 70 71 71 72 73 72 72 70 69 69 68 67 67 66 66 67 78 77 78 77 71 72 72 71 71 70 70
72 73 72 70 71 72 74 72 69 69 69 69 70 69 68 76 75 74 72 70 72 71 70 69 68 68 67 66 66 66 67 77 76 77 77 69 72 73 72 71 70 70 70
72 72 70 70 70 70 71 72 74 72 74 75 75 74 74 74 75 76 72 69 70 69 69 68 68 67 68 75 73 67 76 75 75 74 76 69 71 73 71 70 70 70 70
75 73 71 69 69 69 69 71 71 70 71 71 74 74 72 71 70 73 73 73 72 70 70 71 71 74 74 74 74 73 73 73 75 75 73 68 71 72 71 70 70 70 69
72 73 72 70 68 68 69 69 70 71 69 68 69 70 68 67 69 70 71 71 72 74 71 72 73 72 72 72 72 71 72 73 73 73 72 67 69 71 71 70 70 69 69
72 72 72 71 70 68 67 67 67 68 68 68 67 67 67 67 68 65 66 67 69 70 72 70 70 69 70 70 70 71 70 71 70 72 74 66 67 70 70 70 70 70 70
74 73 73 71 71 70 68 67 66 66 67 67 66 66 67 67 67 66 65 65 66 67 72 69 69 66 70 71 70 70 70 71 72 71 73 73 65 67 69 70 70 70 70
77 75 72 71 71 69 69 68 66 66 67 68 69 66 67 67 65 66 64 64 65 65 65 67 69 68 70 71 70 70 70 69 71 71 73 73 70 64 66 68 69 69 69
77 75 73 72 69 69 68 68 64 65 65 66 66 67 66 67 66 65 64 64 64 63 64 64 69 68 69 70 69 70 70 70 70 71 72 73 73 74 67 66 67 68 68
76 74 71 70 68 68 69 67 65 64 63 63 64 65 66 66 67 65 64 63 62 61 63 67 69 69 67 69 69 69 70 70 69 71 70 70 71 72 73 65 64 65 66
72 72 70 69 68 68 67 65 64 63 62 63 63 64 64 65 65 65 64 62 61 60 63 66 67 69 69 68 69 67 68 69 69 69 70 71 71 70 71 71 70 69 63
69 69 68 67 67 66 63 61 61 60 61 61 63 65 66 65 64 63 63 61 61 59 64 67 67 65 66 68 65 64 65 66 66 68 70 70 69 69 69 69 71 71 69
68 67 67 67 65 67 67 65 65 63 62 63 65 65 64 64 63 63 62 61 60 60 61 63 66 66 66 66 66 65 58 61 64 65 67 68 67 70 68 68 69 69 70
66 65 66 67 64 67 68 67 67 63 62 62 62 62 62 62 63 61 61 61 60 60 60 64 66 66 63 65 67 67 59 60 60 64 64 67 67 67 68 65 66 68 69
66 67 67 65 65 65 67 67 65 62 60 62 62 62 62 62 61 61 61 59 59 61 60 65 65 65 64 62 65 67 70 66 63 56 62 64 66 65 64 63 67 67 68
66 65 66 65 64 63 63 65 66 61 62 65 64 62 63 63 61 61 59 58 57 60 63 63 65 66 68 67 65 65 65 65 65 64 60 61 64 66 66 66 69 68 64
63 63 63 63 62 61 62 64 65 62 61 62 63 61 63 62 61 61 59 58 57 59 60 63 63 65 65 67 69 67 66 65 64 65 63 63 64 65 67 65 66 66 66

GFSSE_sfc_temp_120.txt.gz
Temp
94 92 73 75 75 74 74 74 75 75 75 76 76 76 76 76 76 76 76 77 77 78 78 78 77 78 78 78 77 76 75 75 75 76 76 77 77 76 76 76 77 84 75
98 92 73 74 75 74 74 74 74 75 76 76 76 76 76 76 76 76 76 76 77 78 78 78 77 78 78 77 75 74 74 74 74 74 75 75 76 76 76 76 77 79 75
95 92 82 74 75 74 74 75 76 76 76 76 76 75 76 76 76 76 76 76 77 77 78 78 78 78 77 75 74 74 74 73 73 74 76 86 80 75 75 74 74 74 75
93 91 89 73 74 74 74 74 76 76 76 76 76 76 76 76 76 76 76 76 76 77 78 78 77 77 75 74 73 73 73 73 73 74 87 84 84 75 75 74 74 74 74
92 91 89 73 73 74 74 74 75 76 75 75 75 75 76 76 76 76 76 75 76 78 78 78 77 75 73 72 72 72 72 72 73 77 90 87 84 77 75 74 74 74 74
91 91 77 71 72 74 74 74 75 75 74 74 74 75 76 75 76 76 74 74 75 77 76 76 74 73 71 71 71 71 71 72 71 90 89 81 80 75 74 73 72 72 72
91 89 83 70 72 73 74 74 74 74 73 73 74 74 75 76 73 70 71 70 70 74 76 74 73 71 70 70 70 69 70 71 87 89 87 84 77 74 74 73 72 72 72
89 86 83 73 72 72 73 73 73 73 73 72 73 74 74 73 71 72 73 71 72 74 73 72 71 70 70 69 69 68 69 70 83 87 88 81 73 74 74 72 71 71 71
87 84 83 78 76 71 70 71 71 71 72 72 72 72 71 71 71 72 72 73 73 73 72 71 70 69 69 69 68 67 68 70 86 87 87 80 72 73 73 72 71 71 71
84 83 83 79 76 79 77 69 69 70 70 70 71 70 70 69 71 71 71 72 73 72 71 70 69 69 68 67 67 67 67 70 86 85 87 80 72 73 72 72 71 71 71
83 83 82 80 76 78 77 76 70 69 70 69 71 69 69 82 79 78 75 71 72 71 70 69 68 68 67 67 67 66 67 84 84 85 85 69 72 73 72 71 71 71 70
83 83 83 80 78 77 76 76 77 77 80 80 80 79 82 82 81 82 76 70 71 70 69 68 68 67 69 77 76 69 82 83 83 83 82 69 72 73 72 71 70 70 70
87 86 83 80 79 76 75 75 76 74 79 81 81 81 81 82 79 81 81 74 74 72 68 70 71 76 79 81 80 79 81 80 83 83 74 69 71 72 71 71 70 70 69
86 86 84 81 76 76 76 74 75 78 74 80 81 80 77 76 78 78 80 75 76 73 72 74 72 76 80 81 79 78 80 82 82 82 74 67 70 71 71 71 70 70 69
85 85 83 83 77 74 73 72 73 74 78 77 76 77 75 74 76 77 72 76 71 72 75 74 75 79 78 74 77 78 78 79 79 81 78 66 67 70 71 71 71 71 70
87 86 85 83 81 76 72 71 71 73 76 73 72 75 76 73 73 69 68 73 68 71 74 72 77 79 78 77 76 77 78 79 79 79 80 74 66 68 69 71 71 71 70
90 90 86 85 82 80 76 71 71 72 73 74 72 73 74 72 73 71 67 68 67 66 67 68 74 77 77 77 76 77 78 77 78 77 78 76 73 65 66 68 70 70 70
88 88 89 87 82 80 79 79 74 72 71 71 76 70 71 70 70 69 67 66 68 65 64 67 73 75 76 74 74 77 78 77 77 77 79 79 78 78 67 66 68 69 69
87 87 85 84 81 79 79 80 78 77 72 71 76 75 69 68 70 67 67 65 66 64 63 64 69 74 73 75 75 76 77 77 76 78 77 77 78 78 78 66 65 66 67
83 83 81 82 81 79 78 76 74 71 69 70 69 73 74 69 67 67 66 65 65 63 62 64 66 75 76 77 75 73 75 76 77 76 75 78 77 77 78 75 73 71 64
81 81 80 79 78 78 73 70 66 65 65 66 69 70 68 70 67 65 64 64 63 62 62 64 67 73 74 74 71 68 71 74 74 73 74 77 76 76 76 77 77 78 72
79 78 78 78 77 78 73 71 70 68 68 69 66 69 67 69 68 66 65 63 62 61 61 64 67 72 74 75 69 69 60 64 70 71 73 76 74 77 76 75 76 76 78
78 77 78 79 77 75 77 71 72 70 68 64 64 64 66 71 71 67 65 62 62 61 60 61 66 67 70 72 74 71 64 62 67 71 71 74 73 74 76 75 75 75 74
76 76 77 78 75 69 72 69 71 69 68 70 69 67 69 71 69 66 64 63 61 62 61 61 65 69 73 70 74 77 76 75 66 62 69 71 73 72 73 74 73 69 74
75 73 75 75 68 68 69 73 73 74 75 73 65 66 67 64 65 67 63 60 61 61 62 62 63 70 73 72 72 72 73 73 73 71 64 67 71 73 74 73 71 71 75
75 72 69 69 67 66 67 71 73 74 73 70 66 68 67 62 61 62 60 59 59 59 60 61 63 68 71 73 73 72 72 70 71 72 71 68 67 71 73 72 72 74 76